<?xml version="1.0" encoding="UTF-8" standalone="no" ?>
<gpx xmlns="http://www.topografix.com/GPX/1/1" xmlns:xsi="http://www.w3.org/2001/XMLSchema-instance" xsi:schemaLocation="http://www.topografix.com/GPX/1/1 http://www.topografix.com/GPX/1/1/gpx.xsd" version="1.1" creator="VisuGPX - https://www.visugpx.com">
  <metadata>
    <name>83-Me-Montfort</name>
    <desc><![CDATA[83-Me-Montfort : le Robernier
2024-11-27-ORB]]></desc>
  </metadata>
  <trk>
    <name><![CDATA[2024-11-27-Me-Montfort-ORB-visu]]></name>
    <extensions>
      <line xmlns="http://www.topografix.com/GPX/gpx_style/0/2">
        <width>4</width>
      </line>
    </extensions>
    <trkseg>
      <trkpt lat="43.47225" lon="6.12332">
        <ele>157.8</ele>
        <time>2024-11-27T13:04:34.000Z</time>
      </trkpt>
      <trkpt lat="43.47228" lon="6.1232">
        <ele>157.8</ele>
        <time>2024-11-27T13:04:46.000Z</time>
      </trkpt>
      <trkpt lat="43.47233" lon="6.12309">
        <ele>157.8</ele>
        <time>2024-11-27T13:04:58.000Z</time>
      </trkpt>
      <trkpt lat="43.47241" lon="6.12302">
        <ele>157.9</ele>
        <time>2024-11-27T13:05:10.000Z</time>
      </trkpt>
      <trkpt lat="43.47248" lon="6.12291">
        <ele>158.1</ele>
        <time>2024-11-27T13:05:17.000Z</time>
      </trkpt>
      <trkpt lat="43.4725" lon="6.12279">
        <ele>158.3</ele>
        <time>2024-11-27T13:05:27.000Z</time>
      </trkpt>
      <trkpt lat="43.47251" lon="6.12266">
        <ele>158.6</ele>
        <time>2024-11-27T13:05:35.000Z</time>
      </trkpt>
      <trkpt lat="43.47251" lon="6.12252">
        <ele>158.9</ele>
        <time>2024-11-27T13:05:44.000Z</time>
      </trkpt>
      <trkpt lat="43.47256" lon="6.12242">
        <ele>159.1</ele>
        <time>2024-11-27T13:05:53.000Z</time>
      </trkpt>
      <trkpt lat="43.47262" lon="6.12232">
        <ele>159.5</ele>
        <time>2024-11-27T13:06:06.000Z</time>
      </trkpt>
      <trkpt lat="43.47263" lon="6.1222">
        <ele>159.5</ele>
        <time>2024-11-27T13:06:14.000Z</time>
      </trkpt>
      <trkpt lat="43.47263" lon="6.12207">
        <ele>159.5</ele>
        <time>2024-11-27T13:06:21.000Z</time>
      </trkpt>
      <trkpt lat="43.4726" lon="6.12194">
        <ele>159.3</ele>
        <time>2024-11-27T13:06:28.000Z</time>
      </trkpt>
      <trkpt lat="43.4726" lon="6.12181">
        <ele>159.2</ele>
        <time>2024-11-27T13:06:36.000Z</time>
      </trkpt>
      <trkpt lat="43.47259" lon="6.12168">
        <ele>159</ele>
        <time>2024-11-27T13:06:47.000Z</time>
      </trkpt>
      <trkpt lat="43.47258" lon="6.12154">
        <ele>158.8</ele>
        <time>2024-11-27T13:06:57.000Z</time>
      </trkpt>
      <trkpt lat="43.47257" lon="6.12141">
        <ele>158.7</ele>
        <time>2024-11-27T13:07:05.000Z</time>
      </trkpt>
      <trkpt lat="43.47256" lon="6.12129">
        <ele>158.6</ele>
        <time>2024-11-27T13:07:14.000Z</time>
      </trkpt>
      <trkpt lat="43.47256" lon="6.12116">
        <ele>158.5</ele>
        <time>2024-11-27T13:07:23.000Z</time>
      </trkpt>
      <trkpt lat="43.47261" lon="6.12105">
        <ele>158.5</ele>
        <time>2024-11-27T13:07:32.000Z</time>
      </trkpt>
      <trkpt lat="43.47267" lon="6.12096">
        <ele>158.5</ele>
        <time>2024-11-27T13:07:42.000Z</time>
      </trkpt>
      <trkpt lat="43.47267" lon="6.12093">
        <ele>158.5</ele>
        <time>2024-11-27T13:07:55.000Z</time>
      </trkpt>
      <trkpt lat="43.47267" lon="6.12093">
        <ele>158.5</ele>
        <time>2024-11-27T13:07:56.000Z</time>
      </trkpt>
      <trkpt lat="43.47268" lon="6.12093">
        <ele>158.5</ele>
        <time>2024-11-27T13:07:57.000Z</time>
      </trkpt>
      <trkpt lat="43.47268" lon="6.12093">
        <ele>158.5</ele>
        <time>2024-11-27T13:07:58.000Z</time>
      </trkpt>
      <trkpt lat="43.47268" lon="6.12093">
        <ele>158.5</ele>
        <time>2024-11-27T13:07:59.000Z</time>
      </trkpt>
      <trkpt lat="43.47276" lon="6.12099">
        <ele>158.5</ele>
        <time>2024-11-27T13:08:21.000Z</time>
      </trkpt>
      <trkpt lat="43.47285" lon="6.12102">
        <ele>158.5</ele>
        <time>2024-11-27T13:08:30.000Z</time>
      </trkpt>
      <trkpt lat="43.47294" lon="6.12104">
        <ele>158.5</ele>
        <time>2024-11-27T13:08:41.000Z</time>
      </trkpt>
      <trkpt lat="43.47304" lon="6.12104">
        <ele>158.6</ele>
        <time>2024-11-27T13:08:51.000Z</time>
      </trkpt>
      <trkpt lat="43.47312" lon="6.1211">
        <ele>158.6</ele>
        <time>2024-11-27T13:08:59.000Z</time>
      </trkpt>
      <trkpt lat="43.47319" lon="6.12099">
        <ele>158.7</ele>
        <time>2024-11-27T13:09:06.000Z</time>
      </trkpt>
      <trkpt lat="43.47326" lon="6.12092">
        <ele>158.8</ele>
        <time>2024-11-27T13:09:21.000Z</time>
      </trkpt>
      <trkpt lat="43.47332" lon="6.12103">
        <ele>159.5</ele>
        <time>2024-11-27T13:09:34.000Z</time>
      </trkpt>
      <trkpt lat="43.47341" lon="6.12105">
        <ele>160.2</ele>
        <time>2024-11-27T13:10:01.000Z</time>
      </trkpt>
      <trkpt lat="43.47349" lon="6.12112">
        <ele>160.2</ele>
        <time>2024-11-27T13:10:11.000Z</time>
      </trkpt>
      <trkpt lat="43.47356" lon="6.1212">
        <ele>160.3</ele>
        <time>2024-11-27T13:10:21.000Z</time>
      </trkpt>
      <trkpt lat="43.47366" lon="6.1212">
        <ele>160.5</ele>
        <time>2024-11-27T13:10:32.000Z</time>
      </trkpt>
      <trkpt lat="43.47374" lon="6.12115">
        <ele>160.9</ele>
        <time>2024-11-27T13:10:44.000Z</time>
      </trkpt>
      <trkpt lat="43.47373" lon="6.12105">
        <ele>161.5</ele>
        <time>2024-11-27T13:11:03.000Z</time>
      </trkpt>
      <trkpt lat="43.47372" lon="6.12105">
        <ele>161.5</ele>
        <time>2024-11-27T13:11:04.000Z</time>
      </trkpt>
      <trkpt lat="43.4737" lon="6.12101">
        <ele>161.7</ele>
        <time>2024-11-27T13:11:33.000Z</time>
      </trkpt>
      <trkpt lat="43.4737" lon="6.12101">
        <ele>161.7</ele>
        <time>2024-11-27T13:11:34.000Z</time>
      </trkpt>
      <trkpt lat="43.4737" lon="6.12101">
        <ele>161.7</ele>
        <time>2024-11-27T13:11:35.000Z</time>
      </trkpt>
      <trkpt lat="43.4737" lon="6.12101">
        <ele>161.7</ele>
        <time>2024-11-27T13:11:36.000Z</time>
      </trkpt>
      <trkpt lat="43.4737" lon="6.12101">
        <ele>161.7</ele>
        <time>2024-11-27T13:11:37.000Z</time>
      </trkpt>
      <trkpt lat="43.47369" lon="6.12098">
        <ele>161.6</ele>
        <time>2024-11-27T13:12:23.000Z</time>
      </trkpt>
      <trkpt lat="43.47369" lon="6.12098">
        <ele>161.6</ele>
        <time>2024-11-27T13:12:24.000Z</time>
      </trkpt>
      <trkpt lat="43.47369" lon="6.12099">
        <ele>161.6</ele>
        <time>2024-11-27T13:12:27.000Z</time>
      </trkpt>
      <trkpt lat="43.47369" lon="6.121">
        <ele>161.6</ele>
        <time>2024-11-27T13:12:28.000Z</time>
      </trkpt>
      <trkpt lat="43.4737" lon="6.12101">
        <ele>161.6</ele>
        <time>2024-11-27T13:12:29.000Z</time>
      </trkpt>
      <trkpt lat="43.47371" lon="6.121">
        <ele>161.6</ele>
        <time>2024-11-27T13:12:33.000Z</time>
      </trkpt>
      <trkpt lat="43.47373" lon="6.121">
        <ele>161.6</ele>
        <time>2024-11-27T13:12:34.000Z</time>
      </trkpt>
      <trkpt lat="43.47376" lon="6.121">
        <ele>161.6</ele>
        <time>2024-11-27T13:12:40.000Z</time>
      </trkpt>
      <trkpt lat="43.47376" lon="6.121">
        <ele>161.6</ele>
        <time>2024-11-27T13:12:41.000Z</time>
      </trkpt>
      <trkpt lat="43.47377" lon="6.121">
        <ele>161.7</ele>
        <time>2024-11-27T13:12:42.000Z</time>
      </trkpt>
      <trkpt lat="43.47377" lon="6.12101">
        <ele>161.7</ele>
        <time>2024-11-27T13:12:43.000Z</time>
      </trkpt>
      <trkpt lat="43.47377" lon="6.12101">
        <ele>161.7</ele>
        <time>2024-11-27T13:12:44.000Z</time>
      </trkpt>
      <trkpt lat="43.47383" lon="6.12111">
        <ele>161.8</ele>
        <time>2024-11-27T13:12:50.000Z</time>
      </trkpt>
      <trkpt lat="43.47382" lon="6.12107">
        <ele>162</ele>
        <time>2024-11-27T13:13:00.000Z</time>
      </trkpt>
      <trkpt lat="43.47383" lon="6.12106">
        <ele>162</ele>
        <time>2024-11-27T13:13:01.000Z</time>
      </trkpt>
      <trkpt lat="43.47383" lon="6.12107">
        <ele>162</ele>
        <time>2024-11-27T13:13:02.000Z</time>
      </trkpt>
      <trkpt lat="43.47384" lon="6.12109">
        <ele>162</ele>
        <time>2024-11-27T13:13:03.000Z</time>
      </trkpt>
      <trkpt lat="43.47384" lon="6.1211">
        <ele>162.1</ele>
        <time>2024-11-27T13:13:04.000Z</time>
      </trkpt>
      <trkpt lat="43.47388" lon="6.12122">
        <ele>162.3</ele>
        <time>2024-11-27T13:13:12.000Z</time>
      </trkpt>
      <trkpt lat="43.4739" lon="6.12136">
        <ele>162.5</ele>
        <time>2024-11-27T13:13:19.000Z</time>
      </trkpt>
      <trkpt lat="43.47399" lon="6.12138">
        <ele>164.1</ele>
        <time>2024-11-27T13:13:37.000Z</time>
      </trkpt>
      <trkpt lat="43.47402" lon="6.1215">
        <ele>166.6</ele>
        <time>2024-11-27T13:13:52.000Z</time>
      </trkpt>
      <trkpt lat="43.47409" lon="6.12159">
        <ele>172.1</ele>
        <time>2024-11-27T13:14:15.000Z</time>
      </trkpt>
      <trkpt lat="43.47417" lon="6.12161">
        <ele>172.1</ele>
        <time>2024-11-27T13:14:32.000Z</time>
      </trkpt>
      <trkpt lat="43.47417" lon="6.12161">
        <ele>172.1</ele>
        <time>2024-11-27T13:14:33.000Z</time>
      </trkpt>
      <trkpt lat="43.47417" lon="6.1216">
        <ele>172.1</ele>
        <time>2024-11-27T13:14:34.000Z</time>
      </trkpt>
      <trkpt lat="43.47417" lon="6.1216">
        <ele>172.1</ele>
        <time>2024-11-27T13:15:00.000Z</time>
      </trkpt>
      <trkpt lat="43.47417" lon="6.1216">
        <ele>172.1</ele>
        <time>2024-11-27T13:15:01.000Z</time>
      </trkpt>
      <trkpt lat="43.47416" lon="6.12159">
        <ele>172.1</ele>
        <time>2024-11-27T13:15:05.000Z</time>
      </trkpt>
      <trkpt lat="43.47415" lon="6.1216">
        <ele>172.1</ele>
        <time>2024-11-27T13:15:06.000Z</time>
      </trkpt>
      <trkpt lat="43.47415" lon="6.12162">
        <ele>172.1</ele>
        <time>2024-11-27T13:15:12.000Z</time>
      </trkpt>
      <trkpt lat="43.47414" lon="6.12163">
        <ele>172.1</ele>
        <time>2024-11-27T13:15:13.000Z</time>
      </trkpt>
      <trkpt lat="43.47413" lon="6.12163">
        <ele>172.1</ele>
        <time>2024-11-27T13:15:14.000Z</time>
      </trkpt>
      <trkpt lat="43.47413" lon="6.12162">
        <ele>172.1</ele>
        <time>2024-11-27T13:15:15.000Z</time>
      </trkpt>
      <trkpt lat="43.47414" lon="6.12161">
        <ele>172.1</ele>
        <time>2024-11-27T13:15:16.000Z</time>
      </trkpt>
      <trkpt lat="43.47413" lon="6.12161">
        <ele>172.1</ele>
        <time>2024-11-27T13:15:17.000Z</time>
      </trkpt>
      <trkpt lat="43.47413" lon="6.12161">
        <ele>172.1</ele>
        <time>2024-11-27T13:15:18.000Z</time>
      </trkpt>
      <trkpt lat="43.47413" lon="6.12161">
        <ele>172.1</ele>
        <time>2024-11-27T13:15:19.000Z</time>
      </trkpt>
      <trkpt lat="43.47413" lon="6.12161">
        <ele>172.1</ele>
        <time>2024-11-27T13:15:20.000Z</time>
      </trkpt>
      <trkpt lat="43.47413" lon="6.12161">
        <ele>172.1</ele>
        <time>2024-11-27T13:15:21.000Z</time>
      </trkpt>
      <trkpt lat="43.47413" lon="6.12161">
        <ele>172.1</ele>
        <time>2024-11-27T13:15:22.000Z</time>
      </trkpt>
      <trkpt lat="43.47413" lon="6.12162">
        <ele>172.1</ele>
        <time>2024-11-27T13:15:30.000Z</time>
      </trkpt>
      <trkpt lat="43.47413" lon="6.12162">
        <ele>172.1</ele>
        <time>2024-11-27T13:15:31.000Z</time>
      </trkpt>
      <trkpt lat="43.47413" lon="6.12162">
        <ele>172.1</ele>
        <time>2024-11-27T13:15:32.000Z</time>
      </trkpt>
      <trkpt lat="43.47414" lon="6.12161">
        <ele>172.1</ele>
        <time>2024-11-27T13:15:37.000Z</time>
      </trkpt>
      <trkpt lat="43.47414" lon="6.12161">
        <ele>172.1</ele>
        <time>2024-11-27T13:15:38.000Z</time>
      </trkpt>
      <trkpt lat="43.47415" lon="6.12161">
        <ele>172.1</ele>
        <time>2024-11-27T13:15:39.000Z</time>
      </trkpt>
      <trkpt lat="43.47415" lon="6.12162">
        <ele>172.1</ele>
        <time>2024-11-27T13:15:40.000Z</time>
      </trkpt>
      <trkpt lat="43.47415" lon="6.12162">
        <ele>172.1</ele>
        <time>2024-11-27T13:15:41.000Z</time>
      </trkpt>
      <trkpt lat="43.47414" lon="6.12163">
        <ele>172.1</ele>
        <time>2024-11-27T13:15:42.000Z</time>
      </trkpt>
      <trkpt lat="43.47414" lon="6.12162">
        <ele>172.1</ele>
        <time>2024-11-27T13:15:51.000Z</time>
      </trkpt>
      <trkpt lat="43.47414" lon="6.12162">
        <ele>172.1</ele>
        <time>2024-11-27T13:15:52.000Z</time>
      </trkpt>
      <trkpt lat="43.47415" lon="6.12162">
        <ele>172.1</ele>
        <time>2024-11-27T13:15:53.000Z</time>
      </trkpt>
      <trkpt lat="43.47415" lon="6.12162">
        <ele>172.1</ele>
        <time>2024-11-27T13:15:54.000Z</time>
      </trkpt>
      <trkpt lat="43.47418" lon="6.1215">
        <ele>172.8</ele>
        <time>2024-11-27T13:16:08.000Z</time>
      </trkpt>
      <trkpt lat="43.4741" lon="6.12142">
        <ele>175.4</ele>
        <time>2024-11-27T13:16:22.000Z</time>
      </trkpt>
      <trkpt lat="43.47408" lon="6.12143">
        <ele>175.9</ele>
        <time>2024-11-27T13:16:33.000Z</time>
      </trkpt>
      <trkpt lat="43.47408" lon="6.12143">
        <ele>176</ele>
        <time>2024-11-27T13:16:34.000Z</time>
      </trkpt>
      <trkpt lat="43.47408" lon="6.12141">
        <ele>176</ele>
        <time>2024-11-27T13:16:38.000Z</time>
      </trkpt>
      <trkpt lat="43.47408" lon="6.12141">
        <ele>176.1</ele>
        <time>2024-11-27T13:16:39.000Z</time>
      </trkpt>
      <trkpt lat="43.47409" lon="6.12142">
        <ele>176.1</ele>
        <time>2024-11-27T13:16:58.000Z</time>
      </trkpt>
      <trkpt lat="43.47409" lon="6.12142">
        <ele>176.1</ele>
        <time>2024-11-27T13:16:59.000Z</time>
      </trkpt>
      <trkpt lat="43.47409" lon="6.12142">
        <ele>176.1</ele>
        <time>2024-11-27T13:17:00.000Z</time>
      </trkpt>
      <trkpt lat="43.47408" lon="6.12142">
        <ele>176.3</ele>
        <time>2024-11-27T13:17:28.000Z</time>
      </trkpt>
      <trkpt lat="43.47409" lon="6.12142">
        <ele>176.3</ele>
        <time>2024-11-27T13:17:29.000Z</time>
      </trkpt>
      <trkpt lat="43.47409" lon="6.12142">
        <ele>176.3</ele>
        <time>2024-11-27T13:17:30.000Z</time>
      </trkpt>
      <trkpt lat="43.47409" lon="6.12142">
        <ele>176.3</ele>
        <time>2024-11-27T13:17:31.000Z</time>
      </trkpt>
      <trkpt lat="43.47409" lon="6.12142">
        <ele>176.3</ele>
        <time>2024-11-27T13:17:42.000Z</time>
      </trkpt>
      <trkpt lat="43.47409" lon="6.12142">
        <ele>176.3</ele>
        <time>2024-11-27T13:17:43.000Z</time>
      </trkpt>
      <trkpt lat="43.47409" lon="6.12142">
        <ele>176.3</ele>
        <time>2024-11-27T13:17:44.000Z</time>
      </trkpt>
      <trkpt lat="43.47409" lon="6.12142">
        <ele>176.3</ele>
        <time>2024-11-27T13:17:45.000Z</time>
      </trkpt>
      <trkpt lat="43.47409" lon="6.12142">
        <ele>176.3</ele>
        <time>2024-11-27T13:17:46.000Z</time>
      </trkpt>
      <trkpt lat="43.47409" lon="6.12142">
        <ele>176.3</ele>
        <time>2024-11-27T13:17:47.000Z</time>
      </trkpt>
      <trkpt lat="43.47408" lon="6.12143">
        <ele>176.3</ele>
        <time>2024-11-27T13:17:48.000Z</time>
      </trkpt>
      <trkpt lat="43.47408" lon="6.12143">
        <ele>176.3</ele>
        <time>2024-11-27T13:17:49.000Z</time>
      </trkpt>
      <trkpt lat="43.47409" lon="6.12143">
        <ele>176.3</ele>
        <time>2024-11-27T13:17:50.000Z</time>
      </trkpt>
      <trkpt lat="43.47408" lon="6.12143">
        <ele>176.3</ele>
        <time>2024-11-27T13:17:51.000Z</time>
      </trkpt>
      <trkpt lat="43.47409" lon="6.12143">
        <ele>176.3</ele>
        <time>2024-11-27T13:17:52.000Z</time>
      </trkpt>
      <trkpt lat="43.47409" lon="6.12143">
        <ele>176.3</ele>
        <time>2024-11-27T13:17:56.000Z</time>
      </trkpt>
      <trkpt lat="43.47409" lon="6.12143">
        <ele>176.3</ele>
        <time>2024-11-27T13:17:57.000Z</time>
      </trkpt>
      <trkpt lat="43.47409" lon="6.12143">
        <ele>176.3</ele>
        <time>2024-11-27T13:18:00.000Z</time>
      </trkpt>
      <trkpt lat="43.47409" lon="6.12143">
        <ele>176.3</ele>
        <time>2024-11-27T13:18:01.000Z</time>
      </trkpt>
      <trkpt lat="43.47409" lon="6.12143">
        <ele>176.3</ele>
        <time>2024-11-27T13:18:02.000Z</time>
      </trkpt>
      <trkpt lat="43.47409" lon="6.12143">
        <ele>176.3</ele>
        <time>2024-11-27T13:18:03.000Z</time>
      </trkpt>
      <trkpt lat="43.47409" lon="6.12144">
        <ele>176.3</ele>
        <time>2024-11-27T13:18:04.000Z</time>
      </trkpt>
      <trkpt lat="43.47409" lon="6.12144">
        <ele>176.3</ele>
        <time>2024-11-27T13:18:08.000Z</time>
      </trkpt>
      <trkpt lat="43.47409" lon="6.12144">
        <ele>176.3</ele>
        <time>2024-11-27T13:18:09.000Z</time>
      </trkpt>
      <trkpt lat="43.47409" lon="6.12144">
        <ele>176.3</ele>
        <time>2024-11-27T13:18:10.000Z</time>
      </trkpt>
      <trkpt lat="43.47409" lon="6.12144">
        <ele>176.3</ele>
        <time>2024-11-27T13:18:11.000Z</time>
      </trkpt>
      <trkpt lat="43.47409" lon="6.12144">
        <ele>176.3</ele>
        <time>2024-11-27T13:18:12.000Z</time>
      </trkpt>
      <trkpt lat="43.47409" lon="6.12144">
        <ele>176.3</ele>
        <time>2024-11-27T13:18:13.000Z</time>
      </trkpt>
      <trkpt lat="43.47409" lon="6.12145">
        <ele>176.3</ele>
        <time>2024-11-27T13:18:14.000Z</time>
      </trkpt>
      <trkpt lat="43.4741" lon="6.12145">
        <ele>176.3</ele>
        <time>2024-11-27T13:18:17.000Z</time>
      </trkpt>
      <trkpt lat="43.4741" lon="6.12145">
        <ele>176.3</ele>
        <time>2024-11-27T13:18:18.000Z</time>
      </trkpt>
      <trkpt lat="43.4741" lon="6.12145">
        <ele>176.3</ele>
        <time>2024-11-27T13:18:19.000Z</time>
      </trkpt>
      <trkpt lat="43.47415" lon="6.12134">
        <ele>176.3</ele>
        <time>2024-11-27T13:18:37.000Z</time>
      </trkpt>
      <trkpt lat="43.47424" lon="6.12132">
        <ele>176.6</ele>
        <time>2024-11-27T13:18:54.000Z</time>
      </trkpt>
      <trkpt lat="43.47425" lon="6.12119">
        <ele>177.7</ele>
        <time>2024-11-27T13:19:05.000Z</time>
      </trkpt>
      <trkpt lat="43.47421" lon="6.1211">
        <ele>179.8</ele>
        <time>2024-11-27T13:19:20.000Z</time>
      </trkpt>
      <trkpt lat="43.47422" lon="6.12111">
        <ele>179.9</ele>
        <time>2024-11-27T13:19:21.000Z</time>
      </trkpt>
      <trkpt lat="43.47422" lon="6.12112">
        <ele>180</ele>
        <time>2024-11-27T13:19:22.000Z</time>
      </trkpt>
      <trkpt lat="43.47423" lon="6.12112">
        <ele>180.1</ele>
        <time>2024-11-27T13:19:23.000Z</time>
      </trkpt>
      <trkpt lat="43.47424" lon="6.12113">
        <ele>180.1</ele>
        <time>2024-11-27T13:19:24.000Z</time>
      </trkpt>
      <trkpt lat="43.47425" lon="6.12113">
        <ele>180.2</ele>
        <time>2024-11-27T13:19:25.000Z</time>
      </trkpt>
      <trkpt lat="43.47434" lon="6.12118">
        <ele>181.8</ele>
        <time>2024-11-27T13:19:41.000Z</time>
      </trkpt>
      <trkpt lat="43.47442" lon="6.12111">
        <ele>184.2</ele>
        <time>2024-11-27T13:20:05.000Z</time>
      </trkpt>
      <trkpt lat="43.47442" lon="6.12111">
        <ele>184.2</ele>
        <time>2024-11-27T13:20:08.000Z</time>
      </trkpt>
      <trkpt lat="43.47442" lon="6.12111">
        <ele>184.2</ele>
        <time>2024-11-27T13:20:09.000Z</time>
      </trkpt>
      <trkpt lat="43.47442" lon="6.12111">
        <ele>184.2</ele>
        <time>2024-11-27T13:20:10.000Z</time>
      </trkpt>
      <trkpt lat="43.47442" lon="6.12111">
        <ele>184.3</ele>
        <time>2024-11-27T13:20:13.000Z</time>
      </trkpt>
      <trkpt lat="43.47442" lon="6.12111">
        <ele>184.3</ele>
        <time>2024-11-27T13:20:14.000Z</time>
      </trkpt>
      <trkpt lat="43.47442" lon="6.12111">
        <ele>184.3</ele>
        <time>2024-11-27T13:20:17.000Z</time>
      </trkpt>
      <trkpt lat="43.47442" lon="6.12111">
        <ele>184.3</ele>
        <time>2024-11-27T13:20:18.000Z</time>
      </trkpt>
      <trkpt lat="43.47442" lon="6.12111">
        <ele>184.3</ele>
        <time>2024-11-27T13:20:19.000Z</time>
      </trkpt>
      <trkpt lat="43.47442" lon="6.1211">
        <ele>184.3</ele>
        <time>2024-11-27T13:20:20.000Z</time>
      </trkpt>
      <trkpt lat="43.47443" lon="6.1211">
        <ele>184.4</ele>
        <time>2024-11-27T13:20:21.000Z</time>
      </trkpt>
      <trkpt lat="43.47443" lon="6.1211">
        <ele>184.4</ele>
        <time>2024-11-27T13:20:22.000Z</time>
      </trkpt>
      <trkpt lat="43.47443" lon="6.1211">
        <ele>184.4</ele>
        <time>2024-11-27T13:20:26.000Z</time>
      </trkpt>
      <trkpt lat="43.47443" lon="6.1211">
        <ele>184.4</ele>
        <time>2024-11-27T13:20:27.000Z</time>
      </trkpt>
      <trkpt lat="43.47444" lon="6.12109">
        <ele>184.5</ele>
        <time>2024-11-27T13:20:41.000Z</time>
      </trkpt>
      <trkpt lat="43.47444" lon="6.12109">
        <ele>184.5</ele>
        <time>2024-11-27T13:20:42.000Z</time>
      </trkpt>
      <trkpt lat="43.47444" lon="6.12109">
        <ele>184.5</ele>
        <time>2024-11-27T13:20:43.000Z</time>
      </trkpt>
      <trkpt lat="43.47444" lon="6.12109">
        <ele>184.5</ele>
        <time>2024-11-27T13:20:44.000Z</time>
      </trkpt>
      <trkpt lat="43.47444" lon="6.12109">
        <ele>184.6</ele>
        <time>2024-11-27T13:21:23.000Z</time>
      </trkpt>
      <trkpt lat="43.47444" lon="6.12109">
        <ele>184.6</ele>
        <time>2024-11-27T13:21:24.000Z</time>
      </trkpt>
      <trkpt lat="43.47444" lon="6.12109">
        <ele>184.6</ele>
        <time>2024-11-27T13:21:25.000Z</time>
      </trkpt>
      <trkpt lat="43.47444" lon="6.12109">
        <ele>184.6</ele>
        <time>2024-11-27T13:21:26.000Z</time>
      </trkpt>
      <trkpt lat="43.47444" lon="6.12109">
        <ele>184.6</ele>
        <time>2024-11-27T13:21:27.000Z</time>
      </trkpt>
      <trkpt lat="43.47444" lon="6.12108">
        <ele>184.6</ele>
        <time>2024-11-27T13:22:50.000Z</time>
      </trkpt>
      <trkpt lat="43.47444" lon="6.12108">
        <ele>184.6</ele>
        <time>2024-11-27T13:22:51.000Z</time>
      </trkpt>
      <trkpt lat="43.47444" lon="6.12107">
        <ele>184.6</ele>
        <time>2024-11-27T13:22:52.000Z</time>
      </trkpt>
      <trkpt lat="43.47444" lon="6.12107">
        <ele>184.6</ele>
        <time>2024-11-27T13:22:53.000Z</time>
      </trkpt>
      <trkpt lat="43.47444" lon="6.12107">
        <ele>184.6</ele>
        <time>2024-11-27T13:22:54.000Z</time>
      </trkpt>
      <trkpt lat="43.47444" lon="6.12107">
        <ele>184.6</ele>
        <time>2024-11-27T13:22:58.000Z</time>
      </trkpt>
      <trkpt lat="43.47444" lon="6.12107">
        <ele>184.6</ele>
        <time>2024-11-27T13:22:59.000Z</time>
      </trkpt>
      <trkpt lat="43.47444" lon="6.12107">
        <ele>184.6</ele>
        <time>2024-11-27T13:23:00.000Z</time>
      </trkpt>
      <trkpt lat="43.47444" lon="6.12107">
        <ele>184.6</ele>
        <time>2024-11-27T13:23:01.000Z</time>
      </trkpt>
      <trkpt lat="43.47444" lon="6.12108">
        <ele>184.6</ele>
        <time>2024-11-27T13:23:07.000Z</time>
      </trkpt>
      <trkpt lat="43.47444" lon="6.12108">
        <ele>184.6</ele>
        <time>2024-11-27T13:23:08.000Z</time>
      </trkpt>
      <trkpt lat="43.47444" lon="6.12108">
        <ele>184.6</ele>
        <time>2024-11-27T13:23:09.000Z</time>
      </trkpt>
      <trkpt lat="43.47444" lon="6.12108">
        <ele>184.6</ele>
        <time>2024-11-27T13:23:12.000Z</time>
      </trkpt>
      <trkpt lat="43.47444" lon="6.12107">
        <ele>184.6</ele>
        <time>2024-11-27T13:23:13.000Z</time>
      </trkpt>
      <trkpt lat="43.47444" lon="6.12107">
        <ele>184.6</ele>
        <time>2024-11-27T13:23:14.000Z</time>
      </trkpt>
      <trkpt lat="43.47444" lon="6.12107">
        <ele>184.6</ele>
        <time>2024-11-27T13:23:15.000Z</time>
      </trkpt>
      <trkpt lat="43.47444" lon="6.12107">
        <ele>184.6</ele>
        <time>2024-11-27T13:23:16.000Z</time>
      </trkpt>
      <trkpt lat="43.47444" lon="6.121">
        <ele>184.6</ele>
        <time>2024-11-27T13:23:38.000Z</time>
      </trkpt>
      <trkpt lat="43.47444" lon="6.121">
        <ele>184.6</ele>
        <time>2024-11-27T13:23:39.000Z</time>
      </trkpt>
      <trkpt lat="43.47444" lon="6.121">
        <ele>184.6</ele>
        <time>2024-11-27T13:23:40.000Z</time>
      </trkpt>
      <trkpt lat="43.47444" lon="6.12099">
        <ele>184.7</ele>
        <time>2024-11-27T13:23:55.000Z</time>
      </trkpt>
      <trkpt lat="43.47444" lon="6.12098">
        <ele>184.7</ele>
        <time>2024-11-27T13:23:56.000Z</time>
      </trkpt>
      <trkpt lat="43.47442" lon="6.12095">
        <ele>184.7</ele>
        <time>2024-11-27T13:24:02.000Z</time>
      </trkpt>
      <trkpt lat="43.47443" lon="6.12095">
        <ele>184.7</ele>
        <time>2024-11-27T13:24:03.000Z</time>
      </trkpt>
      <trkpt lat="43.47443" lon="6.12094">
        <ele>184.7</ele>
        <time>2024-11-27T13:24:04.000Z</time>
      </trkpt>
      <trkpt lat="43.47443" lon="6.12093">
        <ele>184.7</ele>
        <time>2024-11-27T13:24:05.000Z</time>
      </trkpt>
      <trkpt lat="43.47443" lon="6.12093">
        <ele>184.7</ele>
        <time>2024-11-27T13:24:06.000Z</time>
      </trkpt>
      <trkpt lat="43.47443" lon="6.12094">
        <ele>184.7</ele>
        <time>2024-11-27T13:24:07.000Z</time>
      </trkpt>
      <trkpt lat="43.47442" lon="6.12094">
        <ele>184.7</ele>
        <time>2024-11-27T13:24:13.000Z</time>
      </trkpt>
      <trkpt lat="43.47442" lon="6.12094">
        <ele>184.7</ele>
        <time>2024-11-27T13:24:14.000Z</time>
      </trkpt>
      <trkpt lat="43.47442" lon="6.12094">
        <ele>184.7</ele>
        <time>2024-11-27T13:24:28.000Z</time>
      </trkpt>
      <trkpt lat="43.47442" lon="6.12094">
        <ele>184.7</ele>
        <time>2024-11-27T13:24:29.000Z</time>
      </trkpt>
      <trkpt lat="43.47441" lon="6.12102">
        <ele>184.7</ele>
        <time>2024-11-27T13:24:42.000Z</time>
      </trkpt>
      <trkpt lat="43.47441" lon="6.12102">
        <ele>184.7</ele>
        <time>2024-11-27T13:24:43.000Z</time>
      </trkpt>
      <trkpt lat="43.47441" lon="6.12102">
        <ele>184.7</ele>
        <time>2024-11-27T13:24:44.000Z</time>
      </trkpt>
      <trkpt lat="43.47441" lon="6.12103">
        <ele>184.7</ele>
        <time>2024-11-27T13:24:45.000Z</time>
      </trkpt>
      <trkpt lat="43.47441" lon="6.12103">
        <ele>184.7</ele>
        <time>2024-11-27T13:24:46.000Z</time>
      </trkpt>
      <trkpt lat="43.47441" lon="6.12103">
        <ele>184.7</ele>
        <time>2024-11-27T13:24:47.000Z</time>
      </trkpt>
      <trkpt lat="43.47441" lon="6.12103">
        <ele>184.7</ele>
        <time>2024-11-27T13:24:48.000Z</time>
      </trkpt>
      <trkpt lat="43.47441" lon="6.12103">
        <ele>184.7</ele>
        <time>2024-11-27T13:24:49.000Z</time>
      </trkpt>
      <trkpt lat="43.4744" lon="6.12103">
        <ele>184.7</ele>
        <time>2024-11-27T13:24:58.000Z</time>
      </trkpt>
      <trkpt lat="43.47441" lon="6.12103">
        <ele>184.7</ele>
        <time>2024-11-27T13:24:59.000Z</time>
      </trkpt>
      <trkpt lat="43.4744" lon="6.12099">
        <ele>184.7</ele>
        <time>2024-11-27T13:25:10.000Z</time>
      </trkpt>
      <trkpt lat="43.4744" lon="6.12099">
        <ele>184.7</ele>
        <time>2024-11-27T13:25:11.000Z</time>
      </trkpt>
      <trkpt lat="43.4744" lon="6.12099">
        <ele>184.7</ele>
        <time>2024-11-27T13:25:12.000Z</time>
      </trkpt>
      <trkpt lat="43.47441" lon="6.12098">
        <ele>184.7</ele>
        <time>2024-11-27T13:25:15.000Z</time>
      </trkpt>
      <trkpt lat="43.47441" lon="6.12097">
        <ele>184.7</ele>
        <time>2024-11-27T13:25:16.000Z</time>
      </trkpt>
      <trkpt lat="43.47441" lon="6.12097">
        <ele>184.7</ele>
        <time>2024-11-27T13:25:17.000Z</time>
      </trkpt>
      <trkpt lat="43.47441" lon="6.12097">
        <ele>184.7</ele>
        <time>2024-11-27T13:25:21.000Z</time>
      </trkpt>
      <trkpt lat="43.47441" lon="6.12097">
        <ele>184.7</ele>
        <time>2024-11-27T13:25:22.000Z</time>
      </trkpt>
      <trkpt lat="43.47442" lon="6.12097">
        <ele>184.7</ele>
        <time>2024-11-27T13:25:25.000Z</time>
      </trkpt>
      <trkpt lat="43.47442" lon="6.12096">
        <ele>184.7</ele>
        <time>2024-11-27T13:25:26.000Z</time>
      </trkpt>
      <trkpt lat="43.47442" lon="6.12096">
        <ele>184.7</ele>
        <time>2024-11-27T13:25:30.000Z</time>
      </trkpt>
      <trkpt lat="43.47442" lon="6.12096">
        <ele>184.7</ele>
        <time>2024-11-27T13:25:31.000Z</time>
      </trkpt>
      <trkpt lat="43.47442" lon="6.12096">
        <ele>184.7</ele>
        <time>2024-11-27T13:25:35.000Z</time>
      </trkpt>
      <trkpt lat="43.47442" lon="6.12096">
        <ele>184.7</ele>
        <time>2024-11-27T13:25:36.000Z</time>
      </trkpt>
      <trkpt lat="43.47441" lon="6.12095">
        <ele>184.7</ele>
        <time>2024-11-27T13:25:37.000Z</time>
      </trkpt>
      <trkpt lat="43.47441" lon="6.12095">
        <ele>184.7</ele>
        <time>2024-11-27T13:25:43.000Z</time>
      </trkpt>
      <trkpt lat="43.47441" lon="6.12095">
        <ele>184.7</ele>
        <time>2024-11-27T13:25:44.000Z</time>
      </trkpt>
      <trkpt lat="43.47441" lon="6.12095">
        <ele>184.7</ele>
        <time>2024-11-27T13:25:45.000Z</time>
      </trkpt>
      <trkpt lat="43.47441" lon="6.12095">
        <ele>184.8</ele>
        <time>2024-11-27T13:26:02.000Z</time>
      </trkpt>
      <trkpt lat="43.47441" lon="6.12095">
        <ele>184.8</ele>
        <time>2024-11-27T13:26:03.000Z</time>
      </trkpt>
      <trkpt lat="43.47441" lon="6.12095">
        <ele>184.8</ele>
        <time>2024-11-27T13:26:04.000Z</time>
      </trkpt>
      <trkpt lat="43.47441" lon="6.12095">
        <ele>184.8</ele>
        <time>2024-11-27T13:26:05.000Z</time>
      </trkpt>
      <trkpt lat="43.47441" lon="6.12095">
        <ele>184.8</ele>
        <time>2024-11-27T13:26:06.000Z</time>
      </trkpt>
      <trkpt lat="43.47441" lon="6.12095">
        <ele>184.8</ele>
        <time>2024-11-27T13:26:10.000Z</time>
      </trkpt>
      <trkpt lat="43.47441" lon="6.12095">
        <ele>184.8</ele>
        <time>2024-11-27T13:26:11.000Z</time>
      </trkpt>
      <trkpt lat="43.47441" lon="6.12095">
        <ele>184.8</ele>
        <time>2024-11-27T13:26:12.000Z</time>
      </trkpt>
      <trkpt lat="43.47441" lon="6.12095">
        <ele>184.8</ele>
        <time>2024-11-27T13:26:13.000Z</time>
      </trkpt>
      <trkpt lat="43.47441" lon="6.12095">
        <ele>184.8</ele>
        <time>2024-11-27T13:26:14.000Z</time>
      </trkpt>
      <trkpt lat="43.47441" lon="6.12095">
        <ele>184.8</ele>
        <time>2024-11-27T13:26:22.000Z</time>
      </trkpt>
      <trkpt lat="43.47441" lon="6.12094">
        <ele>184.8</ele>
        <time>2024-11-27T13:26:23.000Z</time>
      </trkpt>
      <trkpt lat="43.47441" lon="6.12094">
        <ele>184.8</ele>
        <time>2024-11-27T13:26:24.000Z</time>
      </trkpt>
      <trkpt lat="43.47441" lon="6.12095">
        <ele>184.8</ele>
        <time>2024-11-27T13:26:31.000Z</time>
      </trkpt>
      <trkpt lat="43.47441" lon="6.12095">
        <ele>184.8</ele>
        <time>2024-11-27T13:26:32.000Z</time>
      </trkpt>
      <trkpt lat="43.47441" lon="6.12098">
        <ele>184.8</ele>
        <time>2024-11-27T13:26:48.000Z</time>
      </trkpt>
      <trkpt lat="43.4744" lon="6.12101">
        <ele>184.8</ele>
        <time>2024-11-27T13:26:49.000Z</time>
      </trkpt>
      <trkpt lat="43.47444" lon="6.12112">
        <ele>184.8</ele>
        <time>2024-11-27T13:26:56.000Z</time>
      </trkpt>
      <trkpt lat="43.47451" lon="6.1212">
        <ele>184.5</ele>
        <time>2024-11-27T13:27:07.000Z</time>
      </trkpt>
      <trkpt lat="43.4746" lon="6.12117">
        <ele>182.8</ele>
        <time>2024-11-27T13:27:24.000Z</time>
      </trkpt>
      <trkpt lat="43.47469" lon="6.12112">
        <ele>181.7</ele>
        <time>2024-11-27T13:27:36.000Z</time>
      </trkpt>
      <trkpt lat="43.47477" lon="6.12106">
        <ele>180.8</ele>
        <time>2024-11-27T13:27:46.000Z</time>
      </trkpt>
      <trkpt lat="43.47486" lon="6.12105">
        <ele>179.2</ele>
        <time>2024-11-27T13:27:58.000Z</time>
      </trkpt>
      <trkpt lat="43.47492" lon="6.12095">
        <ele>179.2</ele>
        <time>2024-11-27T13:28:13.000Z</time>
      </trkpt>
      <trkpt lat="43.47501" lon="6.12097">
        <ele>179.8</ele>
        <time>2024-11-27T13:28:21.000Z</time>
      </trkpt>
      <trkpt lat="43.4751" lon="6.12099">
        <ele>180.6</ele>
        <time>2024-11-27T13:28:31.000Z</time>
      </trkpt>
      <trkpt lat="43.47518" lon="6.12091">
        <ele>182.6</ele>
        <time>2024-11-27T13:28:44.000Z</time>
      </trkpt>
      <trkpt lat="43.47518" lon="6.12079">
        <ele>186.6</ele>
        <time>2024-11-27T13:29:15.000Z</time>
      </trkpt>
      <trkpt lat="43.47522" lon="6.12067">
        <ele>187.6</ele>
        <time>2024-11-27T13:29:25.000Z</time>
      </trkpt>
      <trkpt lat="43.47525" lon="6.12055">
        <ele>188.5</ele>
        <time>2024-11-27T13:29:35.000Z</time>
      </trkpt>
      <trkpt lat="43.47529" lon="6.12043">
        <ele>189.4</ele>
        <time>2024-11-27T13:29:45.000Z</time>
      </trkpt>
      <trkpt lat="43.47532" lon="6.12032">
        <ele>190</ele>
        <time>2024-11-27T13:29:55.000Z</time>
      </trkpt>
      <trkpt lat="43.47537" lon="6.12021">
        <ele>190.4</ele>
        <time>2024-11-27T13:30:03.000Z</time>
      </trkpt>
      <trkpt lat="43.47542" lon="6.12009">
        <ele>190.9</ele>
        <time>2024-11-27T13:30:14.000Z</time>
      </trkpt>
      <trkpt lat="43.47543" lon="6.11997">
        <ele>191.5</ele>
        <time>2024-11-27T13:30:25.000Z</time>
      </trkpt>
      <trkpt lat="43.47549" lon="6.11986">
        <ele>192.1</ele>
        <time>2024-11-27T13:30:35.000Z</time>
      </trkpt>
      <trkpt lat="43.47552" lon="6.11974">
        <ele>192.9</ele>
        <time>2024-11-27T13:30:48.000Z</time>
      </trkpt>
      <trkpt lat="43.4755" lon="6.11962">
        <ele>193.7</ele>
        <time>2024-11-27T13:31:01.000Z</time>
      </trkpt>
      <trkpt lat="43.47549" lon="6.11949">
        <ele>195.4</ele>
        <time>2024-11-27T13:31:16.000Z</time>
      </trkpt>
      <trkpt lat="43.47547" lon="6.11936">
        <ele>197.8</ele>
        <time>2024-11-27T13:31:32.000Z</time>
      </trkpt>
      <trkpt lat="43.47544" lon="6.11923">
        <ele>200</ele>
        <time>2024-11-27T13:31:47.000Z</time>
      </trkpt>
      <trkpt lat="43.47541" lon="6.1191">
        <ele>202.1</ele>
        <time>2024-11-27T13:32:01.000Z</time>
      </trkpt>
      <trkpt lat="43.4754" lon="6.11898">
        <ele>203.6</ele>
        <time>2024-11-27T13:32:13.000Z</time>
      </trkpt>
      <trkpt lat="43.47537" lon="6.11886">
        <ele>204.8</ele>
        <time>2024-11-27T13:32:24.000Z</time>
      </trkpt>
      <trkpt lat="43.47532" lon="6.11874">
        <ele>205.9</ele>
        <time>2024-11-27T13:32:34.000Z</time>
      </trkpt>
      <trkpt lat="43.47528" lon="6.11862">
        <ele>206.8</ele>
        <time>2024-11-27T13:32:44.000Z</time>
      </trkpt>
      <trkpt lat="43.47521" lon="6.11852">
        <ele>207.4</ele>
        <time>2024-11-27T13:32:53.000Z</time>
      </trkpt>
      <trkpt lat="43.47519" lon="6.11853">
        <ele>207.6</ele>
        <time>2024-11-27T13:33:00.000Z</time>
      </trkpt>
      <trkpt lat="43.47519" lon="6.11853">
        <ele>207.7</ele>
        <time>2024-11-27T13:33:01.000Z</time>
      </trkpt>
      <trkpt lat="43.47519" lon="6.11854">
        <ele>207.8</ele>
        <time>2024-11-27T13:33:08.000Z</time>
      </trkpt>
      <trkpt lat="43.47519" lon="6.11854">
        <ele>207.8</ele>
        <time>2024-11-27T13:33:09.000Z</time>
      </trkpt>
      <trkpt lat="43.4752" lon="6.11853">
        <ele>207.8</ele>
        <time>2024-11-27T13:33:10.000Z</time>
      </trkpt>
      <trkpt lat="43.4752" lon="6.11853">
        <ele>207.8</ele>
        <time>2024-11-27T13:33:11.000Z</time>
      </trkpt>
      <trkpt lat="43.4752" lon="6.11853">
        <ele>207.8</ele>
        <time>2024-11-27T13:33:12.000Z</time>
      </trkpt>
      <trkpt lat="43.47521" lon="6.11853">
        <ele>206.7</ele>
        <time>2024-11-27T13:35:20.000Z</time>
      </trkpt>
      <trkpt lat="43.47521" lon="6.11853">
        <ele>206.7</ele>
        <time>2024-11-27T13:35:21.000Z</time>
      </trkpt>
      <trkpt lat="43.47521" lon="6.11853">
        <ele>206.7</ele>
        <time>2024-11-27T13:35:22.000Z</time>
      </trkpt>
      <trkpt lat="43.47521" lon="6.11853">
        <ele>206.6</ele>
        <time>2024-11-27T13:35:28.000Z</time>
      </trkpt>
      <trkpt lat="43.47521" lon="6.11853">
        <ele>206.6</ele>
        <time>2024-11-27T13:35:29.000Z</time>
      </trkpt>
      <trkpt lat="43.47522" lon="6.11852">
        <ele>206.4</ele>
        <time>2024-11-27T13:35:48.000Z</time>
      </trkpt>
      <trkpt lat="43.47522" lon="6.11852">
        <ele>206.4</ele>
        <time>2024-11-27T13:35:49.000Z</time>
      </trkpt>
      <trkpt lat="43.47522" lon="6.11852">
        <ele>206.3</ele>
        <time>2024-11-27T13:35:52.000Z</time>
      </trkpt>
      <trkpt lat="43.47522" lon="6.11851">
        <ele>206.3</ele>
        <time>2024-11-27T13:35:53.000Z</time>
      </trkpt>
      <trkpt lat="43.47522" lon="6.11851">
        <ele>206.3</ele>
        <time>2024-11-27T13:35:54.000Z</time>
      </trkpt>
      <trkpt lat="43.47522" lon="6.1185">
        <ele>206.2</ele>
        <time>2024-11-27T13:35:55.000Z</time>
      </trkpt>
      <trkpt lat="43.47522" lon="6.1185">
        <ele>206.2</ele>
        <time>2024-11-27T13:35:56.000Z</time>
      </trkpt>
      <trkpt lat="43.4752" lon="6.11837">
        <ele>205.6</ele>
        <time>2024-11-27T13:36:09.000Z</time>
      </trkpt>
      <trkpt lat="43.4752" lon="6.11824">
        <ele>204.8</ele>
        <time>2024-11-27T13:36:22.000Z</time>
      </trkpt>
      <trkpt lat="43.47519" lon="6.11811">
        <ele>204.4</ele>
        <time>2024-11-27T13:36:31.000Z</time>
      </trkpt>
      <trkpt lat="43.4752" lon="6.11798">
        <ele>204.3</ele>
        <time>2024-11-27T13:36:39.000Z</time>
      </trkpt>
      <trkpt lat="43.4752" lon="6.11784">
        <ele>204.2</ele>
        <time>2024-11-27T13:36:48.000Z</time>
      </trkpt>
      <trkpt lat="43.4752" lon="6.1177">
        <ele>204.2</ele>
        <time>2024-11-27T13:36:57.000Z</time>
      </trkpt>
      <trkpt lat="43.4752" lon="6.11758">
        <ele>204.2</ele>
        <time>2024-11-27T13:37:05.000Z</time>
      </trkpt>
      <trkpt lat="43.47521" lon="6.11744">
        <ele>204.1</ele>
        <time>2024-11-27T13:37:13.000Z</time>
      </trkpt>
      <trkpt lat="43.47522" lon="6.11731">
        <ele>204.1</ele>
        <time>2024-11-27T13:37:21.000Z</time>
      </trkpt>
      <trkpt lat="43.4752" lon="6.11717">
        <ele>204.2</ele>
        <time>2024-11-27T13:37:30.000Z</time>
      </trkpt>
      <trkpt lat="43.47519" lon="6.11705">
        <ele>204.4</ele>
        <time>2024-11-27T13:37:38.000Z</time>
      </trkpt>
      <trkpt lat="43.47525" lon="6.11696">
        <ele>204.7</ele>
        <time>2024-11-27T13:37:48.000Z</time>
      </trkpt>
      <trkpt lat="43.47535" lon="6.11695">
        <ele>205.4</ele>
        <time>2024-11-27T13:37:58.000Z</time>
      </trkpt>
      <trkpt lat="43.47544" lon="6.11692">
        <ele>206</ele>
        <time>2024-11-27T13:38:06.000Z</time>
      </trkpt>
      <trkpt lat="43.47553" lon="6.11689">
        <ele>206.8</ele>
        <time>2024-11-27T13:38:15.000Z</time>
      </trkpt>
      <trkpt lat="43.47562" lon="6.11686">
        <ele>207.6</ele>
        <time>2024-11-27T13:38:23.000Z</time>
      </trkpt>
      <trkpt lat="43.47571" lon="6.11683">
        <ele>208.3</ele>
        <time>2024-11-27T13:38:32.000Z</time>
      </trkpt>
      <trkpt lat="43.4758" lon="6.11681">
        <ele>209.2</ele>
        <time>2024-11-27T13:38:41.000Z</time>
      </trkpt>
      <trkpt lat="43.47589" lon="6.11678">
        <ele>209.9</ele>
        <time>2024-11-27T13:38:49.000Z</time>
      </trkpt>
      <trkpt lat="43.47599" lon="6.11674">
        <ele>210.7</ele>
        <time>2024-11-27T13:38:58.000Z</time>
      </trkpt>
      <trkpt lat="43.47608" lon="6.1167">
        <ele>211.9</ele>
        <time>2024-11-27T13:39:07.000Z</time>
      </trkpt>
      <trkpt lat="43.47617" lon="6.11665">
        <ele>212.8</ele>
        <time>2024-11-27T13:39:16.000Z</time>
      </trkpt>
      <trkpt lat="43.47625" lon="6.11658">
        <ele>213.8</ele>
        <time>2024-11-27T13:39:27.000Z</time>
      </trkpt>
      <trkpt lat="43.47623" lon="6.11645">
        <ele>214.7</ele>
        <time>2024-11-27T13:39:35.000Z</time>
      </trkpt>
      <trkpt lat="43.47625" lon="6.11633">
        <ele>215.9</ele>
        <time>2024-11-27T13:39:44.000Z</time>
      </trkpt>
      <trkpt lat="43.47623" lon="6.11621">
        <ele>217.2</ele>
        <time>2024-11-27T13:39:53.000Z</time>
      </trkpt>
      <trkpt lat="43.47625" lon="6.11607">
        <ele>218.4</ele>
        <time>2024-11-27T13:40:03.000Z</time>
      </trkpt>
      <trkpt lat="43.47629" lon="6.11596">
        <ele>219.4</ele>
        <time>2024-11-27T13:40:12.000Z</time>
      </trkpt>
      <trkpt lat="43.47637" lon="6.11589">
        <ele>219.9</ele>
        <time>2024-11-27T13:40:21.000Z</time>
      </trkpt>
      <trkpt lat="43.47644" lon="6.11581">
        <ele>220.3</ele>
        <time>2024-11-27T13:40:29.000Z</time>
      </trkpt>
      <trkpt lat="43.47648" lon="6.11569">
        <ele>220.8</ele>
        <time>2024-11-27T13:40:37.000Z</time>
      </trkpt>
      <trkpt lat="43.4765" lon="6.11557">
        <ele>221.5</ele>
        <time>2024-11-27T13:40:45.000Z</time>
      </trkpt>
      <trkpt lat="43.4765" lon="6.11544">
        <ele>222.1</ele>
        <time>2024-11-27T13:40:53.000Z</time>
      </trkpt>
      <trkpt lat="43.4765" lon="6.11531">
        <ele>222.6</ele>
        <time>2024-11-27T13:41:02.000Z</time>
      </trkpt>
      <trkpt lat="43.4765" lon="6.11519">
        <ele>223.2</ele>
        <time>2024-11-27T13:41:10.000Z</time>
      </trkpt>
      <trkpt lat="43.4765" lon="6.11506">
        <ele>224</ele>
        <time>2024-11-27T13:41:19.000Z</time>
      </trkpt>
      <trkpt lat="43.47654" lon="6.11495">
        <ele>225.3</ele>
        <time>2024-11-27T13:41:30.000Z</time>
      </trkpt>
      <trkpt lat="43.47663" lon="6.11488">
        <ele>226.4</ele>
        <time>2024-11-27T13:41:39.000Z</time>
      </trkpt>
      <trkpt lat="43.4767" lon="6.11479">
        <ele>227.3</ele>
        <time>2024-11-27T13:41:48.000Z</time>
      </trkpt>
      <trkpt lat="43.47678" lon="6.1147">
        <ele>227.8</ele>
        <time>2024-11-27T13:41:57.000Z</time>
      </trkpt>
      <trkpt lat="43.47686" lon="6.11462">
        <ele>228.6</ele>
        <time>2024-11-27T13:42:07.000Z</time>
      </trkpt>
      <trkpt lat="43.47694" lon="6.11454">
        <ele>229.5</ele>
        <time>2024-11-27T13:42:16.000Z</time>
      </trkpt>
      <trkpt lat="43.47702" lon="6.11448">
        <ele>230.5</ele>
        <time>2024-11-27T13:42:24.000Z</time>
      </trkpt>
      <trkpt lat="43.47711" lon="6.11444">
        <ele>232</ele>
        <time>2024-11-27T13:42:34.000Z</time>
      </trkpt>
      <trkpt lat="43.4772" lon="6.11444">
        <ele>233.5</ele>
        <time>2024-11-27T13:42:43.000Z</time>
      </trkpt>
      <trkpt lat="43.4773" lon="6.11444">
        <ele>234.9</ele>
        <time>2024-11-27T13:42:52.000Z</time>
      </trkpt>
      <trkpt lat="43.47739" lon="6.11447">
        <ele>236.2</ele>
        <time>2024-11-27T13:43:02.000Z</time>
      </trkpt>
      <trkpt lat="43.47749" lon="6.11446">
        <ele>237.3</ele>
        <time>2024-11-27T13:43:11.000Z</time>
      </trkpt>
      <trkpt lat="43.47755" lon="6.11443">
        <ele>238.7</ele>
        <time>2024-11-27T13:43:25.000Z</time>
      </trkpt>
      <trkpt lat="43.47755" lon="6.11443">
        <ele>238.8</ele>
        <time>2024-11-27T13:43:26.000Z</time>
      </trkpt>
      <trkpt lat="43.47755" lon="6.11443">
        <ele>238.8</ele>
        <time>2024-11-27T13:43:27.000Z</time>
      </trkpt>
      <trkpt lat="43.47755" lon="6.11443">
        <ele>238.8</ele>
        <time>2024-11-27T13:43:28.000Z</time>
      </trkpt>
      <trkpt lat="43.47755" lon="6.11443">
        <ele>238.9</ele>
        <time>2024-11-27T13:43:29.000Z</time>
      </trkpt>
      <trkpt lat="43.47755" lon="6.11443">
        <ele>238.9</ele>
        <time>2024-11-27T13:43:30.000Z</time>
      </trkpt>
      <trkpt lat="43.47755" lon="6.11443">
        <ele>238.9</ele>
        <time>2024-11-27T13:43:31.000Z</time>
      </trkpt>
      <trkpt lat="43.47755" lon="6.11443">
        <ele>238.9</ele>
        <time>2024-11-27T13:43:32.000Z</time>
      </trkpt>
      <trkpt lat="43.47755" lon="6.11443">
        <ele>239</ele>
        <time>2024-11-27T13:43:38.000Z</time>
      </trkpt>
      <trkpt lat="43.47755" lon="6.11443">
        <ele>239</ele>
        <time>2024-11-27T13:43:39.000Z</time>
      </trkpt>
      <trkpt lat="43.47755" lon="6.11443">
        <ele>239</ele>
        <time>2024-11-27T13:43:40.000Z</time>
      </trkpt>
      <trkpt lat="43.47755" lon="6.11443">
        <ele>239</ele>
        <time>2024-11-27T13:43:41.000Z</time>
      </trkpt>
      <trkpt lat="43.47755" lon="6.11443">
        <ele>239</ele>
        <time>2024-11-27T13:43:53.000Z</time>
      </trkpt>
      <trkpt lat="43.47755" lon="6.11443">
        <ele>239</ele>
        <time>2024-11-27T13:43:54.000Z</time>
      </trkpt>
      <trkpt lat="43.47755" lon="6.11443">
        <ele>239</ele>
        <time>2024-11-27T13:43:55.000Z</time>
      </trkpt>
      <trkpt lat="43.47755" lon="6.11443">
        <ele>239</ele>
        <time>2024-11-27T13:43:56.000Z</time>
      </trkpt>
      <trkpt lat="43.47755" lon="6.11443">
        <ele>239</ele>
        <time>2024-11-27T13:44:03.000Z</time>
      </trkpt>
      <trkpt lat="43.47755" lon="6.11443">
        <ele>239</ele>
        <time>2024-11-27T13:44:04.000Z</time>
      </trkpt>
      <trkpt lat="43.47755" lon="6.11442">
        <ele>238.9</ele>
        <time>2024-11-27T13:44:05.000Z</time>
      </trkpt>
      <trkpt lat="43.47754" lon="6.11442">
        <ele>238.9</ele>
        <time>2024-11-27T13:44:10.000Z</time>
      </trkpt>
      <trkpt lat="43.47754" lon="6.11442">
        <ele>238.9</ele>
        <time>2024-11-27T13:44:11.000Z</time>
      </trkpt>
      <trkpt lat="43.47754" lon="6.11442">
        <ele>238.7</ele>
        <time>2024-11-27T13:44:22.000Z</time>
      </trkpt>
      <trkpt lat="43.47754" lon="6.11442">
        <ele>238.7</ele>
        <time>2024-11-27T13:44:23.000Z</time>
      </trkpt>
      <trkpt lat="43.47754" lon="6.11442">
        <ele>238.7</ele>
        <time>2024-11-27T13:44:24.000Z</time>
      </trkpt>
      <trkpt lat="43.47754" lon="6.11442">
        <ele>238.7</ele>
        <time>2024-11-27T13:44:25.000Z</time>
      </trkpt>
      <trkpt lat="43.47754" lon="6.11442">
        <ele>238.6</ele>
        <time>2024-11-27T13:44:26.000Z</time>
      </trkpt>
      <trkpt lat="43.47754" lon="6.11442">
        <ele>238.6</ele>
        <time>2024-11-27T13:44:27.000Z</time>
      </trkpt>
      <trkpt lat="43.47754" lon="6.11442">
        <ele>238.6</ele>
        <time>2024-11-27T13:44:28.000Z</time>
      </trkpt>
      <trkpt lat="43.47754" lon="6.11442">
        <ele>238.6</ele>
        <time>2024-11-27T13:44:29.000Z</time>
      </trkpt>
      <trkpt lat="43.47754" lon="6.11442">
        <ele>238.6</ele>
        <time>2024-11-27T13:44:30.000Z</time>
      </trkpt>
      <trkpt lat="43.47754" lon="6.11442">
        <ele>238.5</ele>
        <time>2024-11-27T13:44:31.000Z</time>
      </trkpt>
      <trkpt lat="43.47754" lon="6.11442">
        <ele>238.5</ele>
        <time>2024-11-27T13:44:32.000Z</time>
      </trkpt>
      <trkpt lat="43.47754" lon="6.11442">
        <ele>238.5</ele>
        <time>2024-11-27T13:44:33.000Z</time>
      </trkpt>
      <trkpt lat="43.47754" lon="6.11442">
        <ele>238.5</ele>
        <time>2024-11-27T13:44:34.000Z</time>
      </trkpt>
      <trkpt lat="43.47754" lon="6.11442">
        <ele>238.4</ele>
        <time>2024-11-27T13:44:35.000Z</time>
      </trkpt>
      <trkpt lat="43.47754" lon="6.11442">
        <ele>238.4</ele>
        <time>2024-11-27T13:44:36.000Z</time>
      </trkpt>
      <trkpt lat="43.47754" lon="6.11442">
        <ele>238.4</ele>
        <time>2024-11-27T13:44:37.000Z</time>
      </trkpt>
      <trkpt lat="43.47754" lon="6.11442">
        <ele>238.2</ele>
        <time>2024-11-27T13:44:50.000Z</time>
      </trkpt>
      <trkpt lat="43.47754" lon="6.11442">
        <ele>238.2</ele>
        <time>2024-11-27T13:44:51.000Z</time>
      </trkpt>
      <trkpt lat="43.47754" lon="6.11442">
        <ele>238.2</ele>
        <time>2024-11-27T13:44:52.000Z</time>
      </trkpt>
      <trkpt lat="43.47754" lon="6.11442">
        <ele>238.1</ele>
        <time>2024-11-27T13:44:53.000Z</time>
      </trkpt>
      <trkpt lat="43.47754" lon="6.11442">
        <ele>238.1</ele>
        <time>2024-11-27T13:44:54.000Z</time>
      </trkpt>
      <trkpt lat="43.47754" lon="6.11442">
        <ele>238.1</ele>
        <time>2024-11-27T13:44:55.000Z</time>
      </trkpt>
      <trkpt lat="43.47754" lon="6.11442">
        <ele>237.9</ele>
        <time>2024-11-27T13:45:05.000Z</time>
      </trkpt>
      <trkpt lat="43.47754" lon="6.11442">
        <ele>237.8</ele>
        <time>2024-11-27T13:45:06.000Z</time>
      </trkpt>
      <trkpt lat="43.47754" lon="6.11441">
        <ele>237.8</ele>
        <time>2024-11-27T13:45:07.000Z</time>
      </trkpt>
      <trkpt lat="43.4775" lon="6.1143">
        <ele>237.9</ele>
        <time>2024-11-27T13:45:16.000Z</time>
      </trkpt>
      <trkpt lat="43.47746" lon="6.11417">
        <ele>238.3</ele>
        <time>2024-11-27T13:45:25.000Z</time>
      </trkpt>
      <trkpt lat="43.47743" lon="6.11405">
        <ele>239.1</ele>
        <time>2024-11-27T13:45:34.000Z</time>
      </trkpt>
      <trkpt lat="43.47738" lon="6.11394">
        <ele>240.2</ele>
        <time>2024-11-27T13:45:42.000Z</time>
      </trkpt>
      <trkpt lat="43.47735" lon="6.11381">
        <ele>241.1</ele>
        <time>2024-11-27T13:45:51.000Z</time>
      </trkpt>
      <trkpt lat="43.47743" lon="6.11373">
        <ele>242.5</ele>
        <time>2024-11-27T13:46:04.000Z</time>
      </trkpt>
      <trkpt lat="43.47752" lon="6.11376">
        <ele>243.7</ele>
        <time>2024-11-27T13:46:14.000Z</time>
      </trkpt>
      <trkpt lat="43.47761" lon="6.11376">
        <ele>244.5</ele>
        <time>2024-11-27T13:46:23.000Z</time>
      </trkpt>
      <trkpt lat="43.47768" lon="6.11366">
        <ele>246.3</ele>
        <time>2024-11-27T13:46:37.000Z</time>
      </trkpt>
      <trkpt lat="43.47774" lon="6.11356">
        <ele>247.8</ele>
        <time>2024-11-27T13:46:48.000Z</time>
      </trkpt>
      <trkpt lat="43.4778" lon="6.11346">
        <ele>248.9</ele>
        <time>2024-11-27T13:46:58.000Z</time>
      </trkpt>
      <trkpt lat="43.47787" lon="6.11337">
        <ele>250</ele>
        <time>2024-11-27T13:47:08.000Z</time>
      </trkpt>
      <trkpt lat="43.47794" lon="6.11328">
        <ele>251.4</ele>
        <time>2024-11-27T13:47:18.000Z</time>
      </trkpt>
      <trkpt lat="43.478" lon="6.11318">
        <ele>253.2</ele>
        <time>2024-11-27T13:47:33.000Z</time>
      </trkpt>
      <trkpt lat="43.47803" lon="6.11314">
        <ele>254.2</ele>
        <time>2024-11-27T13:47:43.000Z</time>
      </trkpt>
      <trkpt lat="43.47803" lon="6.11314">
        <ele>254.3</ele>
        <time>2024-11-27T13:47:44.000Z</time>
      </trkpt>
      <trkpt lat="43.47803" lon="6.11313">
        <ele>254.5</ele>
        <time>2024-11-27T13:47:51.000Z</time>
      </trkpt>
      <trkpt lat="43.47804" lon="6.11313">
        <ele>254.5</ele>
        <time>2024-11-27T13:47:52.000Z</time>
      </trkpt>
      <trkpt lat="43.47814" lon="6.11311">
        <ele>255.8</ele>
        <time>2024-11-27T13:48:06.000Z</time>
      </trkpt>
      <trkpt lat="43.47823" lon="6.11311">
        <ele>257.2</ele>
        <time>2024-11-27T13:48:17.000Z</time>
      </trkpt>
      <trkpt lat="43.47833" lon="6.1131">
        <ele>258.4</ele>
        <time>2024-11-27T13:48:26.000Z</time>
      </trkpt>
      <trkpt lat="43.47842" lon="6.11309">
        <ele>259.5</ele>
        <time>2024-11-27T13:48:35.000Z</time>
      </trkpt>
      <trkpt lat="43.47851" lon="6.11309">
        <ele>260.6</ele>
        <time>2024-11-27T13:48:44.000Z</time>
      </trkpt>
      <trkpt lat="43.4786" lon="6.1131">
        <ele>261.7</ele>
        <time>2024-11-27T13:48:55.000Z</time>
      </trkpt>
      <trkpt lat="43.4787" lon="6.11311">
        <ele>262.8</ele>
        <time>2024-11-27T13:49:05.000Z</time>
      </trkpt>
      <trkpt lat="43.4788" lon="6.1131">
        <ele>263.9</ele>
        <time>2024-11-27T13:49:16.000Z</time>
      </trkpt>
      <trkpt lat="43.47889" lon="6.11311">
        <ele>265</ele>
        <time>2024-11-27T13:49:27.000Z</time>
      </trkpt>
      <trkpt lat="43.47898" lon="6.11312">
        <ele>266.1</ele>
        <time>2024-11-27T13:49:36.000Z</time>
      </trkpt>
      <trkpt lat="43.47907" lon="6.11312">
        <ele>266.9</ele>
        <time>2024-11-27T13:49:45.000Z</time>
      </trkpt>
      <trkpt lat="43.47917" lon="6.11309">
        <ele>268.1</ele>
        <time>2024-11-27T13:49:58.000Z</time>
      </trkpt>
      <trkpt lat="43.47926" lon="6.11305">
        <ele>269.6</ele>
        <time>2024-11-27T13:50:09.000Z</time>
      </trkpt>
      <trkpt lat="43.47934" lon="6.11298">
        <ele>270.7</ele>
        <time>2024-11-27T13:50:16.000Z</time>
      </trkpt>
      <trkpt lat="43.47943" lon="6.11296">
        <ele>272.3</ele>
        <time>2024-11-27T13:50:28.000Z</time>
      </trkpt>
      <trkpt lat="43.4795" lon="6.11287">
        <ele>273.9</ele>
        <time>2024-11-27T13:50:40.000Z</time>
      </trkpt>
      <trkpt lat="43.47958" lon="6.11279">
        <ele>275.4</ele>
        <time>2024-11-27T13:50:50.000Z</time>
      </trkpt>
      <trkpt lat="43.47966" lon="6.11274">
        <ele>277</ele>
        <time>2024-11-27T13:51:01.000Z</time>
      </trkpt>
      <trkpt lat="43.47975" lon="6.11271">
        <ele>278.4</ele>
        <time>2024-11-27T13:51:13.000Z</time>
      </trkpt>
      <trkpt lat="43.47984" lon="6.11266">
        <ele>279.2</ele>
        <time>2024-11-27T13:51:24.000Z</time>
      </trkpt>
      <trkpt lat="43.47991" lon="6.11258">
        <ele>279.8</ele>
        <time>2024-11-27T13:51:32.000Z</time>
      </trkpt>
      <trkpt lat="43.47998" lon="6.1125">
        <ele>280.1</ele>
        <time>2024-11-27T13:51:40.000Z</time>
      </trkpt>
      <trkpt lat="43.48005" lon="6.11241">
        <ele>280.5</ele>
        <time>2024-11-27T13:51:48.000Z</time>
      </trkpt>
      <trkpt lat="43.48012" lon="6.11233">
        <ele>280.7</ele>
        <time>2024-11-27T13:51:57.000Z</time>
      </trkpt>
      <trkpt lat="43.48016" lon="6.11224">
        <ele>281</ele>
        <time>2024-11-27T13:52:13.000Z</time>
      </trkpt>
      <trkpt lat="43.48016" lon="6.11224">
        <ele>281</ele>
        <time>2024-11-27T13:52:14.000Z</time>
      </trkpt>
      <trkpt lat="43.48016" lon="6.11224">
        <ele>281</ele>
        <time>2024-11-27T13:52:23.000Z</time>
      </trkpt>
      <trkpt lat="43.48016" lon="6.11224">
        <ele>281</ele>
        <time>2024-11-27T13:52:24.000Z</time>
      </trkpt>
      <trkpt lat="43.48016" lon="6.11224">
        <ele>281.1</ele>
        <time>2024-11-27T13:52:25.000Z</time>
      </trkpt>
      <trkpt lat="43.48016" lon="6.11224">
        <ele>281</ele>
        <time>2024-11-27T13:52:26.000Z</time>
      </trkpt>
      <trkpt lat="43.48016" lon="6.11224">
        <ele>281</ele>
        <time>2024-11-27T13:52:27.000Z</time>
      </trkpt>
      <trkpt lat="43.48016" lon="6.11224">
        <ele>281</ele>
        <time>2024-11-27T13:52:30.000Z</time>
      </trkpt>
      <trkpt lat="43.48015" lon="6.11224">
        <ele>281.1</ele>
        <time>2024-11-27T13:52:31.000Z</time>
      </trkpt>
      <trkpt lat="43.48015" lon="6.11224">
        <ele>281</ele>
        <time>2024-11-27T13:52:32.000Z</time>
      </trkpt>
      <trkpt lat="43.48015" lon="6.11224">
        <ele>281</ele>
        <time>2024-11-27T13:52:33.000Z</time>
      </trkpt>
      <trkpt lat="43.48015" lon="6.11225">
        <ele>281</ele>
        <time>2024-11-27T13:52:34.000Z</time>
      </trkpt>
      <trkpt lat="43.48015" lon="6.11224">
        <ele>281</ele>
        <time>2024-11-27T13:52:35.000Z</time>
      </trkpt>
      <trkpt lat="43.48015" lon="6.11225">
        <ele>281</ele>
        <time>2024-11-27T13:52:36.000Z</time>
      </trkpt>
      <trkpt lat="43.48015" lon="6.11226">
        <ele>280.9</ele>
        <time>2024-11-27T13:52:40.000Z</time>
      </trkpt>
      <trkpt lat="43.48015" lon="6.11225">
        <ele>280.9</ele>
        <time>2024-11-27T13:52:41.000Z</time>
      </trkpt>
      <trkpt lat="43.48014" lon="6.11225">
        <ele>280.8</ele>
        <time>2024-11-27T13:52:42.000Z</time>
      </trkpt>
      <trkpt lat="43.48014" lon="6.11225">
        <ele>280.8</ele>
        <time>2024-11-27T13:52:43.000Z</time>
      </trkpt>
      <trkpt lat="43.48014" lon="6.11225">
        <ele>280.8</ele>
        <time>2024-11-27T13:52:44.000Z</time>
      </trkpt>
      <trkpt lat="43.48014" lon="6.11225">
        <ele>280.8</ele>
        <time>2024-11-27T13:52:45.000Z</time>
      </trkpt>
      <trkpt lat="43.48014" lon="6.11225">
        <ele>280.7</ele>
        <time>2024-11-27T13:52:46.000Z</time>
      </trkpt>
      <trkpt lat="43.48014" lon="6.11225">
        <ele>280.6</ele>
        <time>2024-11-27T13:52:50.000Z</time>
      </trkpt>
      <trkpt lat="43.48014" lon="6.11225">
        <ele>280.6</ele>
        <time>2024-11-27T13:52:51.000Z</time>
      </trkpt>
      <trkpt lat="43.48014" lon="6.11225">
        <ele>280.6</ele>
        <time>2024-11-27T13:52:52.000Z</time>
      </trkpt>
      <trkpt lat="43.48014" lon="6.11225">
        <ele>280.6</ele>
        <time>2024-11-27T13:52:53.000Z</time>
      </trkpt>
      <trkpt lat="43.48014" lon="6.11225">
        <ele>280.6</ele>
        <time>2024-11-27T13:52:54.000Z</time>
      </trkpt>
      <trkpt lat="43.48014" lon="6.11225">
        <ele>280.6</ele>
        <time>2024-11-27T13:52:55.000Z</time>
      </trkpt>
      <trkpt lat="43.48014" lon="6.11225">
        <ele>280.4</ele>
        <time>2024-11-27T13:53:05.000Z</time>
      </trkpt>
      <trkpt lat="43.48014" lon="6.11225">
        <ele>280.4</ele>
        <time>2024-11-27T13:53:06.000Z</time>
      </trkpt>
      <trkpt lat="43.48014" lon="6.11225">
        <ele>280.3</ele>
        <time>2024-11-27T13:53:07.000Z</time>
      </trkpt>
      <trkpt lat="43.48014" lon="6.11225">
        <ele>280.3</ele>
        <time>2024-11-27T13:53:08.000Z</time>
      </trkpt>
      <trkpt lat="43.48014" lon="6.11225">
        <ele>280.3</ele>
        <time>2024-11-27T13:53:09.000Z</time>
      </trkpt>
      <trkpt lat="43.48014" lon="6.11225">
        <ele>280.2</ele>
        <time>2024-11-27T13:53:15.000Z</time>
      </trkpt>
      <trkpt lat="43.48014" lon="6.11225">
        <ele>280.2</ele>
        <time>2024-11-27T13:53:16.000Z</time>
      </trkpt>
      <trkpt lat="43.48014" lon="6.11225">
        <ele>280.1</ele>
        <time>2024-11-27T13:53:17.000Z</time>
      </trkpt>
      <trkpt lat="43.48014" lon="6.11225">
        <ele>280.1</ele>
        <time>2024-11-27T13:53:18.000Z</time>
      </trkpt>
      <trkpt lat="43.48014" lon="6.11225">
        <ele>280.1</ele>
        <time>2024-11-27T13:53:19.000Z</time>
      </trkpt>
      <trkpt lat="43.48014" lon="6.11225">
        <ele>280</ele>
        <time>2024-11-27T13:53:22.000Z</time>
      </trkpt>
      <trkpt lat="43.48014" lon="6.11225">
        <ele>280</ele>
        <time>2024-11-27T13:53:23.000Z</time>
      </trkpt>
      <trkpt lat="43.48014" lon="6.11225">
        <ele>280</ele>
        <time>2024-11-27T13:53:24.000Z</time>
      </trkpt>
      <trkpt lat="43.48014" lon="6.11224">
        <ele>280</ele>
        <time>2024-11-27T13:53:25.000Z</time>
      </trkpt>
      <trkpt lat="43.48014" lon="6.11224">
        <ele>280</ele>
        <time>2024-11-27T13:53:26.000Z</time>
      </trkpt>
      <trkpt lat="43.48014" lon="6.11224">
        <ele>280</ele>
        <time>2024-11-27T13:53:30.000Z</time>
      </trkpt>
      <trkpt lat="43.48014" lon="6.11224">
        <ele>280</ele>
        <time>2024-11-27T13:53:31.000Z</time>
      </trkpt>
      <trkpt lat="43.48023" lon="6.1122">
        <ele>279.9</ele>
        <time>2024-11-27T13:53:39.000Z</time>
      </trkpt>
      <trkpt lat="43.48032" lon="6.11214">
        <ele>279.8</ele>
        <time>2024-11-27T13:53:48.000Z</time>
      </trkpt>
      <trkpt lat="43.4804" lon="6.11206">
        <ele>279.7</ele>
        <time>2024-11-27T13:53:57.000Z</time>
      </trkpt>
      <trkpt lat="43.48049" lon="6.11198">
        <ele>279.5</ele>
        <time>2024-11-27T13:54:04.000Z</time>
      </trkpt>
      <trkpt lat="43.48057" lon="6.11192">
        <ele>279.3</ele>
        <time>2024-11-27T13:54:11.000Z</time>
      </trkpt>
      <trkpt lat="43.48066" lon="6.11189">
        <ele>279.2</ele>
        <time>2024-11-27T13:54:18.000Z</time>
      </trkpt>
      <trkpt lat="43.48074" lon="6.11184">
        <ele>279.3</ele>
        <time>2024-11-27T13:54:28.000Z</time>
      </trkpt>
      <trkpt lat="43.48084" lon="6.11186">
        <ele>279.8</ele>
        <time>2024-11-27T13:54:38.000Z</time>
      </trkpt>
      <trkpt lat="43.48094" lon="6.11188">
        <ele>280.1</ele>
        <time>2024-11-27T13:54:49.000Z</time>
      </trkpt>
      <trkpt lat="43.48104" lon="6.11189">
        <ele>280.3</ele>
        <time>2024-11-27T13:54:57.000Z</time>
      </trkpt>
      <trkpt lat="43.48113" lon="6.11186">
        <ele>280.4</ele>
        <time>2024-11-27T13:55:05.000Z</time>
      </trkpt>
      <trkpt lat="43.48122" lon="6.11182">
        <ele>280.5</ele>
        <time>2024-11-27T13:55:14.000Z</time>
      </trkpt>
      <trkpt lat="43.48131" lon="6.11178">
        <ele>280.7</ele>
        <time>2024-11-27T13:55:25.000Z</time>
      </trkpt>
      <trkpt lat="43.4814" lon="6.11174">
        <ele>280.8</ele>
        <time>2024-11-27T13:55:34.000Z</time>
      </trkpt>
      <trkpt lat="43.4815" lon="6.1117">
        <ele>280.8</ele>
        <time>2024-11-27T13:55:43.000Z</time>
      </trkpt>
      <trkpt lat="43.4816" lon="6.11167">
        <ele>280.9</ele>
        <time>2024-11-27T13:55:52.000Z</time>
      </trkpt>
      <trkpt lat="43.48169" lon="6.11163">
        <ele>281</ele>
        <time>2024-11-27T13:56:00.000Z</time>
      </trkpt>
      <trkpt lat="43.48177" lon="6.11158">
        <ele>281.1</ele>
        <time>2024-11-27T13:56:08.000Z</time>
      </trkpt>
      <trkpt lat="43.48186" lon="6.11152">
        <ele>281.3</ele>
        <time>2024-11-27T13:56:16.000Z</time>
      </trkpt>
      <trkpt lat="43.48194" lon="6.11146">
        <ele>281.5</ele>
        <time>2024-11-27T13:56:25.000Z</time>
      </trkpt>
      <trkpt lat="43.48203" lon="6.11138">
        <ele>282.1</ele>
        <time>2024-11-27T13:56:35.000Z</time>
      </trkpt>
      <trkpt lat="43.48207" lon="6.11132">
        <ele>282.8</ele>
        <time>2024-11-27T13:56:53.000Z</time>
      </trkpt>
      <trkpt lat="43.48207" lon="6.11132">
        <ele>282.8</ele>
        <time>2024-11-27T13:56:54.000Z</time>
      </trkpt>
      <trkpt lat="43.48207" lon="6.11132">
        <ele>282.7</ele>
        <time>2024-11-27T13:57:00.000Z</time>
      </trkpt>
      <trkpt lat="43.48207" lon="6.11132">
        <ele>282.7</ele>
        <time>2024-11-27T13:57:01.000Z</time>
      </trkpt>
      <trkpt lat="43.48207" lon="6.11132">
        <ele>282.7</ele>
        <time>2024-11-27T13:57:02.000Z</time>
      </trkpt>
      <trkpt lat="43.48207" lon="6.11132">
        <ele>282.6</ele>
        <time>2024-11-27T13:57:03.000Z</time>
      </trkpt>
      <trkpt lat="43.48207" lon="6.11132">
        <ele>282.6</ele>
        <time>2024-11-27T13:57:04.000Z</time>
      </trkpt>
      <trkpt lat="43.48206" lon="6.11133">
        <ele>282.6</ele>
        <time>2024-11-27T13:57:07.000Z</time>
      </trkpt>
      <trkpt lat="43.48206" lon="6.11133">
        <ele>282.6</ele>
        <time>2024-11-27T13:57:08.000Z</time>
      </trkpt>
      <trkpt lat="43.48206" lon="6.11133">
        <ele>282.6</ele>
        <time>2024-11-27T13:57:09.000Z</time>
      </trkpt>
      <trkpt lat="43.48206" lon="6.11133">
        <ele>282.6</ele>
        <time>2024-11-27T13:57:12.000Z</time>
      </trkpt>
      <trkpt lat="43.48206" lon="6.11133">
        <ele>282.5</ele>
        <time>2024-11-27T13:57:13.000Z</time>
      </trkpt>
      <trkpt lat="43.48206" lon="6.11133">
        <ele>282.5</ele>
        <time>2024-11-27T13:57:14.000Z</time>
      </trkpt>
      <trkpt lat="43.48205" lon="6.11133">
        <ele>282.4</ele>
        <time>2024-11-27T13:57:22.000Z</time>
      </trkpt>
      <trkpt lat="43.48205" lon="6.11133">
        <ele>282.4</ele>
        <time>2024-11-27T13:57:23.000Z</time>
      </trkpt>
      <trkpt lat="43.48205" lon="6.11133">
        <ele>282.4</ele>
        <time>2024-11-27T13:57:24.000Z</time>
      </trkpt>
      <trkpt lat="43.48205" lon="6.11133">
        <ele>282.4</ele>
        <time>2024-11-27T13:57:25.000Z</time>
      </trkpt>
      <trkpt lat="43.48205" lon="6.11133">
        <ele>282.4</ele>
        <time>2024-11-27T13:57:26.000Z</time>
      </trkpt>
      <trkpt lat="43.48206" lon="6.11134">
        <ele>282.3</ele>
        <time>2024-11-27T13:57:35.000Z</time>
      </trkpt>
      <trkpt lat="43.48206" lon="6.11134">
        <ele>282.3</ele>
        <time>2024-11-27T13:57:36.000Z</time>
      </trkpt>
      <trkpt lat="43.48206" lon="6.11134">
        <ele>282.3</ele>
        <time>2024-11-27T13:57:37.000Z</time>
      </trkpt>
      <trkpt lat="43.48207" lon="6.11134">
        <ele>282.3</ele>
        <time>2024-11-27T13:57:38.000Z</time>
      </trkpt>
      <trkpt lat="43.48207" lon="6.11133">
        <ele>282.3</ele>
        <time>2024-11-27T13:57:39.000Z</time>
      </trkpt>
      <trkpt lat="43.48207" lon="6.11133">
        <ele>282.3</ele>
        <time>2024-11-27T13:57:40.000Z</time>
      </trkpt>
      <trkpt lat="43.48207" lon="6.11133">
        <ele>282.3</ele>
        <time>2024-11-27T13:57:41.000Z</time>
      </trkpt>
      <trkpt lat="43.48207" lon="6.11133">
        <ele>282.3</ele>
        <time>2024-11-27T13:57:42.000Z</time>
      </trkpt>
      <trkpt lat="43.48207" lon="6.11133">
        <ele>282.3</ele>
        <time>2024-11-27T13:57:45.000Z</time>
      </trkpt>
      <trkpt lat="43.48207" lon="6.11133">
        <ele>282.2</ele>
        <time>2024-11-27T13:57:46.000Z</time>
      </trkpt>
      <trkpt lat="43.48207" lon="6.11133">
        <ele>282.2</ele>
        <time>2024-11-27T13:57:47.000Z</time>
      </trkpt>
      <trkpt lat="43.48207" lon="6.11133">
        <ele>282.1</ele>
        <time>2024-11-27T13:57:55.000Z</time>
      </trkpt>
      <trkpt lat="43.48207" lon="6.11132">
        <ele>282.1</ele>
        <time>2024-11-27T13:57:56.000Z</time>
      </trkpt>
      <trkpt lat="43.48211" lon="6.11121">
        <ele>282.1</ele>
        <time>2024-11-27T13:58:05.000Z</time>
      </trkpt>
      <trkpt lat="43.48214" lon="6.11108">
        <ele>282.2</ele>
        <time>2024-11-27T13:58:14.000Z</time>
      </trkpt>
      <trkpt lat="43.48217" lon="6.11094">
        <ele>282.4</ele>
        <time>2024-11-27T13:58:23.000Z</time>
      </trkpt>
      <trkpt lat="43.48221" lon="6.11083">
        <ele>282.6</ele>
        <time>2024-11-27T13:58:30.000Z</time>
      </trkpt>
      <trkpt lat="43.48226" lon="6.11071">
        <ele>283</ele>
        <time>2024-11-27T13:58:39.000Z</time>
      </trkpt>
      <trkpt lat="43.48229" lon="6.11059">
        <ele>283.3</ele>
        <time>2024-11-27T13:58:48.000Z</time>
      </trkpt>
      <trkpt lat="43.48231" lon="6.11046">
        <ele>283.6</ele>
        <time>2024-11-27T13:58:56.000Z</time>
      </trkpt>
      <trkpt lat="43.48234" lon="6.11033">
        <ele>283.9</ele>
        <time>2024-11-27T13:59:05.000Z</time>
      </trkpt>
      <trkpt lat="43.48239" lon="6.11021">
        <ele>284.1</ele>
        <time>2024-11-27T13:59:12.000Z</time>
      </trkpt>
      <trkpt lat="43.48242" lon="6.11009">
        <ele>284.4</ele>
        <time>2024-11-27T13:59:20.000Z</time>
      </trkpt>
      <trkpt lat="43.48246" lon="6.10997">
        <ele>284.7</ele>
        <time>2024-11-27T13:59:29.000Z</time>
      </trkpt>
      <trkpt lat="43.4825" lon="6.10985">
        <ele>284.9</ele>
        <time>2024-11-27T13:59:37.000Z</time>
      </trkpt>
      <trkpt lat="43.48254" lon="6.10973">
        <ele>285.1</ele>
        <time>2024-11-27T13:59:47.000Z</time>
      </trkpt>
      <trkpt lat="43.48261" lon="6.10965">
        <ele>285.6</ele>
        <time>2024-11-27T14:00:00.000Z</time>
      </trkpt>
      <trkpt lat="43.4827" lon="6.10961">
        <ele>285.8</ele>
        <time>2024-11-27T14:00:09.000Z</time>
      </trkpt>
      <trkpt lat="43.4828" lon="6.10955">
        <ele>285.8</ele>
        <time>2024-11-27T14:00:17.000Z</time>
      </trkpt>
      <trkpt lat="43.48289" lon="6.10948">
        <ele>285.9</ele>
        <time>2024-11-27T14:00:24.000Z</time>
      </trkpt>
      <trkpt lat="43.48292" lon="6.10937">
        <ele>286.1</ele>
        <time>2024-11-27T14:00:35.000Z</time>
      </trkpt>
      <trkpt lat="43.48292" lon="6.10936">
        <ele>286.1</ele>
        <time>2024-11-27T14:00:36.000Z</time>
      </trkpt>
      <trkpt lat="43.48292" lon="6.10936">
        <ele>286.1</ele>
        <time>2024-11-27T14:00:37.000Z</time>
      </trkpt>
      <trkpt lat="43.48292" lon="6.10936">
        <ele>286.2</ele>
        <time>2024-11-27T14:00:38.000Z</time>
      </trkpt>
      <trkpt lat="43.48292" lon="6.10936">
        <ele>286.2</ele>
        <time>2024-11-27T14:00:39.000Z</time>
      </trkpt>
      <trkpt lat="43.48292" lon="6.10936">
        <ele>286.2</ele>
        <time>2024-11-27T14:00:40.000Z</time>
      </trkpt>
      <trkpt lat="43.48291" lon="6.10936">
        <ele>286.2</ele>
        <time>2024-11-27T14:00:46.000Z</time>
      </trkpt>
      <trkpt lat="43.48291" lon="6.10936">
        <ele>286.2</ele>
        <time>2024-11-27T14:00:47.000Z</time>
      </trkpt>
      <trkpt lat="43.4829" lon="6.10937">
        <ele>286.2</ele>
        <time>2024-11-27T14:00:48.000Z</time>
      </trkpt>
      <trkpt lat="43.4829" lon="6.10936">
        <ele>286.2</ele>
        <time>2024-11-27T14:00:49.000Z</time>
      </trkpt>
      <trkpt lat="43.48291" lon="6.10936">
        <ele>286.2</ele>
        <time>2024-11-27T14:00:50.000Z</time>
      </trkpt>
      <trkpt lat="43.48294" lon="6.10932">
        <ele>286.1</ele>
        <time>2024-11-27T14:00:58.000Z</time>
      </trkpt>
      <trkpt lat="43.48294" lon="6.10932">
        <ele>286.1</ele>
        <time>2024-11-27T14:00:59.000Z</time>
      </trkpt>
      <trkpt lat="43.48294" lon="6.10932">
        <ele>286.1</ele>
        <time>2024-11-27T14:01:00.000Z</time>
      </trkpt>
      <trkpt lat="43.48294" lon="6.10932">
        <ele>286.1</ele>
        <time>2024-11-27T14:01:01.000Z</time>
      </trkpt>
      <trkpt lat="43.48294" lon="6.10932">
        <ele>286.1</ele>
        <time>2024-11-27T14:01:02.000Z</time>
      </trkpt>
      <trkpt lat="43.48295" lon="6.10932">
        <ele>286</ele>
        <time>2024-11-27T14:01:07.000Z</time>
      </trkpt>
      <trkpt lat="43.48295" lon="6.10932">
        <ele>286</ele>
        <time>2024-11-27T14:01:08.000Z</time>
      </trkpt>
      <trkpt lat="43.48295" lon="6.10932">
        <ele>286</ele>
        <time>2024-11-27T14:01:09.000Z</time>
      </trkpt>
      <trkpt lat="43.48295" lon="6.10933">
        <ele>286</ele>
        <time>2024-11-27T14:01:15.000Z</time>
      </trkpt>
      <trkpt lat="43.48295" lon="6.10933">
        <ele>286</ele>
        <time>2024-11-27T14:01:16.000Z</time>
      </trkpt>
      <trkpt lat="43.48295" lon="6.10933">
        <ele>286</ele>
        <time>2024-11-27T14:01:17.000Z</time>
      </trkpt>
      <trkpt lat="43.48295" lon="6.10933">
        <ele>285.9</ele>
        <time>2024-11-27T14:01:18.000Z</time>
      </trkpt>
      <trkpt lat="43.48294" lon="6.10932">
        <ele>285.9</ele>
        <time>2024-11-27T14:01:19.000Z</time>
      </trkpt>
      <trkpt lat="43.48294" lon="6.10933">
        <ele>285.9</ele>
        <time>2024-11-27T14:01:20.000Z</time>
      </trkpt>
      <trkpt lat="43.48294" lon="6.10933">
        <ele>285.9</ele>
        <time>2024-11-27T14:01:21.000Z</time>
      </trkpt>
      <trkpt lat="43.48294" lon="6.10932">
        <ele>285.9</ele>
        <time>2024-11-27T14:01:25.000Z</time>
      </trkpt>
      <trkpt lat="43.48294" lon="6.10932">
        <ele>285.9</ele>
        <time>2024-11-27T14:01:26.000Z</time>
      </trkpt>
      <trkpt lat="43.48295" lon="6.10932">
        <ele>285.8</ele>
        <time>2024-11-27T14:01:30.000Z</time>
      </trkpt>
      <trkpt lat="43.48296" lon="6.10932">
        <ele>285.8</ele>
        <time>2024-11-27T14:01:31.000Z</time>
      </trkpt>
      <trkpt lat="43.48296" lon="6.10932">
        <ele>285.8</ele>
        <time>2024-11-27T14:01:32.000Z</time>
      </trkpt>
      <trkpt lat="43.48305" lon="6.10925">
        <ele>285.8</ele>
        <time>2024-11-27T14:01:41.000Z</time>
      </trkpt>
      <trkpt lat="43.48314" lon="6.10925">
        <ele>285.7</ele>
        <time>2024-11-27T14:01:49.000Z</time>
      </trkpt>
      <trkpt lat="43.48324" lon="6.10923">
        <ele>285.7</ele>
        <time>2024-11-27T14:01:57.000Z</time>
      </trkpt>
      <trkpt lat="43.48332" lon="6.10916">
        <ele>285.7</ele>
        <time>2024-11-27T14:02:06.000Z</time>
      </trkpt>
      <trkpt lat="43.4834" lon="6.10921">
        <ele>285.7</ele>
        <time>2024-11-27T14:02:17.000Z</time>
      </trkpt>
      <trkpt lat="43.48341" lon="6.10922">
        <ele>285.7</ele>
        <time>2024-11-27T14:02:21.000Z</time>
      </trkpt>
      <trkpt lat="43.48341" lon="6.10922">
        <ele>285.7</ele>
        <time>2024-11-27T14:02:22.000Z</time>
      </trkpt>
      <trkpt lat="43.48342" lon="6.10923">
        <ele>285.7</ele>
        <time>2024-11-27T14:02:23.000Z</time>
      </trkpt>
      <trkpt lat="43.48343" lon="6.10924">
        <ele>285.7</ele>
        <time>2024-11-27T14:02:24.000Z</time>
      </trkpt>
      <trkpt lat="43.48345" lon="6.10927">
        <ele>285.6</ele>
        <time>2024-11-27T14:02:32.000Z</time>
      </trkpt>
      <trkpt lat="43.48345" lon="6.10927">
        <ele>285.6</ele>
        <time>2024-11-27T14:02:33.000Z</time>
      </trkpt>
      <trkpt lat="43.48345" lon="6.10928">
        <ele>285.6</ele>
        <time>2024-11-27T14:02:34.000Z</time>
      </trkpt>
      <trkpt lat="43.48345" lon="6.10928">
        <ele>285.6</ele>
        <time>2024-11-27T14:02:35.000Z</time>
      </trkpt>
      <trkpt lat="43.48345" lon="6.10929">
        <ele>285.6</ele>
        <time>2024-11-27T14:02:36.000Z</time>
      </trkpt>
      <trkpt lat="43.48343" lon="6.10929">
        <ele>285.6</ele>
        <time>2024-11-27T14:02:40.000Z</time>
      </trkpt>
      <trkpt lat="43.48343" lon="6.10929">
        <ele>285.6</ele>
        <time>2024-11-27T14:02:41.000Z</time>
      </trkpt>
      <trkpt lat="43.48344" lon="6.1093">
        <ele>285.6</ele>
        <time>2024-11-27T14:02:42.000Z</time>
      </trkpt>
      <trkpt lat="43.48344" lon="6.10931">
        <ele>285.6</ele>
        <time>2024-11-27T14:02:43.000Z</time>
      </trkpt>
      <trkpt lat="43.48344" lon="6.10931">
        <ele>285.6</ele>
        <time>2024-11-27T14:02:44.000Z</time>
      </trkpt>
      <trkpt lat="43.48346" lon="6.10938">
        <ele>285.6</ele>
        <time>2024-11-27T14:03:18.000Z</time>
      </trkpt>
      <trkpt lat="43.48346" lon="6.10938">
        <ele>285.6</ele>
        <time>2024-11-27T14:03:19.000Z</time>
      </trkpt>
      <trkpt lat="43.48348" lon="6.10938">
        <ele>285.4</ele>
        <time>2024-11-27T14:03:57.000Z</time>
      </trkpt>
      <trkpt lat="43.48348" lon="6.10939">
        <ele>285.4</ele>
        <time>2024-11-27T14:03:58.000Z</time>
      </trkpt>
      <trkpt lat="43.48348" lon="6.1094">
        <ele>285.4</ele>
        <time>2024-11-27T14:03:59.000Z</time>
      </trkpt>
      <trkpt lat="43.48351" lon="6.10952">
        <ele>285.4</ele>
        <time>2024-11-27T14:04:12.000Z</time>
      </trkpt>
      <trkpt lat="43.48354" lon="6.10965">
        <ele>285.6</ele>
        <time>2024-11-27T14:04:21.000Z</time>
      </trkpt>
      <trkpt lat="43.48358" lon="6.10978">
        <ele>286.1</ele>
        <time>2024-11-27T14:04:30.000Z</time>
      </trkpt>
      <trkpt lat="43.48361" lon="6.10991">
        <ele>286.6</ele>
        <time>2024-11-27T14:04:38.000Z</time>
      </trkpt>
      <trkpt lat="43.48364" lon="6.11004">
        <ele>287.1</ele>
        <time>2024-11-27T14:04:47.000Z</time>
      </trkpt>
      <trkpt lat="43.48366" lon="6.11016">
        <ele>287.4</ele>
        <time>2024-11-27T14:04:55.000Z</time>
      </trkpt>
      <trkpt lat="43.4837" lon="6.11029">
        <ele>287.6</ele>
        <time>2024-11-27T14:05:04.000Z</time>
      </trkpt>
      <trkpt lat="43.48373" lon="6.11041">
        <ele>287.8</ele>
        <time>2024-11-27T14:05:12.000Z</time>
      </trkpt>
      <trkpt lat="43.48376" lon="6.11054">
        <ele>288.2</ele>
        <time>2024-11-27T14:05:23.000Z</time>
      </trkpt>
      <trkpt lat="43.48379" lon="6.11067">
        <ele>288.8</ele>
        <time>2024-11-27T14:05:33.000Z</time>
      </trkpt>
      <trkpt lat="43.48382" lon="6.1108">
        <ele>289.3</ele>
        <time>2024-11-27T14:05:43.000Z</time>
      </trkpt>
      <trkpt lat="43.48386" lon="6.11092">
        <ele>289.9</ele>
        <time>2024-11-27T14:05:52.000Z</time>
      </trkpt>
      <trkpt lat="43.48388" lon="6.11104">
        <ele>290.6</ele>
        <time>2024-11-27T14:06:01.000Z</time>
      </trkpt>
      <trkpt lat="43.48389" lon="6.11118">
        <ele>291.4</ele>
        <time>2024-11-27T14:06:10.000Z</time>
      </trkpt>
      <trkpt lat="43.4839" lon="6.11131">
        <ele>292.1</ele>
        <time>2024-11-27T14:06:20.000Z</time>
      </trkpt>
      <trkpt lat="43.48391" lon="6.11145">
        <ele>292.7</ele>
        <time>2024-11-27T14:06:30.000Z</time>
      </trkpt>
      <trkpt lat="43.48391" lon="6.11158">
        <ele>292.9</ele>
        <time>2024-11-27T14:06:40.000Z</time>
      </trkpt>
      <trkpt lat="43.48393" lon="6.11172">
        <ele>293.2</ele>
        <time>2024-11-27T14:06:48.000Z</time>
      </trkpt>
      <trkpt lat="43.48395" lon="6.11184">
        <ele>293.3</ele>
        <time>2024-11-27T14:06:56.000Z</time>
      </trkpt>
      <trkpt lat="43.48395" lon="6.11199">
        <ele>293.5</ele>
        <time>2024-11-27T14:07:04.000Z</time>
      </trkpt>
      <trkpt lat="43.48396" lon="6.11207">
        <ele>293.5</ele>
        <time>2024-11-27T14:07:15.000Z</time>
      </trkpt>
      <trkpt lat="43.48396" lon="6.11207">
        <ele>293.4</ele>
        <time>2024-11-27T14:07:16.000Z</time>
      </trkpt>
      <trkpt lat="43.48396" lon="6.11207">
        <ele>293.4</ele>
        <time>2024-11-27T14:07:27.000Z</time>
      </trkpt>
      <trkpt lat="43.48396" lon="6.11208">
        <ele>293.4</ele>
        <time>2024-11-27T14:07:28.000Z</time>
      </trkpt>
      <trkpt lat="43.48396" lon="6.11209">
        <ele>293.4</ele>
        <time>2024-11-27T14:07:29.000Z</time>
      </trkpt>
      <trkpt lat="43.48397" lon="6.11221">
        <ele>293.3</ele>
        <time>2024-11-27T14:07:40.000Z</time>
      </trkpt>
      <trkpt lat="43.48397" lon="6.11234">
        <ele>293.1</ele>
        <time>2024-11-27T14:07:49.000Z</time>
      </trkpt>
      <trkpt lat="43.48398" lon="6.11248">
        <ele>292.8</ele>
        <time>2024-11-27T14:07:58.000Z</time>
      </trkpt>
      <trkpt lat="43.48398" lon="6.11261">
        <ele>292.3</ele>
        <time>2024-11-27T14:08:07.000Z</time>
      </trkpt>
      <trkpt lat="43.484" lon="6.11274">
        <ele>291.7</ele>
        <time>2024-11-27T14:08:15.000Z</time>
      </trkpt>
      <trkpt lat="43.48402" lon="6.11287">
        <ele>291.1</ele>
        <time>2024-11-27T14:08:24.000Z</time>
      </trkpt>
      <trkpt lat="43.48403" lon="6.11299">
        <ele>290.6</ele>
        <time>2024-11-27T14:08:32.000Z</time>
      </trkpt>
      <trkpt lat="43.48404" lon="6.11312">
        <ele>290.2</ele>
        <time>2024-11-27T14:08:40.000Z</time>
      </trkpt>
      <trkpt lat="43.48404" lon="6.11324">
        <ele>290.1</ele>
        <time>2024-11-27T14:08:48.000Z</time>
      </trkpt>
      <trkpt lat="43.48407" lon="6.11337">
        <ele>289.9</ele>
        <time>2024-11-27T14:08:57.000Z</time>
      </trkpt>
      <trkpt lat="43.48408" lon="6.11349">
        <ele>289.8</ele>
        <time>2024-11-27T14:09:05.000Z</time>
      </trkpt>
      <trkpt lat="43.4841" lon="6.11362">
        <ele>289.6</ele>
        <time>2024-11-27T14:09:14.000Z</time>
      </trkpt>
      <trkpt lat="43.48411" lon="6.11374">
        <ele>289.4</ele>
        <time>2024-11-27T14:09:22.000Z</time>
      </trkpt>
      <trkpt lat="43.48415" lon="6.11386">
        <ele>289.1</ele>
        <time>2024-11-27T14:09:31.000Z</time>
      </trkpt>
      <trkpt lat="43.48419" lon="6.11398">
        <ele>289.2</ele>
        <time>2024-11-27T14:09:39.000Z</time>
      </trkpt>
      <trkpt lat="43.48422" lon="6.1141">
        <ele>289.2</ele>
        <time>2024-11-27T14:09:47.000Z</time>
      </trkpt>
      <trkpt lat="43.48425" lon="6.11422">
        <ele>289.3</ele>
        <time>2024-11-27T14:09:55.000Z</time>
      </trkpt>
      <trkpt lat="43.48431" lon="6.11433">
        <ele>289.3</ele>
        <time>2024-11-27T14:10:04.000Z</time>
      </trkpt>
      <trkpt lat="43.48434" lon="6.1144">
        <ele>289.2</ele>
        <time>2024-11-27T14:10:18.000Z</time>
      </trkpt>
      <trkpt lat="43.48434" lon="6.1144">
        <ele>289.1</ele>
        <time>2024-11-27T14:10:19.000Z</time>
      </trkpt>
      <trkpt lat="43.48436" lon="6.11439">
        <ele>289</ele>
        <time>2024-11-27T14:10:28.000Z</time>
      </trkpt>
      <trkpt lat="43.48436" lon="6.11439">
        <ele>289</ele>
        <time>2024-11-27T14:10:29.000Z</time>
      </trkpt>
      <trkpt lat="43.48436" lon="6.11438">
        <ele>289</ele>
        <time>2024-11-27T14:10:30.000Z</time>
      </trkpt>
      <trkpt lat="43.48436" lon="6.11438">
        <ele>289</ele>
        <time>2024-11-27T14:10:31.000Z</time>
      </trkpt>
      <trkpt lat="43.48435" lon="6.11438">
        <ele>289</ele>
        <time>2024-11-27T14:10:32.000Z</time>
      </trkpt>
      <trkpt lat="43.48435" lon="6.11438">
        <ele>289</ele>
        <time>2024-11-27T14:10:33.000Z</time>
      </trkpt>
      <trkpt lat="43.48435" lon="6.11438">
        <ele>289</ele>
        <time>2024-11-27T14:10:34.000Z</time>
      </trkpt>
      <trkpt lat="43.48435" lon="6.11438">
        <ele>288.9</ele>
        <time>2024-11-27T14:10:38.000Z</time>
      </trkpt>
      <trkpt lat="43.48435" lon="6.11438">
        <ele>288.9</ele>
        <time>2024-11-27T14:10:39.000Z</time>
      </trkpt>
      <trkpt lat="43.48435" lon="6.11438">
        <ele>288.9</ele>
        <time>2024-11-27T14:10:40.000Z</time>
      </trkpt>
      <trkpt lat="43.48436" lon="6.11437">
        <ele>288.9</ele>
        <time>2024-11-27T14:10:43.000Z</time>
      </trkpt>
      <trkpt lat="43.48436" lon="6.11438">
        <ele>288.9</ele>
        <time>2024-11-27T14:10:44.000Z</time>
      </trkpt>
      <trkpt lat="43.48435" lon="6.1144">
        <ele>288.8</ele>
        <time>2024-11-27T14:10:57.000Z</time>
      </trkpt>
      <trkpt lat="43.48435" lon="6.1144">
        <ele>288.8</ele>
        <time>2024-11-27T14:10:58.000Z</time>
      </trkpt>
      <trkpt lat="43.48435" lon="6.1144">
        <ele>288.8</ele>
        <time>2024-11-27T14:10:59.000Z</time>
      </trkpt>
      <trkpt lat="43.48435" lon="6.1144">
        <ele>288.8</ele>
        <time>2024-11-27T14:11:05.000Z</time>
      </trkpt>
      <trkpt lat="43.48435" lon="6.1144">
        <ele>288.8</ele>
        <time>2024-11-27T14:11:06.000Z</time>
      </trkpt>
      <trkpt lat="43.48435" lon="6.1144">
        <ele>288.8</ele>
        <time>2024-11-27T14:11:07.000Z</time>
      </trkpt>
      <trkpt lat="43.48435" lon="6.1144">
        <ele>288.8</ele>
        <time>2024-11-27T14:11:08.000Z</time>
      </trkpt>
      <trkpt lat="43.48435" lon="6.1144">
        <ele>288.8</ele>
        <time>2024-11-27T14:11:09.000Z</time>
      </trkpt>
      <trkpt lat="43.48435" lon="6.1144">
        <ele>288.7</ele>
        <time>2024-11-27T14:11:12.000Z</time>
      </trkpt>
      <trkpt lat="43.48435" lon="6.1144">
        <ele>288.7</ele>
        <time>2024-11-27T14:11:13.000Z</time>
      </trkpt>
      <trkpt lat="43.48435" lon="6.1144">
        <ele>288.7</ele>
        <time>2024-11-27T14:11:14.000Z</time>
      </trkpt>
      <trkpt lat="43.48435" lon="6.1144">
        <ele>288.7</ele>
        <time>2024-11-27T14:11:15.000Z</time>
      </trkpt>
      <trkpt lat="43.48435" lon="6.1144">
        <ele>288.7</ele>
        <time>2024-11-27T14:11:16.000Z</time>
      </trkpt>
      <trkpt lat="43.48435" lon="6.1144">
        <ele>288.7</ele>
        <time>2024-11-27T14:11:27.000Z</time>
      </trkpt>
      <trkpt lat="43.48435" lon="6.1144">
        <ele>288.7</ele>
        <time>2024-11-27T14:11:28.000Z</time>
      </trkpt>
      <trkpt lat="43.48435" lon="6.1144">
        <ele>288.7</ele>
        <time>2024-11-27T14:11:29.000Z</time>
      </trkpt>
      <trkpt lat="43.48435" lon="6.1144">
        <ele>288.6</ele>
        <time>2024-11-27T14:11:33.000Z</time>
      </trkpt>
      <trkpt lat="43.48435" lon="6.1144">
        <ele>288.6</ele>
        <time>2024-11-27T14:11:34.000Z</time>
      </trkpt>
      <trkpt lat="43.48435" lon="6.1144">
        <ele>288.6</ele>
        <time>2024-11-27T14:11:35.000Z</time>
      </trkpt>
      <trkpt lat="43.48435" lon="6.1144">
        <ele>288.6</ele>
        <time>2024-11-27T14:11:57.000Z</time>
      </trkpt>
      <trkpt lat="43.48435" lon="6.1144">
        <ele>288.6</ele>
        <time>2024-11-27T14:11:58.000Z</time>
      </trkpt>
      <trkpt lat="43.48435" lon="6.1144">
        <ele>288.6</ele>
        <time>2024-11-27T14:11:59.000Z</time>
      </trkpt>
      <trkpt lat="43.48435" lon="6.1144">
        <ele>288.6</ele>
        <time>2024-11-27T14:12:00.000Z</time>
      </trkpt>
      <trkpt lat="43.48435" lon="6.1144">
        <ele>288.6</ele>
        <time>2024-11-27T14:12:01.000Z</time>
      </trkpt>
      <trkpt lat="43.48434" lon="6.11439">
        <ele>288.6</ele>
        <time>2024-11-27T14:12:05.000Z</time>
      </trkpt>
      <trkpt lat="43.48434" lon="6.11438">
        <ele>288.6</ele>
        <time>2024-11-27T14:12:06.000Z</time>
      </trkpt>
      <trkpt lat="43.48433" lon="6.11437">
        <ele>288.6</ele>
        <time>2024-11-27T14:12:10.000Z</time>
      </trkpt>
      <trkpt lat="43.48433" lon="6.11437">
        <ele>288.6</ele>
        <time>2024-11-27T14:12:11.000Z</time>
      </trkpt>
      <trkpt lat="43.48433" lon="6.11437">
        <ele>288.5</ele>
        <time>2024-11-27T14:12:35.000Z</time>
      </trkpt>
      <trkpt lat="43.48433" lon="6.11437">
        <ele>288.5</ele>
        <time>2024-11-27T14:12:36.000Z</time>
      </trkpt>
      <trkpt lat="43.48433" lon="6.11437">
        <ele>288.5</ele>
        <time>2024-11-27T14:12:37.000Z</time>
      </trkpt>
      <trkpt lat="43.48433" lon="6.11437">
        <ele>288.5</ele>
        <time>2024-11-27T14:12:38.000Z</time>
      </trkpt>
      <trkpt lat="43.48433" lon="6.11437">
        <ele>288.5</ele>
        <time>2024-11-27T14:12:39.000Z</time>
      </trkpt>
      <trkpt lat="43.48433" lon="6.11437">
        <ele>288.5</ele>
        <time>2024-11-27T14:12:40.000Z</time>
      </trkpt>
      <trkpt lat="43.48433" lon="6.11437">
        <ele>288.5</ele>
        <time>2024-11-27T14:12:43.000Z</time>
      </trkpt>
      <trkpt lat="43.48433" lon="6.11437">
        <ele>288.5</ele>
        <time>2024-11-27T14:12:44.000Z</time>
      </trkpt>
      <trkpt lat="43.48433" lon="6.11437">
        <ele>288.5</ele>
        <time>2024-11-27T14:12:45.000Z</time>
      </trkpt>
      <trkpt lat="43.48433" lon="6.11437">
        <ele>288.5</ele>
        <time>2024-11-27T14:12:46.000Z</time>
      </trkpt>
      <trkpt lat="43.48434" lon="6.11437">
        <ele>288.4</ele>
        <time>2024-11-27T14:12:53.000Z</time>
      </trkpt>
      <trkpt lat="43.48434" lon="6.11437">
        <ele>288.4</ele>
        <time>2024-11-27T14:12:54.000Z</time>
      </trkpt>
      <trkpt lat="43.48434" lon="6.11437">
        <ele>288.4</ele>
        <time>2024-11-27T14:12:55.000Z</time>
      </trkpt>
      <trkpt lat="43.48434" lon="6.11437">
        <ele>288.4</ele>
        <time>2024-11-27T14:12:56.000Z</time>
      </trkpt>
      <trkpt lat="43.48434" lon="6.11437">
        <ele>288.4</ele>
        <time>2024-11-27T14:12:57.000Z</time>
      </trkpt>
      <trkpt lat="43.48434" lon="6.11436">
        <ele>288.4</ele>
        <time>2024-11-27T14:13:06.000Z</time>
      </trkpt>
      <trkpt lat="43.48434" lon="6.11436">
        <ele>288.4</ele>
        <time>2024-11-27T14:13:07.000Z</time>
      </trkpt>
      <trkpt lat="43.48434" lon="6.11436">
        <ele>288.4</ele>
        <time>2024-11-27T14:13:08.000Z</time>
      </trkpt>
      <trkpt lat="43.48434" lon="6.11436">
        <ele>288.4</ele>
        <time>2024-11-27T14:13:09.000Z</time>
      </trkpt>
      <trkpt lat="43.48434" lon="6.11436">
        <ele>288.4</ele>
        <time>2024-11-27T14:13:16.000Z</time>
      </trkpt>
      <trkpt lat="43.48434" lon="6.11436">
        <ele>288.4</ele>
        <time>2024-11-27T14:13:17.000Z</time>
      </trkpt>
      <trkpt lat="43.48434" lon="6.11436">
        <ele>288.4</ele>
        <time>2024-11-27T14:13:18.000Z</time>
      </trkpt>
      <trkpt lat="43.48434" lon="6.11436">
        <ele>288.4</ele>
        <time>2024-11-27T14:13:19.000Z</time>
      </trkpt>
      <trkpt lat="43.48434" lon="6.11437">
        <ele>288.4</ele>
        <time>2024-11-27T14:13:27.000Z</time>
      </trkpt>
      <trkpt lat="43.48434" lon="6.11437">
        <ele>288.4</ele>
        <time>2024-11-27T14:13:28.000Z</time>
      </trkpt>
      <trkpt lat="43.48434" lon="6.11436">
        <ele>288.4</ele>
        <time>2024-11-27T14:13:29.000Z</time>
      </trkpt>
      <trkpt lat="43.48434" lon="6.11437">
        <ele>288.4</ele>
        <time>2024-11-27T14:13:30.000Z</time>
      </trkpt>
      <trkpt lat="43.48434" lon="6.11437">
        <ele>288.4</ele>
        <time>2024-11-27T14:13:31.000Z</time>
      </trkpt>
      <trkpt lat="43.48434" lon="6.11438">
        <ele>288.4</ele>
        <time>2024-11-27T14:13:32.000Z</time>
      </trkpt>
      <trkpt lat="43.48434" lon="6.11438">
        <ele>288.4</ele>
        <time>2024-11-27T14:13:33.000Z</time>
      </trkpt>
      <trkpt lat="43.48434" lon="6.11438">
        <ele>288.4</ele>
        <time>2024-11-27T14:13:34.000Z</time>
      </trkpt>
      <trkpt lat="43.48434" lon="6.11438">
        <ele>288.4</ele>
        <time>2024-11-27T14:13:35.000Z</time>
      </trkpt>
      <trkpt lat="43.48434" lon="6.11438">
        <ele>288.4</ele>
        <time>2024-11-27T14:13:36.000Z</time>
      </trkpt>
      <trkpt lat="43.48434" lon="6.11439">
        <ele>288.4</ele>
        <time>2024-11-27T14:13:50.000Z</time>
      </trkpt>
      <trkpt lat="43.48434" lon="6.11439">
        <ele>288.4</ele>
        <time>2024-11-27T14:13:51.000Z</time>
      </trkpt>
      <trkpt lat="43.48434" lon="6.11439">
        <ele>288.4</ele>
        <time>2024-11-27T14:13:52.000Z</time>
      </trkpt>
      <trkpt lat="43.48434" lon="6.11439">
        <ele>288.3</ele>
        <time>2024-11-27T14:13:53.000Z</time>
      </trkpt>
      <trkpt lat="43.48434" lon="6.11439">
        <ele>288.3</ele>
        <time>2024-11-27T14:13:54.000Z</time>
      </trkpt>
      <trkpt lat="43.48434" lon="6.11439">
        <ele>288.3</ele>
        <time>2024-11-27T14:14:16.000Z</time>
      </trkpt>
      <trkpt lat="43.48434" lon="6.11439">
        <ele>288.3</ele>
        <time>2024-11-27T14:14:17.000Z</time>
      </trkpt>
      <trkpt lat="43.48434" lon="6.11439">
        <ele>288.3</ele>
        <time>2024-11-27T14:14:18.000Z</time>
      </trkpt>
      <trkpt lat="43.48434" lon="6.11439">
        <ele>288.3</ele>
        <time>2024-11-27T14:14:19.000Z</time>
      </trkpt>
      <trkpt lat="43.48435" lon="6.11438">
        <ele>288.3</ele>
        <time>2024-11-27T14:14:20.000Z</time>
      </trkpt>
      <trkpt lat="43.48435" lon="6.11437">
        <ele>288.3</ele>
        <time>2024-11-27T14:14:21.000Z</time>
      </trkpt>
      <trkpt lat="43.48435" lon="6.11437">
        <ele>288.3</ele>
        <time>2024-11-27T14:14:22.000Z</time>
      </trkpt>
      <trkpt lat="43.48439" lon="6.11445">
        <ele>288.3</ele>
        <time>2024-11-27T14:14:38.000Z</time>
      </trkpt>
      <trkpt lat="43.48438" lon="6.11445">
        <ele>288.3</ele>
        <time>2024-11-27T14:14:39.000Z</time>
      </trkpt>
      <trkpt lat="43.48438" lon="6.11445">
        <ele>288.3</ele>
        <time>2024-11-27T14:14:40.000Z</time>
      </trkpt>
      <trkpt lat="43.48439" lon="6.11447">
        <ele>288.2</ele>
        <time>2024-11-27T14:14:48.000Z</time>
      </trkpt>
      <trkpt lat="43.4844" lon="6.11448">
        <ele>288.2</ele>
        <time>2024-11-27T14:14:49.000Z</time>
      </trkpt>
      <trkpt lat="43.4844" lon="6.11449">
        <ele>288.2</ele>
        <time>2024-11-27T14:14:50.000Z</time>
      </trkpt>
      <trkpt lat="43.48444" lon="6.11461">
        <ele>288.2</ele>
        <time>2024-11-27T14:14:59.000Z</time>
      </trkpt>
      <trkpt lat="43.4845" lon="6.11471">
        <ele>288.1</ele>
        <time>2024-11-27T14:15:09.000Z</time>
      </trkpt>
      <trkpt lat="43.48458" lon="6.11476">
        <ele>288</ele>
        <time>2024-11-27T14:15:18.000Z</time>
      </trkpt>
      <trkpt lat="43.48466" lon="6.11483">
        <ele>287.8</ele>
        <time>2024-11-27T14:15:29.000Z</time>
      </trkpt>
      <trkpt lat="43.48468" lon="6.11496">
        <ele>287.7</ele>
        <time>2024-11-27T14:15:35.000Z</time>
      </trkpt>
      <trkpt lat="43.4847" lon="6.11509">
        <ele>287.6</ele>
        <time>2024-11-27T14:15:41.000Z</time>
      </trkpt>
      <trkpt lat="43.48473" lon="6.11521">
        <ele>287.4</ele>
        <time>2024-11-27T14:15:48.000Z</time>
      </trkpt>
      <trkpt lat="43.48477" lon="6.11533">
        <ele>287.2</ele>
        <time>2024-11-27T14:15:56.000Z</time>
      </trkpt>
      <trkpt lat="43.48482" lon="6.11545">
        <ele>287.1</ele>
        <time>2024-11-27T14:16:05.000Z</time>
      </trkpt>
      <trkpt lat="43.48486" lon="6.11556">
        <ele>287</ele>
        <time>2024-11-27T14:16:12.000Z</time>
      </trkpt>
      <trkpt lat="43.48489" lon="6.1157">
        <ele>287.1</ele>
        <time>2024-11-27T14:16:21.000Z</time>
      </trkpt>
      <trkpt lat="43.48493" lon="6.11581">
        <ele>287.2</ele>
        <time>2024-11-27T14:16:28.000Z</time>
      </trkpt>
      <trkpt lat="43.48496" lon="6.11593">
        <ele>287.3</ele>
        <time>2024-11-27T14:16:35.000Z</time>
      </trkpt>
      <trkpt lat="43.48499" lon="6.11605">
        <ele>287.5</ele>
        <time>2024-11-27T14:16:42.000Z</time>
      </trkpt>
      <trkpt lat="43.48502" lon="6.11617">
        <ele>287.8</ele>
        <time>2024-11-27T14:16:50.000Z</time>
      </trkpt>
      <trkpt lat="43.48506" lon="6.11628">
        <ele>288.1</ele>
        <time>2024-11-27T14:16:58.000Z</time>
      </trkpt>
      <trkpt lat="43.4851" lon="6.1164">
        <ele>288.5</ele>
        <time>2024-11-27T14:17:06.000Z</time>
      </trkpt>
      <trkpt lat="43.48512" lon="6.11653">
        <ele>288.7</ele>
        <time>2024-11-27T14:17:17.000Z</time>
      </trkpt>
      <trkpt lat="43.4851" lon="6.11666">
        <ele>288.4</ele>
        <time>2024-11-27T14:17:26.000Z</time>
      </trkpt>
      <trkpt lat="43.48509" lon="6.11673">
        <ele>288</ele>
        <time>2024-11-27T14:17:35.000Z</time>
      </trkpt>
      <trkpt lat="43.48509" lon="6.11673">
        <ele>287.9</ele>
        <time>2024-11-27T14:17:36.000Z</time>
      </trkpt>
      <trkpt lat="43.48513" lon="6.1167">
        <ele>287.4</ele>
        <time>2024-11-27T14:18:00.000Z</time>
      </trkpt>
      <trkpt lat="43.48513" lon="6.11671">
        <ele>287.4</ele>
        <time>2024-11-27T14:18:01.000Z</time>
      </trkpt>
      <trkpt lat="43.48514" lon="6.1167">
        <ele>287.4</ele>
        <time>2024-11-27T14:18:07.000Z</time>
      </trkpt>
      <trkpt lat="43.48514" lon="6.1167">
        <ele>287.4</ele>
        <time>2024-11-27T14:18:08.000Z</time>
      </trkpt>
      <trkpt lat="43.48514" lon="6.1167">
        <ele>287.4</ele>
        <time>2024-11-27T14:18:09.000Z</time>
      </trkpt>
      <trkpt lat="43.48514" lon="6.11672">
        <ele>287.2</ele>
        <time>2024-11-27T14:18:42.000Z</time>
      </trkpt>
      <trkpt lat="43.48514" lon="6.11673">
        <ele>287.2</ele>
        <time>2024-11-27T14:18:43.000Z</time>
      </trkpt>
      <trkpt lat="43.48514" lon="6.11674">
        <ele>287.2</ele>
        <time>2024-11-27T14:18:44.000Z</time>
      </trkpt>
      <trkpt lat="43.48512" lon="6.11686">
        <ele>286.9</ele>
        <time>2024-11-27T14:18:59.000Z</time>
      </trkpt>
      <trkpt lat="43.4851" lon="6.11699">
        <ele>286.3</ele>
        <time>2024-11-27T14:19:11.000Z</time>
      </trkpt>
      <trkpt lat="43.48508" lon="6.11712">
        <ele>285.1</ele>
        <time>2024-11-27T14:19:23.000Z</time>
      </trkpt>
      <trkpt lat="43.48507" lon="6.11725">
        <ele>283.9</ele>
        <time>2024-11-27T14:19:35.000Z</time>
      </trkpt>
      <trkpt lat="43.48506" lon="6.11737">
        <ele>282.7</ele>
        <time>2024-11-27T14:19:44.000Z</time>
      </trkpt>
      <trkpt lat="43.48505" lon="6.11751">
        <ele>281.1</ele>
        <time>2024-11-27T14:19:56.000Z</time>
      </trkpt>
      <trkpt lat="43.48505" lon="6.11764">
        <ele>280</ele>
        <time>2024-11-27T14:20:05.000Z</time>
      </trkpt>
      <trkpt lat="43.48504" lon="6.11778">
        <ele>278.8</ele>
        <time>2024-11-27T14:20:15.000Z</time>
      </trkpt>
      <trkpt lat="43.48503" lon="6.11792">
        <ele>278.3</ele>
        <time>2024-11-27T14:20:24.000Z</time>
      </trkpt>
      <trkpt lat="43.48502" lon="6.11806">
        <ele>277.7</ele>
        <time>2024-11-27T14:20:33.000Z</time>
      </trkpt>
      <trkpt lat="43.485" lon="6.11819">
        <ele>277</ele>
        <time>2024-11-27T14:20:43.000Z</time>
      </trkpt>
      <trkpt lat="43.48499" lon="6.11833">
        <ele>276.3</ele>
        <time>2024-11-27T14:20:51.000Z</time>
      </trkpt>
      <trkpt lat="43.48497" lon="6.11846">
        <ele>275.7</ele>
        <time>2024-11-27T14:20:59.000Z</time>
      </trkpt>
      <trkpt lat="43.48497" lon="6.11859">
        <ele>274.7</ele>
        <time>2024-11-27T14:21:09.000Z</time>
      </trkpt>
      <trkpt lat="43.48497" lon="6.11872">
        <ele>273.8</ele>
        <time>2024-11-27T14:21:17.000Z</time>
      </trkpt>
      <trkpt lat="43.48495" lon="6.11886">
        <ele>272.7</ele>
        <time>2024-11-27T14:21:26.000Z</time>
      </trkpt>
      <trkpt lat="43.48496" lon="6.11899">
        <ele>271.6</ele>
        <time>2024-11-27T14:21:35.000Z</time>
      </trkpt>
      <trkpt lat="43.48495" lon="6.11912">
        <ele>270.6</ele>
        <time>2024-11-27T14:21:43.000Z</time>
      </trkpt>
      <trkpt lat="43.48492" lon="6.11925">
        <ele>269.9</ele>
        <time>2024-11-27T14:21:52.000Z</time>
      </trkpt>
      <trkpt lat="43.4849" lon="6.11937">
        <ele>268.9</ele>
        <time>2024-11-27T14:22:03.000Z</time>
      </trkpt>
      <trkpt lat="43.48491" lon="6.1195">
        <ele>267.9</ele>
        <time>2024-11-27T14:22:12.000Z</time>
      </trkpt>
      <trkpt lat="43.4849" lon="6.11964">
        <ele>267.1</ele>
        <time>2024-11-27T14:22:20.000Z</time>
      </trkpt>
      <trkpt lat="43.48492" lon="6.11972">
        <ele>265.4</ele>
        <time>2024-11-27T14:22:52.000Z</time>
      </trkpt>
      <trkpt lat="43.48492" lon="6.11972">
        <ele>265.4</ele>
        <time>2024-11-27T14:22:53.000Z</time>
      </trkpt>
      <trkpt lat="43.48492" lon="6.11972">
        <ele>265.3</ele>
        <time>2024-11-27T14:22:54.000Z</time>
      </trkpt>
      <trkpt lat="43.48492" lon="6.11972">
        <ele>265.3</ele>
        <time>2024-11-27T14:22:55.000Z</time>
      </trkpt>
      <trkpt lat="43.48492" lon="6.11972">
        <ele>265.3</ele>
        <time>2024-11-27T14:22:56.000Z</time>
      </trkpt>
      <trkpt lat="43.48492" lon="6.11972">
        <ele>265.3</ele>
        <time>2024-11-27T14:22:57.000Z</time>
      </trkpt>
      <trkpt lat="43.48492" lon="6.11972">
        <ele>265.3</ele>
        <time>2024-11-27T14:22:58.000Z</time>
      </trkpt>
      <trkpt lat="43.48492" lon="6.11972">
        <ele>265.3</ele>
        <time>2024-11-27T14:22:59.000Z</time>
      </trkpt>
      <trkpt lat="43.48492" lon="6.11972">
        <ele>265.3</ele>
        <time>2024-11-27T14:23:00.000Z</time>
      </trkpt>
      <trkpt lat="43.48492" lon="6.11972">
        <ele>265.2</ele>
        <time>2024-11-27T14:23:18.000Z</time>
      </trkpt>
      <trkpt lat="43.48492" lon="6.11972">
        <ele>265.2</ele>
        <time>2024-11-27T14:23:19.000Z</time>
      </trkpt>
      <trkpt lat="43.48492" lon="6.11972">
        <ele>265.2</ele>
        <time>2024-11-27T14:23:20.000Z</time>
      </trkpt>
      <trkpt lat="43.48492" lon="6.11973">
        <ele>265.1</ele>
        <time>2024-11-27T14:23:21.000Z</time>
      </trkpt>
      <trkpt lat="43.48494" lon="6.11976">
        <ele>265.1</ele>
        <time>2024-11-27T14:24:01.000Z</time>
      </trkpt>
      <trkpt lat="43.48495" lon="6.11977">
        <ele>265.1</ele>
        <time>2024-11-27T14:24:02.000Z</time>
      </trkpt>
      <trkpt lat="43.485" lon="6.11988">
        <ele>265</ele>
        <time>2024-11-27T14:24:09.000Z</time>
      </trkpt>
      <trkpt lat="43.48507" lon="6.11998">
        <ele>264.8</ele>
        <time>2024-11-27T14:24:17.000Z</time>
      </trkpt>
      <trkpt lat="43.48514" lon="6.12007">
        <ele>264.7</ele>
        <time>2024-11-27T14:24:30.000Z</time>
      </trkpt>
      <trkpt lat="43.4852" lon="6.12009">
        <ele>264.3</ele>
        <time>2024-11-27T14:24:48.000Z</time>
      </trkpt>
      <trkpt lat="43.4852" lon="6.12009">
        <ele>264.3</ele>
        <time>2024-11-27T14:24:49.000Z</time>
      </trkpt>
      <trkpt lat="43.4852" lon="6.12009">
        <ele>264.3</ele>
        <time>2024-11-27T14:24:50.000Z</time>
      </trkpt>
      <trkpt lat="43.4852" lon="6.12009">
        <ele>264.2</ele>
        <time>2024-11-27T14:24:51.000Z</time>
      </trkpt>
      <trkpt lat="43.4852" lon="6.12009">
        <ele>264.2</ele>
        <time>2024-11-27T14:24:52.000Z</time>
      </trkpt>
      <trkpt lat="43.4852" lon="6.12009">
        <ele>264.2</ele>
        <time>2024-11-27T14:24:53.000Z</time>
      </trkpt>
      <trkpt lat="43.4852" lon="6.12009">
        <ele>264.1</ele>
        <time>2024-11-27T14:24:54.000Z</time>
      </trkpt>
      <trkpt lat="43.48519" lon="6.12009">
        <ele>264</ele>
        <time>2024-11-27T14:24:58.000Z</time>
      </trkpt>
      <trkpt lat="43.48519" lon="6.12009">
        <ele>264</ele>
        <time>2024-11-27T14:24:59.000Z</time>
      </trkpt>
      <trkpt lat="43.48519" lon="6.12009">
        <ele>263.9</ele>
        <time>2024-11-27T14:25:02.000Z</time>
      </trkpt>
      <trkpt lat="43.48519" lon="6.12009">
        <ele>263.8</ele>
        <time>2024-11-27T14:25:03.000Z</time>
      </trkpt>
      <trkpt lat="43.48519" lon="6.12009">
        <ele>263.8</ele>
        <time>2024-11-27T14:25:04.000Z</time>
      </trkpt>
      <trkpt lat="43.48519" lon="6.12009">
        <ele>263.8</ele>
        <time>2024-11-27T14:25:07.000Z</time>
      </trkpt>
      <trkpt lat="43.48519" lon="6.12009">
        <ele>263.8</ele>
        <time>2024-11-27T14:25:08.000Z</time>
      </trkpt>
      <trkpt lat="43.48519" lon="6.12008">
        <ele>263.7</ele>
        <time>2024-11-27T14:25:09.000Z</time>
      </trkpt>
      <trkpt lat="43.48529" lon="6.12006">
        <ele>263.6</ele>
        <time>2024-11-27T14:25:21.000Z</time>
      </trkpt>
      <trkpt lat="43.48537" lon="6.12002">
        <ele>263.3</ele>
        <time>2024-11-27T14:25:29.000Z</time>
      </trkpt>
      <trkpt lat="43.48547" lon="6.11996">
        <ele>262.4</ele>
        <time>2024-11-27T14:25:37.000Z</time>
      </trkpt>
      <trkpt lat="43.48556" lon="6.11992">
        <ele>260.8</ele>
        <time>2024-11-27T14:25:48.000Z</time>
      </trkpt>
      <trkpt lat="43.48564" lon="6.11987">
        <ele>259.7</ele>
        <time>2024-11-27T14:25:56.000Z</time>
      </trkpt>
      <trkpt lat="43.48573" lon="6.11984">
        <ele>258</ele>
        <time>2024-11-27T14:26:05.000Z</time>
      </trkpt>
      <trkpt lat="43.4858" lon="6.11976">
        <ele>255.6</ele>
        <time>2024-11-27T14:26:20.000Z</time>
      </trkpt>
      <trkpt lat="43.48588" lon="6.1197">
        <ele>254.1</ele>
        <time>2024-11-27T14:26:29.000Z</time>
      </trkpt>
      <trkpt lat="43.48598" lon="6.11968">
        <ele>252.9</ele>
        <time>2024-11-27T14:26:36.000Z</time>
      </trkpt>
      <trkpt lat="43.48608" lon="6.11966">
        <ele>252</ele>
        <time>2024-11-27T14:26:43.000Z</time>
      </trkpt>
      <trkpt lat="43.48617" lon="6.11969">
        <ele>251.2</ele>
        <time>2024-11-27T14:26:52.000Z</time>
      </trkpt>
      <trkpt lat="43.48627" lon="6.11969">
        <ele>250.6</ele>
        <time>2024-11-27T14:26:59.000Z</time>
      </trkpt>
      <trkpt lat="43.48636" lon="6.11966">
        <ele>250.2</ele>
        <time>2024-11-27T14:27:06.000Z</time>
      </trkpt>
      <trkpt lat="43.48644" lon="6.11962">
        <ele>249.7</ele>
        <time>2024-11-27T14:27:14.000Z</time>
      </trkpt>
      <trkpt lat="43.48652" lon="6.11955">
        <ele>249.1</ele>
        <time>2024-11-27T14:27:21.000Z</time>
      </trkpt>
      <trkpt lat="43.4866" lon="6.11946">
        <ele>247.6</ele>
        <time>2024-11-27T14:27:33.000Z</time>
      </trkpt>
      <trkpt lat="43.48664" lon="6.11934">
        <ele>246.4</ele>
        <time>2024-11-27T14:27:42.000Z</time>
      </trkpt>
      <trkpt lat="43.48667" lon="6.11932">
        <ele>245</ele>
        <time>2024-11-27T14:27:55.000Z</time>
      </trkpt>
      <trkpt lat="43.48667" lon="6.11932">
        <ele>245</ele>
        <time>2024-11-27T14:27:56.000Z</time>
      </trkpt>
      <trkpt lat="43.48667" lon="6.11932">
        <ele>244.9</ele>
        <time>2024-11-27T14:27:57.000Z</time>
      </trkpt>
      <trkpt lat="43.48667" lon="6.11931">
        <ele>244.6</ele>
        <time>2024-11-27T14:28:58.000Z</time>
      </trkpt>
      <trkpt lat="43.48667" lon="6.1193">
        <ele>244.6</ele>
        <time>2024-11-27T14:28:59.000Z</time>
      </trkpt>
      <trkpt lat="43.48667" lon="6.1193">
        <ele>244.6</ele>
        <time>2024-11-27T14:29:00.000Z</time>
      </trkpt>
      <trkpt lat="43.48667" lon="6.1193">
        <ele>244.6</ele>
        <time>2024-11-27T14:29:01.000Z</time>
      </trkpt>
      <trkpt lat="43.48667" lon="6.1193">
        <ele>244.6</ele>
        <time>2024-11-27T14:29:10.000Z</time>
      </trkpt>
      <trkpt lat="43.48667" lon="6.1193">
        <ele>244.6</ele>
        <time>2024-11-27T14:29:11.000Z</time>
      </trkpt>
      <trkpt lat="43.48669" lon="6.11924">
        <ele>244.5</ele>
        <time>2024-11-27T14:29:22.000Z</time>
      </trkpt>
      <trkpt lat="43.48669" lon="6.11924">
        <ele>244.5</ele>
        <time>2024-11-27T14:29:23.000Z</time>
      </trkpt>
      <trkpt lat="43.48669" lon="6.11924">
        <ele>244.5</ele>
        <time>2024-11-27T14:29:24.000Z</time>
      </trkpt>
      <trkpt lat="43.48669" lon="6.11923">
        <ele>244.4</ele>
        <time>2024-11-27T14:29:25.000Z</time>
      </trkpt>
      <trkpt lat="43.4867" lon="6.11922">
        <ele>244.4</ele>
        <time>2024-11-27T14:29:26.000Z</time>
      </trkpt>
      <trkpt lat="43.48673" lon="6.1191">
        <ele>243.8</ele>
        <time>2024-11-27T14:29:37.000Z</time>
      </trkpt>
      <trkpt lat="43.48677" lon="6.11899">
        <ele>242.7</ele>
        <time>2024-11-27T14:29:47.000Z</time>
      </trkpt>
      <trkpt lat="43.48684" lon="6.11888">
        <ele>241.5</ele>
        <time>2024-11-27T14:29:56.000Z</time>
      </trkpt>
      <trkpt lat="43.48692" lon="6.1188">
        <ele>240.1</ele>
        <time>2024-11-27T14:30:08.000Z</time>
      </trkpt>
      <trkpt lat="43.48699" lon="6.11872">
        <ele>238.6</ele>
        <time>2024-11-27T14:30:18.000Z</time>
      </trkpt>
      <trkpt lat="43.48706" lon="6.11863">
        <ele>236.5</ele>
        <time>2024-11-27T14:30:29.000Z</time>
      </trkpt>
      <trkpt lat="43.4871" lon="6.11861">
        <ele>235.3</ele>
        <time>2024-11-27T14:30:38.000Z</time>
      </trkpt>
      <trkpt lat="43.4871" lon="6.11861">
        <ele>235.2</ele>
        <time>2024-11-27T14:30:39.000Z</time>
      </trkpt>
      <trkpt lat="43.4871" lon="6.11861">
        <ele>235.1</ele>
        <time>2024-11-27T14:30:40.000Z</time>
      </trkpt>
      <trkpt lat="43.48713" lon="6.1186">
        <ele>234.8</ele>
        <time>2024-11-27T14:30:43.000Z</time>
      </trkpt>
      <trkpt lat="43.48714" lon="6.11859">
        <ele>234.7</ele>
        <time>2024-11-27T14:30:44.000Z</time>
      </trkpt>
      <trkpt lat="43.48723" lon="6.11855">
        <ele>233.4</ele>
        <time>2024-11-27T14:30:53.000Z</time>
      </trkpt>
      <trkpt lat="43.48732" lon="6.11853">
        <ele>231.8</ele>
        <time>2024-11-27T14:31:01.000Z</time>
      </trkpt>
      <trkpt lat="43.48742" lon="6.11851">
        <ele>230.3</ele>
        <time>2024-11-27T14:31:10.000Z</time>
      </trkpt>
      <trkpt lat="43.4875" lon="6.11844">
        <ele>228.9</ele>
        <time>2024-11-27T14:31:20.000Z</time>
      </trkpt>
      <trkpt lat="43.4876" lon="6.11844">
        <ele>227.7</ele>
        <time>2024-11-27T14:31:29.000Z</time>
      </trkpt>
      <trkpt lat="43.48768" lon="6.11838">
        <ele>226.2</ele>
        <time>2024-11-27T14:31:43.000Z</time>
      </trkpt>
      <trkpt lat="43.48777" lon="6.11834">
        <ele>225</ele>
        <time>2024-11-27T14:31:54.000Z</time>
      </trkpt>
      <trkpt lat="43.48786" lon="6.11829">
        <ele>223.9</ele>
        <time>2024-11-27T14:32:02.000Z</time>
      </trkpt>
      <trkpt lat="43.48796" lon="6.11827">
        <ele>222.4</ele>
        <time>2024-11-27T14:32:10.000Z</time>
      </trkpt>
      <trkpt lat="43.48804" lon="6.11821">
        <ele>220.2</ele>
        <time>2024-11-27T14:32:20.000Z</time>
      </trkpt>
      <trkpt lat="43.48812" lon="6.11814">
        <ele>218.9</ele>
        <time>2024-11-27T14:32:29.000Z</time>
      </trkpt>
      <trkpt lat="43.48821" lon="6.11811">
        <ele>218.3</ele>
        <time>2024-11-27T14:32:40.000Z</time>
      </trkpt>
      <trkpt lat="43.48831" lon="6.11809">
        <ele>218.2</ele>
        <time>2024-11-27T14:32:47.000Z</time>
      </trkpt>
      <trkpt lat="43.4884" lon="6.11809">
        <ele>218.2</ele>
        <time>2024-11-27T14:32:57.000Z</time>
      </trkpt>
      <trkpt lat="43.48848" lon="6.11815">
        <ele>218.3</ele>
        <time>2024-11-27T14:33:06.000Z</time>
      </trkpt>
      <trkpt lat="43.48858" lon="6.11819">
        <ele>218.5</ele>
        <time>2024-11-27T14:33:16.000Z</time>
      </trkpt>
      <trkpt lat="43.48867" lon="6.11823">
        <ele>218.7</ele>
        <time>2024-11-27T14:33:25.000Z</time>
      </trkpt>
      <trkpt lat="43.48874" lon="6.11831">
        <ele>218.9</ele>
        <time>2024-11-27T14:33:34.000Z</time>
      </trkpt>
      <trkpt lat="43.48881" lon="6.11839">
        <ele>219.2</ele>
        <time>2024-11-27T14:33:45.000Z</time>
      </trkpt>
      <trkpt lat="43.48886" lon="6.1185">
        <ele>219.6</ele>
        <time>2024-11-27T14:33:54.000Z</time>
      </trkpt>
      <trkpt lat="43.48894" lon="6.11857">
        <ele>220.4</ele>
        <time>2024-11-27T14:34:06.000Z</time>
      </trkpt>
      <trkpt lat="43.48903" lon="6.11862">
        <ele>221.7</ele>
        <time>2024-11-27T14:34:17.000Z</time>
      </trkpt>
      <trkpt lat="43.48911" lon="6.11867">
        <ele>223.4</ele>
        <time>2024-11-27T14:34:31.000Z</time>
      </trkpt>
      <trkpt lat="43.4892" lon="6.11874">
        <ele>224.6</ele>
        <time>2024-11-27T14:34:42.000Z</time>
      </trkpt>
      <trkpt lat="43.48927" lon="6.11881">
        <ele>225.6</ele>
        <time>2024-11-27T14:34:53.000Z</time>
      </trkpt>
      <trkpt lat="43.48934" lon="6.1189">
        <ele>227.1</ele>
        <time>2024-11-27T14:35:03.000Z</time>
      </trkpt>
      <trkpt lat="43.48942" lon="6.11897">
        <ele>228.6</ele>
        <time>2024-11-27T14:35:14.000Z</time>
      </trkpt>
      <trkpt lat="43.48951" lon="6.11896">
        <ele>229.3</ele>
        <time>2024-11-27T14:35:22.000Z</time>
      </trkpt>
      <trkpt lat="43.48961" lon="6.11893">
        <ele>229.6</ele>
        <time>2024-11-27T14:35:34.000Z</time>
      </trkpt>
      <trkpt lat="43.48969" lon="6.11887">
        <ele>229.4</ele>
        <time>2024-11-27T14:35:43.000Z</time>
      </trkpt>
      <trkpt lat="43.48978" lon="6.11882">
        <ele>229.3</ele>
        <time>2024-11-27T14:35:52.000Z</time>
      </trkpt>
      <trkpt lat="43.48988" lon="6.11883">
        <ele>228.9</ele>
        <time>2024-11-27T14:36:02.000Z</time>
      </trkpt>
      <trkpt lat="43.48998" lon="6.11887">
        <ele>227.8</ele>
        <time>2024-11-27T14:36:10.000Z</time>
      </trkpt>
      <trkpt lat="43.49006" lon="6.11894">
        <ele>226.6</ele>
        <time>2024-11-27T14:36:19.000Z</time>
      </trkpt>
      <trkpt lat="43.49015" lon="6.11894">
        <ele>225.9</ele>
        <time>2024-11-27T14:36:27.000Z</time>
      </trkpt>
      <trkpt lat="43.49024" lon="6.11892">
        <ele>225.6</ele>
        <time>2024-11-27T14:36:35.000Z</time>
      </trkpt>
      <trkpt lat="43.49033" lon="6.11887">
        <ele>225.3</ele>
        <time>2024-11-27T14:36:44.000Z</time>
      </trkpt>
      <trkpt lat="43.49042" lon="6.11881">
        <ele>225.1</ele>
        <time>2024-11-27T14:36:55.000Z</time>
      </trkpt>
      <trkpt lat="43.49051" lon="6.11876">
        <ele>225</ele>
        <time>2024-11-27T14:37:04.000Z</time>
      </trkpt>
      <trkpt lat="43.4906" lon="6.11872">
        <ele>225</ele>
        <time>2024-11-27T14:37:13.000Z</time>
      </trkpt>
      <trkpt lat="43.49069" lon="6.11868">
        <ele>224.9</ele>
        <time>2024-11-27T14:37:22.000Z</time>
      </trkpt>
      <trkpt lat="43.49079" lon="6.11866">
        <ele>224.9</ele>
        <time>2024-11-27T14:37:31.000Z</time>
      </trkpt>
      <trkpt lat="43.49089" lon="6.11862">
        <ele>224.9</ele>
        <time>2024-11-27T14:37:40.000Z</time>
      </trkpt>
      <trkpt lat="43.49098" lon="6.11859">
        <ele>225</ele>
        <time>2024-11-27T14:37:48.000Z</time>
      </trkpt>
      <trkpt lat="43.49106" lon="6.11853">
        <ele>225.2</ele>
        <time>2024-11-27T14:37:57.000Z</time>
      </trkpt>
      <trkpt lat="43.49116" lon="6.1185">
        <ele>225.5</ele>
        <time>2024-11-27T14:38:07.000Z</time>
      </trkpt>
      <trkpt lat="43.49126" lon="6.11851">
        <ele>225.7</ele>
        <time>2024-11-27T14:38:15.000Z</time>
      </trkpt>
      <trkpt lat="43.49135" lon="6.11848">
        <ele>225.7</ele>
        <time>2024-11-27T14:38:21.000Z</time>
      </trkpt>
      <trkpt lat="43.49144" lon="6.11845">
        <ele>225.9</ele>
        <time>2024-11-27T14:38:31.000Z</time>
      </trkpt>
      <trkpt lat="43.49147" lon="6.11846">
        <ele>226.1</ele>
        <time>2024-11-27T14:38:45.000Z</time>
      </trkpt>
      <trkpt lat="43.49147" lon="6.11846">
        <ele>226.1</ele>
        <time>2024-11-27T14:38:46.000Z</time>
      </trkpt>
      <trkpt lat="43.49147" lon="6.11846">
        <ele>226.1</ele>
        <time>2024-11-27T14:38:47.000Z</time>
      </trkpt>
      <trkpt lat="43.49148" lon="6.11847">
        <ele>226.2</ele>
        <time>2024-11-27T14:39:05.000Z</time>
      </trkpt>
      <trkpt lat="43.49148" lon="6.11847">
        <ele>226.2</ele>
        <time>2024-11-27T14:39:06.000Z</time>
      </trkpt>
      <trkpt lat="43.49148" lon="6.11847">
        <ele>226.2</ele>
        <time>2024-11-27T14:39:07.000Z</time>
      </trkpt>
      <trkpt lat="43.49148" lon="6.11847">
        <ele>226.2</ele>
        <time>2024-11-27T14:39:08.000Z</time>
      </trkpt>
      <trkpt lat="43.49148" lon="6.11847">
        <ele>226.2</ele>
        <time>2024-11-27T14:39:09.000Z</time>
      </trkpt>
      <trkpt lat="43.49148" lon="6.11847">
        <ele>226.2</ele>
        <time>2024-11-27T14:39:10.000Z</time>
      </trkpt>
      <trkpt lat="43.49147" lon="6.11847">
        <ele>226.2</ele>
        <time>2024-11-27T14:39:11.000Z</time>
      </trkpt>
      <trkpt lat="43.49147" lon="6.11847">
        <ele>226.3</ele>
        <time>2024-11-27T14:39:12.000Z</time>
      </trkpt>
      <trkpt lat="43.49147" lon="6.11847">
        <ele>226.5</ele>
        <time>2024-11-27T14:39:18.000Z</time>
      </trkpt>
      <trkpt lat="43.49147" lon="6.11847">
        <ele>226.5</ele>
        <time>2024-11-27T14:39:19.000Z</time>
      </trkpt>
      <trkpt lat="43.49147" lon="6.11846">
        <ele>226.5</ele>
        <time>2024-11-27T14:39:20.000Z</time>
      </trkpt>
      <trkpt lat="43.49146" lon="6.11846">
        <ele>226.5</ele>
        <time>2024-11-27T14:39:21.000Z</time>
      </trkpt>
      <trkpt lat="43.49146" lon="6.11847">
        <ele>226.4</ele>
        <time>2024-11-27T14:39:25.000Z</time>
      </trkpt>
      <trkpt lat="43.49146" lon="6.11847">
        <ele>226.4</ele>
        <time>2024-11-27T14:39:26.000Z</time>
      </trkpt>
      <trkpt lat="43.49146" lon="6.11847">
        <ele>226.4</ele>
        <time>2024-11-27T14:39:35.000Z</time>
      </trkpt>
      <trkpt lat="43.49146" lon="6.11847">
        <ele>226.4</ele>
        <time>2024-11-27T14:39:36.000Z</time>
      </trkpt>
      <trkpt lat="43.49146" lon="6.11847">
        <ele>226.4</ele>
        <time>2024-11-27T14:39:37.000Z</time>
      </trkpt>
      <trkpt lat="43.49146" lon="6.11847">
        <ele>226.4</ele>
        <time>2024-11-27T14:39:38.000Z</time>
      </trkpt>
      <trkpt lat="43.49146" lon="6.11847">
        <ele>226.4</ele>
        <time>2024-11-27T14:39:39.000Z</time>
      </trkpt>
      <trkpt lat="43.49146" lon="6.11846">
        <ele>226.3</ele>
        <time>2024-11-27T14:40:23.000Z</time>
      </trkpt>
      <trkpt lat="43.49146" lon="6.11846">
        <ele>226.3</ele>
        <time>2024-11-27T14:40:24.000Z</time>
      </trkpt>
      <trkpt lat="43.49146" lon="6.11846">
        <ele>226.3</ele>
        <time>2024-11-27T14:40:25.000Z</time>
      </trkpt>
      <trkpt lat="43.49146" lon="6.11846">
        <ele>226.3</ele>
        <time>2024-11-27T14:40:26.000Z</time>
      </trkpt>
      <trkpt lat="43.49146" lon="6.11846">
        <ele>226.3</ele>
        <time>2024-11-27T14:41:30.000Z</time>
      </trkpt>
      <trkpt lat="43.49146" lon="6.11846">
        <ele>226.3</ele>
        <time>2024-11-27T14:41:31.000Z</time>
      </trkpt>
      <trkpt lat="43.49146" lon="6.11846">
        <ele>226.3</ele>
        <time>2024-11-27T14:41:35.000Z</time>
      </trkpt>
      <trkpt lat="43.49146" lon="6.11846">
        <ele>226.3</ele>
        <time>2024-11-27T14:41:36.000Z</time>
      </trkpt>
      <trkpt lat="43.49146" lon="6.11846">
        <ele>226.3</ele>
        <time>2024-11-27T14:41:37.000Z</time>
      </trkpt>
      <trkpt lat="43.49146" lon="6.11846">
        <ele>226.3</ele>
        <time>2024-11-27T14:41:38.000Z</time>
      </trkpt>
      <trkpt lat="43.49147" lon="6.11846">
        <ele>226.3</ele>
        <time>2024-11-27T14:41:39.000Z</time>
      </trkpt>
      <trkpt lat="43.49146" lon="6.11846">
        <ele>226.3</ele>
        <time>2024-11-27T14:41:43.000Z</time>
      </trkpt>
      <trkpt lat="43.49146" lon="6.11846">
        <ele>226.3</ele>
        <time>2024-11-27T14:41:44.000Z</time>
      </trkpt>
      <trkpt lat="43.49146" lon="6.11846">
        <ele>226.3</ele>
        <time>2024-11-27T14:42:07.000Z</time>
      </trkpt>
      <trkpt lat="43.49146" lon="6.11846">
        <ele>226.3</ele>
        <time>2024-11-27T14:42:08.000Z</time>
      </trkpt>
      <trkpt lat="43.49146" lon="6.11847">
        <ele>226.3</ele>
        <time>2024-11-27T14:42:09.000Z</time>
      </trkpt>
      <trkpt lat="43.49148" lon="6.11861">
        <ele>226.1</ele>
        <time>2024-11-27T14:42:17.000Z</time>
      </trkpt>
      <trkpt lat="43.49149" lon="6.11874">
        <ele>225.7</ele>
        <time>2024-11-27T14:42:24.000Z</time>
      </trkpt>
      <trkpt lat="43.49151" lon="6.11888">
        <ele>224.2</ele>
        <time>2024-11-27T14:42:33.000Z</time>
      </trkpt>
      <trkpt lat="43.49151" lon="6.119">
        <ele>222.6</ele>
        <time>2024-11-27T14:42:40.000Z</time>
      </trkpt>
      <trkpt lat="43.49151" lon="6.11914">
        <ele>221.6</ele>
        <time>2024-11-27T14:42:49.000Z</time>
      </trkpt>
      <trkpt lat="43.49152" lon="6.11928">
        <ele>220.9</ele>
        <time>2024-11-27T14:42:59.000Z</time>
      </trkpt>
      <trkpt lat="43.49153" lon="6.11942">
        <ele>220.5</ele>
        <time>2024-11-27T14:43:08.000Z</time>
      </trkpt>
      <trkpt lat="43.49153" lon="6.11955">
        <ele>220</ele>
        <time>2024-11-27T14:43:16.000Z</time>
      </trkpt>
      <trkpt lat="43.49154" lon="6.11968">
        <ele>219.2</ele>
        <time>2024-11-27T14:43:25.000Z</time>
      </trkpt>
      <trkpt lat="43.49154" lon="6.11982">
        <ele>218.2</ele>
        <time>2024-11-27T14:43:35.000Z</time>
      </trkpt>
      <trkpt lat="43.49154" lon="6.11994">
        <ele>217.4</ele>
        <time>2024-11-27T14:43:44.000Z</time>
      </trkpt>
      <trkpt lat="43.49154" lon="6.12007">
        <ele>216.3</ele>
        <time>2024-11-27T14:43:52.000Z</time>
      </trkpt>
      <trkpt lat="43.49154" lon="6.1202">
        <ele>214.6</ele>
        <time>2024-11-27T14:44:02.000Z</time>
      </trkpt>
      <trkpt lat="43.49151" lon="6.12032">
        <ele>213.3</ele>
        <time>2024-11-27T14:44:11.000Z</time>
      </trkpt>
      <trkpt lat="43.4915" lon="6.12045">
        <ele>210.9</ele>
        <time>2024-11-27T14:44:25.000Z</time>
      </trkpt>
      <trkpt lat="43.49146" lon="6.12057">
        <ele>209.1</ele>
        <time>2024-11-27T14:44:37.000Z</time>
      </trkpt>
      <trkpt lat="43.49142" lon="6.12069">
        <ele>207.3</ele>
        <time>2024-11-27T14:44:48.000Z</time>
      </trkpt>
      <trkpt lat="43.4914" lon="6.12082">
        <ele>205.7</ele>
        <time>2024-11-27T14:44:58.000Z</time>
      </trkpt>
      <trkpt lat="43.49139" lon="6.12095">
        <ele>204.2</ele>
        <time>2024-11-27T14:45:08.000Z</time>
      </trkpt>
      <trkpt lat="43.49136" lon="6.12107">
        <ele>202.6</ele>
        <time>2024-11-27T14:45:17.000Z</time>
      </trkpt>
      <trkpt lat="43.49133" lon="6.1212">
        <ele>200.8</ele>
        <time>2024-11-27T14:45:27.000Z</time>
      </trkpt>
      <trkpt lat="43.49136" lon="6.12133">
        <ele>199.3</ele>
        <time>2024-11-27T14:45:37.000Z</time>
      </trkpt>
      <trkpt lat="43.49145" lon="6.12139">
        <ele>198.2</ele>
        <time>2024-11-27T14:45:45.000Z</time>
      </trkpt>
      <trkpt lat="43.4915" lon="6.1215">
        <ele>196.6</ele>
        <time>2024-11-27T14:45:57.000Z</time>
      </trkpt>
      <trkpt lat="43.49153" lon="6.12162">
        <ele>196</ele>
        <time>2024-11-27T14:46:03.000Z</time>
      </trkpt>
      <trkpt lat="43.49155" lon="6.12169">
        <ele>195.1</ele>
        <time>2024-11-27T14:46:16.000Z</time>
      </trkpt>
      <trkpt lat="43.49155" lon="6.12169">
        <ele>195.1</ele>
        <time>2024-11-27T14:46:17.000Z</time>
      </trkpt>
      <trkpt lat="43.49155" lon="6.12168">
        <ele>194.8</ele>
        <time>2024-11-27T14:46:25.000Z</time>
      </trkpt>
      <trkpt lat="43.49155" lon="6.12168">
        <ele>194.8</ele>
        <time>2024-11-27T14:46:26.000Z</time>
      </trkpt>
      <trkpt lat="43.49155" lon="6.12168">
        <ele>194.7</ele>
        <time>2024-11-27T14:46:27.000Z</time>
      </trkpt>
      <trkpt lat="43.49155" lon="6.12168">
        <ele>194.7</ele>
        <time>2024-11-27T14:46:28.000Z</time>
      </trkpt>
      <trkpt lat="43.49155" lon="6.12168">
        <ele>194.7</ele>
        <time>2024-11-27T14:46:29.000Z</time>
      </trkpt>
      <trkpt lat="43.49156" lon="6.12168">
        <ele>194.6</ele>
        <time>2024-11-27T14:46:35.000Z</time>
      </trkpt>
      <trkpt lat="43.49157" lon="6.12167">
        <ele>194.6</ele>
        <time>2024-11-27T14:46:36.000Z</time>
      </trkpt>
      <trkpt lat="43.49157" lon="6.12167">
        <ele>194.6</ele>
        <time>2024-11-27T14:46:37.000Z</time>
      </trkpt>
      <trkpt lat="43.49157" lon="6.12167">
        <ele>194.5</ele>
        <time>2024-11-27T14:46:41.000Z</time>
      </trkpt>
      <trkpt lat="43.49157" lon="6.12167">
        <ele>194.5</ele>
        <time>2024-11-27T14:46:42.000Z</time>
      </trkpt>
      <trkpt lat="43.49158" lon="6.12166">
        <ele>194.5</ele>
        <time>2024-11-27T14:46:45.000Z</time>
      </trkpt>
      <trkpt lat="43.49158" lon="6.12166">
        <ele>194.5</ele>
        <time>2024-11-27T14:46:46.000Z</time>
      </trkpt>
      <trkpt lat="43.49158" lon="6.12166">
        <ele>194.5</ele>
        <time>2024-11-27T14:46:47.000Z</time>
      </trkpt>
      <trkpt lat="43.49158" lon="6.12166">
        <ele>194.5</ele>
        <time>2024-11-27T14:46:48.000Z</time>
      </trkpt>
      <trkpt lat="43.49158" lon="6.12166">
        <ele>194.5</ele>
        <time>2024-11-27T14:46:49.000Z</time>
      </trkpt>
      <trkpt lat="43.49156" lon="6.12167">
        <ele>194.5</ele>
        <time>2024-11-27T14:47:00.000Z</time>
      </trkpt>
      <trkpt lat="43.49156" lon="6.12167">
        <ele>194.5</ele>
        <time>2024-11-27T14:47:01.000Z</time>
      </trkpt>
      <trkpt lat="43.49156" lon="6.12167">
        <ele>194.5</ele>
        <time>2024-11-27T14:47:02.000Z</time>
      </trkpt>
      <trkpt lat="43.49156" lon="6.12167">
        <ele>194.5</ele>
        <time>2024-11-27T14:47:03.000Z</time>
      </trkpt>
      <trkpt lat="43.49156" lon="6.12167">
        <ele>194.4</ele>
        <time>2024-11-27T14:47:04.000Z</time>
      </trkpt>
      <trkpt lat="43.49156" lon="6.12166">
        <ele>194.4</ele>
        <time>2024-11-27T14:47:15.000Z</time>
      </trkpt>
      <trkpt lat="43.49157" lon="6.12166">
        <ele>194.4</ele>
        <time>2024-11-27T14:47:16.000Z</time>
      </trkpt>
      <trkpt lat="43.49157" lon="6.12166">
        <ele>194.4</ele>
        <time>2024-11-27T14:47:17.000Z</time>
      </trkpt>
      <trkpt lat="43.49157" lon="6.12166">
        <ele>194.4</ele>
        <time>2024-11-27T14:47:18.000Z</time>
      </trkpt>
      <trkpt lat="43.49157" lon="6.12166">
        <ele>194.4</ele>
        <time>2024-11-27T14:47:19.000Z</time>
      </trkpt>
      <trkpt lat="43.49157" lon="6.12166">
        <ele>194.4</ele>
        <time>2024-11-27T14:48:08.000Z</time>
      </trkpt>
      <trkpt lat="43.49157" lon="6.12166">
        <ele>194.4</ele>
        <time>2024-11-27T14:48:09.000Z</time>
      </trkpt>
      <trkpt lat="43.49157" lon="6.12167">
        <ele>194.4</ele>
        <time>2024-11-27T14:48:10.000Z</time>
      </trkpt>
      <trkpt lat="43.49156" lon="6.12167">
        <ele>194.4</ele>
        <time>2024-11-27T14:48:11.000Z</time>
      </trkpt>
      <trkpt lat="43.49155" lon="6.12168">
        <ele>194.4</ele>
        <time>2024-11-27T14:48:12.000Z</time>
      </trkpt>
      <trkpt lat="43.49154" lon="6.12168">
        <ele>194.4</ele>
        <time>2024-11-27T14:48:13.000Z</time>
      </trkpt>
      <trkpt lat="43.49152" lon="6.12168">
        <ele>194.4</ele>
        <time>2024-11-27T14:48:14.000Z</time>
      </trkpt>
      <trkpt lat="43.49151" lon="6.12169">
        <ele>194.4</ele>
        <time>2024-11-27T14:48:20.000Z</time>
      </trkpt>
      <trkpt lat="43.49152" lon="6.12168">
        <ele>194.3</ele>
        <time>2024-11-27T14:48:21.000Z</time>
      </trkpt>
      <trkpt lat="43.49152" lon="6.12168">
        <ele>194.3</ele>
        <time>2024-11-27T14:48:22.000Z</time>
      </trkpt>
      <trkpt lat="43.49152" lon="6.12168">
        <ele>194.3</ele>
        <time>2024-11-27T14:48:23.000Z</time>
      </trkpt>
      <trkpt lat="43.49152" lon="6.12168">
        <ele>194.3</ele>
        <time>2024-11-27T14:48:24.000Z</time>
      </trkpt>
      <trkpt lat="43.49152" lon="6.12168">
        <ele>194.3</ele>
        <time>2024-11-27T14:48:25.000Z</time>
      </trkpt>
      <trkpt lat="43.49152" lon="6.12168">
        <ele>194.3</ele>
        <time>2024-11-27T14:48:26.000Z</time>
      </trkpt>
      <trkpt lat="43.49152" lon="6.12167">
        <ele>194.3</ele>
        <time>2024-11-27T14:48:27.000Z</time>
      </trkpt>
      <trkpt lat="43.4915" lon="6.12168">
        <ele>194.3</ele>
        <time>2024-11-27T14:48:31.000Z</time>
      </trkpt>
      <trkpt lat="43.4915" lon="6.12168">
        <ele>194.3</ele>
        <time>2024-11-27T14:48:32.000Z</time>
      </trkpt>
      <trkpt lat="43.49141" lon="6.12171">
        <ele>194.1</ele>
        <time>2024-11-27T14:48:42.000Z</time>
      </trkpt>
      <trkpt lat="43.49131" lon="6.12176">
        <ele>193.9</ele>
        <time>2024-11-27T14:48:50.000Z</time>
      </trkpt>
      <trkpt lat="43.49125" lon="6.12185">
        <ele>193.4</ele>
        <time>2024-11-27T14:48:58.000Z</time>
      </trkpt>
      <trkpt lat="43.49124" lon="6.122">
        <ele>192.8</ele>
        <time>2024-11-27T14:49:05.000Z</time>
      </trkpt>
      <trkpt lat="43.49121" lon="6.12213">
        <ele>192.2</ele>
        <time>2024-11-27T14:49:12.000Z</time>
      </trkpt>
      <trkpt lat="43.49118" lon="6.12226">
        <ele>191.6</ele>
        <time>2024-11-27T14:49:20.000Z</time>
      </trkpt>
      <trkpt lat="43.49115" lon="6.12238">
        <ele>191.1</ele>
        <time>2024-11-27T14:49:27.000Z</time>
      </trkpt>
      <trkpt lat="43.49111" lon="6.12249">
        <ele>190.4</ele>
        <time>2024-11-27T14:49:35.000Z</time>
      </trkpt>
      <trkpt lat="43.49108" lon="6.12262">
        <ele>190.4</ele>
        <time>2024-11-27T14:49:42.000Z</time>
      </trkpt>
      <trkpt lat="43.49101" lon="6.12272">
        <ele>190.3</ele>
        <time>2024-11-27T14:49:49.000Z</time>
      </trkpt>
      <trkpt lat="43.49092" lon="6.12279">
        <ele>190</ele>
        <time>2024-11-27T14:49:58.000Z</time>
      </trkpt>
      <trkpt lat="43.49084" lon="6.12285">
        <ele>189.7</ele>
        <time>2024-11-27T14:50:06.000Z</time>
      </trkpt>
      <trkpt lat="43.49077" lon="6.12296">
        <ele>189.1</ele>
        <time>2024-11-27T14:50:13.000Z</time>
      </trkpt>
      <trkpt lat="43.49073" lon="6.12308">
        <ele>188</ele>
        <time>2024-11-27T14:50:21.000Z</time>
      </trkpt>
      <trkpt lat="43.49067" lon="6.12318">
        <ele>186.8</ele>
        <time>2024-11-27T14:50:29.000Z</time>
      </trkpt>
      <trkpt lat="43.49063" lon="6.1233">
        <ele>186</ele>
        <time>2024-11-27T14:50:39.000Z</time>
      </trkpt>
      <trkpt lat="43.49056" lon="6.12339">
        <ele>185.1</ele>
        <time>2024-11-27T14:50:49.000Z</time>
      </trkpt>
      <trkpt lat="43.49056" lon="6.12352">
        <ele>184.6</ele>
        <time>2024-11-27T14:50:57.000Z</time>
      </trkpt>
      <trkpt lat="43.49057" lon="6.12365">
        <ele>184.1</ele>
        <time>2024-11-27T14:51:04.000Z</time>
      </trkpt>
      <trkpt lat="43.49061" lon="6.12377">
        <ele>183.2</ele>
        <time>2024-11-27T14:51:14.000Z</time>
      </trkpt>
      <trkpt lat="43.4906" lon="6.12391">
        <ele>182.3</ele>
        <time>2024-11-27T14:51:22.000Z</time>
      </trkpt>
      <trkpt lat="43.49059" lon="6.12405">
        <ele>181.5</ele>
        <time>2024-11-27T14:51:30.000Z</time>
      </trkpt>
      <trkpt lat="43.49057" lon="6.12417">
        <ele>181.8</ele>
        <time>2024-11-27T14:51:36.000Z</time>
      </trkpt>
      <trkpt lat="43.49048" lon="6.12421">
        <ele>181.7</ele>
        <time>2024-11-27T14:51:45.000Z</time>
      </trkpt>
      <trkpt lat="43.49038" lon="6.12419">
        <ele>181.6</ele>
        <time>2024-11-27T14:51:55.000Z</time>
      </trkpt>
      <trkpt lat="43.49029" lon="6.12417">
        <ele>181.6</ele>
        <time>2024-11-27T14:52:02.000Z</time>
      </trkpt>
      <trkpt lat="43.4902" lon="6.12422">
        <ele>181.8</ele>
        <time>2024-11-27T14:52:09.000Z</time>
      </trkpt>
      <trkpt lat="43.49016" lon="6.12433">
        <ele>182</ele>
        <time>2024-11-27T14:52:17.000Z</time>
      </trkpt>
      <trkpt lat="43.49013" lon="6.12447">
        <ele>182.3</ele>
        <time>2024-11-27T14:52:25.000Z</time>
      </trkpt>
      <trkpt lat="43.4901" lon="6.12459">
        <ele>182.5</ele>
        <time>2024-11-27T14:52:32.000Z</time>
      </trkpt>
      <trkpt lat="43.49007" lon="6.12471">
        <ele>182.8</ele>
        <time>2024-11-27T14:52:40.000Z</time>
      </trkpt>
      <trkpt lat="43.49005" lon="6.12484">
        <ele>183.1</ele>
        <time>2024-11-27T14:52:53.000Z</time>
      </trkpt>
      <trkpt lat="43.49002" lon="6.12496">
        <ele>183.3</ele>
        <time>2024-11-27T14:53:01.000Z</time>
      </trkpt>
      <trkpt lat="43.48998" lon="6.12509">
        <ele>183.3</ele>
        <time>2024-11-27T14:53:09.000Z</time>
      </trkpt>
      <trkpt lat="43.48999" lon="6.12515">
        <ele>183.3</ele>
        <time>2024-11-27T14:53:27.000Z</time>
      </trkpt>
      <trkpt lat="43.48999" lon="6.12515">
        <ele>183.3</ele>
        <time>2024-11-27T14:53:28.000Z</time>
      </trkpt>
      <trkpt lat="43.48999" lon="6.12515">
        <ele>183.3</ele>
        <time>2024-11-27T14:53:29.000Z</time>
      </trkpt>
      <trkpt lat="43.48999" lon="6.12515">
        <ele>183.3</ele>
        <time>2024-11-27T14:53:32.000Z</time>
      </trkpt>
      <trkpt lat="43.48999" lon="6.12515">
        <ele>183.3</ele>
        <time>2024-11-27T14:53:33.000Z</time>
      </trkpt>
      <trkpt lat="43.49" lon="6.12515">
        <ele>183.3</ele>
        <time>2024-11-27T14:53:34.000Z</time>
      </trkpt>
      <trkpt lat="43.49" lon="6.12515">
        <ele>183.3</ele>
        <time>2024-11-27T14:53:35.000Z</time>
      </trkpt>
      <trkpt lat="43.49" lon="6.12515">
        <ele>183.3</ele>
        <time>2024-11-27T14:53:36.000Z</time>
      </trkpt>
      <trkpt lat="43.49001" lon="6.12514">
        <ele>183.3</ele>
        <time>2024-11-27T14:53:37.000Z</time>
      </trkpt>
      <trkpt lat="43.49001" lon="6.12514">
        <ele>183.3</ele>
        <time>2024-11-27T14:53:38.000Z</time>
      </trkpt>
      <trkpt lat="43.49001" lon="6.12514">
        <ele>183.2</ele>
        <time>2024-11-27T14:53:39.000Z</time>
      </trkpt>
      <trkpt lat="43.49001" lon="6.12514">
        <ele>183.2</ele>
        <time>2024-11-27T14:53:40.000Z</time>
      </trkpt>
      <trkpt lat="43.49001" lon="6.12514">
        <ele>183.2</ele>
        <time>2024-11-27T14:53:41.000Z</time>
      </trkpt>
      <trkpt lat="43.49001" lon="6.12514">
        <ele>183.2</ele>
        <time>2024-11-27T14:53:42.000Z</time>
      </trkpt>
      <trkpt lat="43.49" lon="6.12514">
        <ele>183.2</ele>
        <time>2024-11-27T14:53:47.000Z</time>
      </trkpt>
      <trkpt lat="43.49" lon="6.12514">
        <ele>183.2</ele>
        <time>2024-11-27T14:53:48.000Z</time>
      </trkpt>
      <trkpt lat="43.49" lon="6.12513">
        <ele>183.2</ele>
        <time>2024-11-27T14:53:49.000Z</time>
      </trkpt>
      <trkpt lat="43.49" lon="6.12513">
        <ele>183.2</ele>
        <time>2024-11-27T14:53:50.000Z</time>
      </trkpt>
      <trkpt lat="43.49" lon="6.12513">
        <ele>183.2</ele>
        <time>2024-11-27T14:53:51.000Z</time>
      </trkpt>
      <trkpt lat="43.49" lon="6.12513">
        <ele>183.2</ele>
        <time>2024-11-27T14:53:52.000Z</time>
      </trkpt>
      <trkpt lat="43.49" lon="6.12513">
        <ele>183.2</ele>
        <time>2024-11-27T14:53:53.000Z</time>
      </trkpt>
      <trkpt lat="43.49001" lon="6.12513">
        <ele>183.2</ele>
        <time>2024-11-27T14:53:54.000Z</time>
      </trkpt>
      <trkpt lat="43.48996" lon="6.12524">
        <ele>183.2</ele>
        <time>2024-11-27T14:54:04.000Z</time>
      </trkpt>
      <trkpt lat="43.48991" lon="6.12537">
        <ele>183.1</ele>
        <time>2024-11-27T14:54:11.000Z</time>
      </trkpt>
      <trkpt lat="43.48987" lon="6.12549">
        <ele>183</ele>
        <time>2024-11-27T14:54:18.000Z</time>
      </trkpt>
      <trkpt lat="43.48983" lon="6.12562">
        <ele>182.9</ele>
        <time>2024-11-27T14:54:25.000Z</time>
      </trkpt>
      <trkpt lat="43.4898" lon="6.12575">
        <ele>182.8</ele>
        <time>2024-11-27T14:54:34.000Z</time>
      </trkpt>
      <trkpt lat="43.48977" lon="6.12587">
        <ele>182.6</ele>
        <time>2024-11-27T14:54:41.000Z</time>
      </trkpt>
      <trkpt lat="43.48971" lon="6.12599">
        <ele>182.4</ele>
        <time>2024-11-27T14:54:49.000Z</time>
      </trkpt>
      <trkpt lat="43.48966" lon="6.12611">
        <ele>182.1</ele>
        <time>2024-11-27T14:54:57.000Z</time>
      </trkpt>
      <trkpt lat="43.4896" lon="6.12623">
        <ele>181.6</ele>
        <time>2024-11-27T14:55:05.000Z</time>
      </trkpt>
      <trkpt lat="43.48955" lon="6.12634">
        <ele>181</ele>
        <time>2024-11-27T14:55:12.000Z</time>
      </trkpt>
      <trkpt lat="43.48949" lon="6.12645">
        <ele>180.3</ele>
        <time>2024-11-27T14:55:20.000Z</time>
      </trkpt>
      <trkpt lat="43.48944" lon="6.12657">
        <ele>179.7</ele>
        <time>2024-11-27T14:55:28.000Z</time>
      </trkpt>
      <trkpt lat="43.48939" lon="6.12669">
        <ele>179.1</ele>
        <time>2024-11-27T14:55:36.000Z</time>
      </trkpt>
      <trkpt lat="43.48935" lon="6.1268">
        <ele>178.5</ele>
        <time>2024-11-27T14:55:43.000Z</time>
      </trkpt>
      <trkpt lat="43.48934" lon="6.12686">
        <ele>178</ele>
        <time>2024-11-27T14:55:52.000Z</time>
      </trkpt>
      <trkpt lat="43.48934" lon="6.12686">
        <ele>177.9</ele>
        <time>2024-11-27T14:55:53.000Z</time>
      </trkpt>
      <trkpt lat="43.48934" lon="6.12685">
        <ele>177.9</ele>
        <time>2024-11-27T14:55:54.000Z</time>
      </trkpt>
      <trkpt lat="43.48936" lon="6.12684">
        <ele>177.7</ele>
        <time>2024-11-27T14:56:01.000Z</time>
      </trkpt>
      <trkpt lat="43.48936" lon="6.12683">
        <ele>177.7</ele>
        <time>2024-11-27T14:56:02.000Z</time>
      </trkpt>
      <trkpt lat="43.48935" lon="6.12682">
        <ele>177.7</ele>
        <time>2024-11-27T14:56:06.000Z</time>
      </trkpt>
      <trkpt lat="43.48935" lon="6.12682">
        <ele>177.7</ele>
        <time>2024-11-27T14:56:07.000Z</time>
      </trkpt>
      <trkpt lat="43.48935" lon="6.12681">
        <ele>177.6</ele>
        <time>2024-11-27T14:56:23.000Z</time>
      </trkpt>
      <trkpt lat="43.48935" lon="6.12681">
        <ele>177.6</ele>
        <time>2024-11-27T14:56:24.000Z</time>
      </trkpt>
      <trkpt lat="43.48935" lon="6.12681">
        <ele>177.6</ele>
        <time>2024-11-27T14:56:25.000Z</time>
      </trkpt>
      <trkpt lat="43.48936" lon="6.12681">
        <ele>177.5</ele>
        <time>2024-11-27T14:56:30.000Z</time>
      </trkpt>
      <trkpt lat="43.48936" lon="6.12681">
        <ele>177.5</ele>
        <time>2024-11-27T14:56:31.000Z</time>
      </trkpt>
      <trkpt lat="43.48936" lon="6.12681">
        <ele>177.5</ele>
        <time>2024-11-27T14:56:45.000Z</time>
      </trkpt>
      <trkpt lat="43.48936" lon="6.12681">
        <ele>177.5</ele>
        <time>2024-11-27T14:56:46.000Z</time>
      </trkpt>
      <trkpt lat="43.48937" lon="6.12682">
        <ele>177.5</ele>
        <time>2024-11-27T14:56:47.000Z</time>
      </trkpt>
      <trkpt lat="43.48944" lon="6.12691">
        <ele>177.4</ele>
        <time>2024-11-27T14:56:54.000Z</time>
      </trkpt>
      <trkpt lat="43.48951" lon="6.127">
        <ele>177</ele>
        <time>2024-11-27T14:57:03.000Z</time>
      </trkpt>
      <trkpt lat="43.48959" lon="6.12709">
        <ele>176.3</ele>
        <time>2024-11-27T14:57:09.000Z</time>
      </trkpt>
      <trkpt lat="43.48966" lon="6.12717">
        <ele>175.5</ele>
        <time>2024-11-27T14:57:15.000Z</time>
      </trkpt>
      <trkpt lat="43.48973" lon="6.12727">
        <ele>174.7</ele>
        <time>2024-11-27T14:57:23.000Z</time>
      </trkpt>
      <trkpt lat="43.48981" lon="6.12733">
        <ele>174.3</ele>
        <time>2024-11-27T14:57:30.000Z</time>
      </trkpt>
      <trkpt lat="43.48987" lon="6.12743">
        <ele>174.1</ele>
        <time>2024-11-27T14:57:37.000Z</time>
      </trkpt>
      <trkpt lat="43.48994" lon="6.1275">
        <ele>173.3</ele>
        <time>2024-11-27T14:58:01.000Z</time>
      </trkpt>
      <trkpt lat="43.49001" lon="6.12759">
        <ele>172.9</ele>
        <time>2024-11-27T14:58:19.000Z</time>
      </trkpt>
      <trkpt lat="43.49009" lon="6.12767">
        <ele>172.9</ele>
        <time>2024-11-27T14:58:38.000Z</time>
      </trkpt>
      <trkpt lat="43.49014" lon="6.12777">
        <ele>172.9</ele>
        <time>2024-11-27T14:58:47.000Z</time>
      </trkpt>
      <trkpt lat="43.49021" lon="6.12786">
        <ele>172.9</ele>
        <time>2024-11-27T14:58:56.000Z</time>
      </trkpt>
      <trkpt lat="43.49032" lon="6.12784">
        <ele>173.1</ele>
        <time>2024-11-27T14:59:07.000Z</time>
      </trkpt>
      <trkpt lat="43.49032" lon="6.12783">
        <ele>173.3</ele>
        <time>2024-11-27T14:59:13.000Z</time>
      </trkpt>
      <trkpt lat="43.49032" lon="6.12783">
        <ele>173.3</ele>
        <time>2024-11-27T14:59:14.000Z</time>
      </trkpt>
      <trkpt lat="43.49033" lon="6.12783">
        <ele>173.6</ele>
        <time>2024-11-27T14:59:25.000Z</time>
      </trkpt>
      <trkpt lat="43.49033" lon="6.12783">
        <ele>173.6</ele>
        <time>2024-11-27T14:59:26.000Z</time>
      </trkpt>
      <trkpt lat="43.49033" lon="6.12783">
        <ele>173.6</ele>
        <time>2024-11-27T14:59:27.000Z</time>
      </trkpt>
      <trkpt lat="43.49033" lon="6.12783">
        <ele>173.7</ele>
        <time>2024-11-27T14:59:28.000Z</time>
      </trkpt>
      <trkpt lat="43.49033" lon="6.12783">
        <ele>173.7</ele>
        <time>2024-11-27T14:59:29.000Z</time>
      </trkpt>
      <trkpt lat="43.49033" lon="6.12782">
        <ele>173.9</ele>
        <time>2024-11-27T15:00:10.000Z</time>
      </trkpt>
      <trkpt lat="43.49033" lon="6.12782">
        <ele>173.9</ele>
        <time>2024-11-27T15:00:11.000Z</time>
      </trkpt>
      <trkpt lat="43.49033" lon="6.12782">
        <ele>173.9</ele>
        <time>2024-11-27T15:00:18.000Z</time>
      </trkpt>
      <trkpt lat="43.49033" lon="6.12782">
        <ele>173.9</ele>
        <time>2024-11-27T15:00:19.000Z</time>
      </trkpt>
      <trkpt lat="43.49034" lon="6.12781">
        <ele>174</ele>
        <time>2024-11-27T15:00:47.000Z</time>
      </trkpt>
      <trkpt lat="43.49034" lon="6.12781">
        <ele>174</ele>
        <time>2024-11-27T15:00:48.000Z</time>
      </trkpt>
      <trkpt lat="43.49034" lon="6.12781">
        <ele>174</ele>
        <time>2024-11-27T15:00:49.000Z</time>
      </trkpt>
      <trkpt lat="43.49034" lon="6.12781">
        <ele>174</ele>
        <time>2024-11-27T15:00:58.000Z</time>
      </trkpt>
      <trkpt lat="43.49034" lon="6.12781">
        <ele>174</ele>
        <time>2024-11-27T15:00:59.000Z</time>
      </trkpt>
      <trkpt lat="43.49034" lon="6.12781">
        <ele>174</ele>
        <time>2024-11-27T15:01:02.000Z</time>
      </trkpt>
      <trkpt lat="43.49034" lon="6.12781">
        <ele>174</ele>
        <time>2024-11-27T15:01:03.000Z</time>
      </trkpt>
      <trkpt lat="43.49034" lon="6.12781">
        <ele>174</ele>
        <time>2024-11-27T15:01:04.000Z</time>
      </trkpt>
      <trkpt lat="43.49034" lon="6.12781">
        <ele>174</ele>
        <time>2024-11-27T15:01:05.000Z</time>
      </trkpt>
      <trkpt lat="43.49034" lon="6.12781">
        <ele>174</ele>
        <time>2024-11-27T15:01:06.000Z</time>
      </trkpt>
      <trkpt lat="43.49034" lon="6.12781">
        <ele>174</ele>
        <time>2024-11-27T15:01:07.000Z</time>
      </trkpt>
      <trkpt lat="43.49034" lon="6.12781">
        <ele>174</ele>
        <time>2024-11-27T15:01:28.000Z</time>
      </trkpt>
      <trkpt lat="43.49035" lon="6.12781">
        <ele>174</ele>
        <time>2024-11-27T15:01:29.000Z</time>
      </trkpt>
      <trkpt lat="43.49035" lon="6.12781">
        <ele>174</ele>
        <time>2024-11-27T15:01:32.000Z</time>
      </trkpt>
      <trkpt lat="43.49035" lon="6.12781">
        <ele>174</ele>
        <time>2024-11-27T15:01:33.000Z</time>
      </trkpt>
      <trkpt lat="43.49035" lon="6.12781">
        <ele>174</ele>
        <time>2024-11-27T15:01:34.000Z</time>
      </trkpt>
      <trkpt lat="43.49035" lon="6.1278">
        <ele>174</ele>
        <time>2024-11-27T15:01:46.000Z</time>
      </trkpt>
      <trkpt lat="43.49035" lon="6.1278">
        <ele>174</ele>
        <time>2024-11-27T15:01:47.000Z</time>
      </trkpt>
      <trkpt lat="43.49038" lon="6.12792">
        <ele>174.1</ele>
        <time>2024-11-27T15:01:56.000Z</time>
      </trkpt>
      <trkpt lat="43.49041" lon="6.12804">
        <ele>174.3</ele>
        <time>2024-11-27T15:02:04.000Z</time>
      </trkpt>
      <trkpt lat="43.49047" lon="6.12814">
        <ele>175.1</ele>
        <time>2024-11-27T15:02:14.000Z</time>
      </trkpt>
      <trkpt lat="43.49047" lon="6.12801">
        <ele>176.1</ele>
        <time>2024-11-27T15:02:24.000Z</time>
      </trkpt>
      <trkpt lat="43.49047" lon="6.12798">
        <ele>176.4</ele>
        <time>2024-11-27T15:02:33.000Z</time>
      </trkpt>
      <trkpt lat="43.49047" lon="6.12798">
        <ele>176.5</ele>
        <time>2024-11-27T15:02:34.000Z</time>
      </trkpt>
      <trkpt lat="43.49047" lon="6.12798">
        <ele>176.5</ele>
        <time>2024-11-27T15:02:37.000Z</time>
      </trkpt>
      <trkpt lat="43.49047" lon="6.12798">
        <ele>176.6</ele>
        <time>2024-11-27T15:02:38.000Z</time>
      </trkpt>
      <trkpt lat="43.49047" lon="6.12798">
        <ele>176.6</ele>
        <time>2024-11-27T15:02:39.000Z</time>
      </trkpt>
      <trkpt lat="43.49047" lon="6.12798">
        <ele>176.6</ele>
        <time>2024-11-27T15:02:40.000Z</time>
      </trkpt>
      <trkpt lat="43.49047" lon="6.12798">
        <ele>176.6</ele>
        <time>2024-11-27T15:02:41.000Z</time>
      </trkpt>
      <trkpt lat="43.49047" lon="6.12796">
        <ele>176.6</ele>
        <time>2024-11-27T15:02:42.000Z</time>
      </trkpt>
      <trkpt lat="43.49047" lon="6.12795">
        <ele>176.6</ele>
        <time>2024-11-27T15:02:43.000Z</time>
      </trkpt>
      <trkpt lat="43.49047" lon="6.12794">
        <ele>176.6</ele>
        <time>2024-11-27T15:02:44.000Z</time>
      </trkpt>
      <trkpt lat="43.49047" lon="6.12794">
        <ele>176.7</ele>
        <time>2024-11-27T15:02:45.000Z</time>
      </trkpt>
      <trkpt lat="43.49047" lon="6.12804">
        <ele>176.6</ele>
        <time>2024-11-27T15:03:21.000Z</time>
      </trkpt>
      <trkpt lat="43.49047" lon="6.12804">
        <ele>176.6</ele>
        <time>2024-11-27T15:03:22.000Z</time>
      </trkpt>
      <trkpt lat="43.49047" lon="6.12804">
        <ele>176.6</ele>
        <time>2024-11-27T15:03:38.000Z</time>
      </trkpt>
      <trkpt lat="43.49047" lon="6.12804">
        <ele>176.6</ele>
        <time>2024-11-27T15:03:39.000Z</time>
      </trkpt>
      <trkpt lat="43.49047" lon="6.12804">
        <ele>176.6</ele>
        <time>2024-11-27T15:03:40.000Z</time>
      </trkpt>
      <trkpt lat="43.49047" lon="6.12804">
        <ele>176.6</ele>
        <time>2024-11-27T15:03:41.000Z</time>
      </trkpt>
      <trkpt lat="43.49047" lon="6.12805">
        <ele>176.6</ele>
        <time>2024-11-27T15:03:42.000Z</time>
      </trkpt>
      <trkpt lat="43.49047" lon="6.12805">
        <ele>176.6</ele>
        <time>2024-11-27T15:03:43.000Z</time>
      </trkpt>
      <trkpt lat="43.49047" lon="6.12805">
        <ele>176.6</ele>
        <time>2024-11-27T15:03:44.000Z</time>
      </trkpt>
      <trkpt lat="43.49047" lon="6.12805">
        <ele>176.6</ele>
        <time>2024-11-27T15:03:45.000Z</time>
      </trkpt>
      <trkpt lat="43.49047" lon="6.12805">
        <ele>176.6</ele>
        <time>2024-11-27T15:03:46.000Z</time>
      </trkpt>
      <trkpt lat="43.49047" lon="6.12806">
        <ele>176.6</ele>
        <time>2024-11-27T15:05:15.000Z</time>
      </trkpt>
      <trkpt lat="43.49047" lon="6.12807">
        <ele>176.6</ele>
        <time>2024-11-27T15:05:16.000Z</time>
      </trkpt>
      <trkpt lat="43.49047" lon="6.12807">
        <ele>176.6</ele>
        <time>2024-11-27T15:05:17.000Z</time>
      </trkpt>
      <trkpt lat="43.49047" lon="6.12807">
        <ele>176.6</ele>
        <time>2024-11-27T15:05:18.000Z</time>
      </trkpt>
      <trkpt lat="43.49047" lon="6.12807">
        <ele>176.6</ele>
        <time>2024-11-27T15:05:19.000Z</time>
      </trkpt>
      <trkpt lat="43.49047" lon="6.12807">
        <ele>176.5</ele>
        <time>2024-11-27T15:05:20.000Z</time>
      </trkpt>
      <trkpt lat="43.49047" lon="6.12806">
        <ele>176.5</ele>
        <time>2024-11-27T15:05:21.000Z</time>
      </trkpt>
      <trkpt lat="43.49047" lon="6.12801">
        <ele>176.5</ele>
        <time>2024-11-27T15:05:35.000Z</time>
      </trkpt>
      <trkpt lat="43.49047" lon="6.12801">
        <ele>176.5</ele>
        <time>2024-11-27T15:05:36.000Z</time>
      </trkpt>
      <trkpt lat="43.49047" lon="6.12801">
        <ele>176.5</ele>
        <time>2024-11-27T15:05:37.000Z</time>
      </trkpt>
      <trkpt lat="43.49047" lon="6.12801">
        <ele>176.5</ele>
        <time>2024-11-27T15:05:38.000Z</time>
      </trkpt>
      <trkpt lat="43.49046" lon="6.12802">
        <ele>176.4</ele>
        <time>2024-11-27T15:05:39.000Z</time>
      </trkpt>
      <trkpt lat="43.49046" lon="6.12802">
        <ele>176.3</ele>
        <time>2024-11-27T15:05:45.000Z</time>
      </trkpt>
      <trkpt lat="43.49046" lon="6.12802">
        <ele>176.3</ele>
        <time>2024-11-27T15:05:46.000Z</time>
      </trkpt>
      <trkpt lat="43.49046" lon="6.12802">
        <ele>176.2</ele>
        <time>2024-11-27T15:05:47.000Z</time>
      </trkpt>
      <trkpt lat="43.49046" lon="6.12802">
        <ele>176.2</ele>
        <time>2024-11-27T15:05:48.000Z</time>
      </trkpt>
      <trkpt lat="43.49046" lon="6.12802">
        <ele>176.2</ele>
        <time>2024-11-27T15:05:49.000Z</time>
      </trkpt>
      <trkpt lat="43.49046" lon="6.12802">
        <ele>176.1</ele>
        <time>2024-11-27T15:05:50.000Z</time>
      </trkpt>
      <trkpt lat="43.49046" lon="6.12802">
        <ele>176.1</ele>
        <time>2024-11-27T15:05:51.000Z</time>
      </trkpt>
      <trkpt lat="43.49045" lon="6.12799">
        <ele>175.5</ele>
        <time>2024-11-27T15:06:16.000Z</time>
      </trkpt>
      <trkpt lat="43.49045" lon="6.12799">
        <ele>175.5</ele>
        <time>2024-11-27T15:06:17.000Z</time>
      </trkpt>
      <trkpt lat="43.49045" lon="6.12799">
        <ele>175.5</ele>
        <time>2024-11-27T15:06:18.000Z</time>
      </trkpt>
      <trkpt lat="43.49045" lon="6.12799">
        <ele>175.5</ele>
        <time>2024-11-27T15:06:19.000Z</time>
      </trkpt>
      <trkpt lat="43.49045" lon="6.12799">
        <ele>175.4</ele>
        <time>2024-11-27T15:06:53.000Z</time>
      </trkpt>
      <trkpt lat="43.49045" lon="6.12799">
        <ele>175.4</ele>
        <time>2024-11-27T15:06:54.000Z</time>
      </trkpt>
      <trkpt lat="43.49053" lon="6.12792">
        <ele>175.8</ele>
        <time>2024-11-27T15:07:08.000Z</time>
      </trkpt>
      <trkpt lat="43.49059" lon="6.12783">
        <ele>176.3</ele>
        <time>2024-11-27T15:07:23.000Z</time>
      </trkpt>
      <trkpt lat="43.49065" lon="6.12772">
        <ele>176.5</ele>
        <time>2024-11-27T15:07:32.000Z</time>
      </trkpt>
      <trkpt lat="43.49072" lon="6.12763">
        <ele>176.7</ele>
        <time>2024-11-27T15:07:40.000Z</time>
      </trkpt>
      <trkpt lat="43.49078" lon="6.12753">
        <ele>176.9</ele>
        <time>2024-11-27T15:07:52.000Z</time>
      </trkpt>
      <trkpt lat="43.49085" lon="6.12745">
        <ele>177.1</ele>
        <time>2024-11-27T15:08:02.000Z</time>
      </trkpt>
      <trkpt lat="43.49091" lon="6.12734">
        <ele>177.4</ele>
        <time>2024-11-27T15:08:13.000Z</time>
      </trkpt>
      <trkpt lat="43.49098" lon="6.12726">
        <ele>178</ele>
        <time>2024-11-27T15:08:24.000Z</time>
      </trkpt>
      <trkpt lat="43.49104" lon="6.12716">
        <ele>178.5</ele>
        <time>2024-11-27T15:08:35.000Z</time>
      </trkpt>
      <trkpt lat="43.4911" lon="6.12706">
        <ele>179.5</ele>
        <time>2024-11-27T15:08:47.000Z</time>
      </trkpt>
      <trkpt lat="43.49116" lon="6.12695">
        <ele>181</ele>
        <time>2024-11-27T15:09:01.000Z</time>
      </trkpt>
      <trkpt lat="43.4912" lon="6.1269">
        <ele>181.8</ele>
        <time>2024-11-27T15:09:13.000Z</time>
      </trkpt>
      <trkpt lat="43.4912" lon="6.1269">
        <ele>181.9</ele>
        <time>2024-11-27T15:09:14.000Z</time>
      </trkpt>
      <trkpt lat="43.49119" lon="6.12692">
        <ele>182.2</ele>
        <time>2024-11-27T15:09:30.000Z</time>
      </trkpt>
      <trkpt lat="43.49119" lon="6.12691">
        <ele>182.2</ele>
        <time>2024-11-27T15:09:31.000Z</time>
      </trkpt>
      <trkpt lat="43.49117" lon="6.1269">
        <ele>182.3</ele>
        <time>2024-11-27T15:09:38.000Z</time>
      </trkpt>
      <trkpt lat="43.49117" lon="6.1269">
        <ele>182.3</ele>
        <time>2024-11-27T15:09:39.000Z</time>
      </trkpt>
      <trkpt lat="43.49117" lon="6.1269">
        <ele>182.3</ele>
        <time>2024-11-27T15:09:40.000Z</time>
      </trkpt>
      <trkpt lat="43.49117" lon="6.1269">
        <ele>182.3</ele>
        <time>2024-11-27T15:09:41.000Z</time>
      </trkpt>
      <trkpt lat="43.49117" lon="6.1269">
        <ele>182.3</ele>
        <time>2024-11-27T15:09:42.000Z</time>
      </trkpt>
      <trkpt lat="43.49117" lon="6.1269">
        <ele>182.3</ele>
        <time>2024-11-27T15:09:48.000Z</time>
      </trkpt>
      <trkpt lat="43.49117" lon="6.1269">
        <ele>182.3</ele>
        <time>2024-11-27T15:09:49.000Z</time>
      </trkpt>
      <trkpt lat="43.49117" lon="6.1269">
        <ele>182.3</ele>
        <time>2024-11-27T15:09:50.000Z</time>
      </trkpt>
      <trkpt lat="43.49117" lon="6.1269">
        <ele>182.3</ele>
        <time>2024-11-27T15:09:51.000Z</time>
      </trkpt>
      <trkpt lat="43.49116" lon="6.1269">
        <ele>182.3</ele>
        <time>2024-11-27T15:10:01.000Z</time>
      </trkpt>
      <trkpt lat="43.49116" lon="6.1269">
        <ele>182.3</ele>
        <time>2024-11-27T15:10:02.000Z</time>
      </trkpt>
      <trkpt lat="43.49116" lon="6.1269">
        <ele>182.3</ele>
        <time>2024-11-27T15:10:03.000Z</time>
      </trkpt>
      <trkpt lat="43.49115" lon="6.1269">
        <ele>182.3</ele>
        <time>2024-11-27T15:10:04.000Z</time>
      </trkpt>
      <trkpt lat="43.49115" lon="6.1269">
        <ele>182.3</ele>
        <time>2024-11-27T15:10:05.000Z</time>
      </trkpt>
      <trkpt lat="43.49115" lon="6.1269">
        <ele>182.3</ele>
        <time>2024-11-27T15:10:06.000Z</time>
      </trkpt>
      <trkpt lat="43.49115" lon="6.1269">
        <ele>182.3</ele>
        <time>2024-11-27T15:10:07.000Z</time>
      </trkpt>
      <trkpt lat="43.49115" lon="6.12691">
        <ele>182.3</ele>
        <time>2024-11-27T15:10:15.000Z</time>
      </trkpt>
      <trkpt lat="43.49115" lon="6.12691">
        <ele>182.3</ele>
        <time>2024-11-27T15:10:16.000Z</time>
      </trkpt>
      <trkpt lat="43.49115" lon="6.12691">
        <ele>182.3</ele>
        <time>2024-11-27T15:10:17.000Z</time>
      </trkpt>
      <trkpt lat="43.49115" lon="6.12691">
        <ele>182.3</ele>
        <time>2024-11-27T15:10:18.000Z</time>
      </trkpt>
      <trkpt lat="43.49115" lon="6.12691">
        <ele>182.3</ele>
        <time>2024-11-27T15:10:19.000Z</time>
      </trkpt>
      <trkpt lat="43.49114" lon="6.12692">
        <ele>182.3</ele>
        <time>2024-11-27T15:10:28.000Z</time>
      </trkpt>
      <trkpt lat="43.49114" lon="6.12692">
        <ele>182.3</ele>
        <time>2024-11-27T15:10:29.000Z</time>
      </trkpt>
      <trkpt lat="43.49114" lon="6.12692">
        <ele>182.3</ele>
        <time>2024-11-27T15:10:30.000Z</time>
      </trkpt>
      <trkpt lat="43.49114" lon="6.12692">
        <ele>182.3</ele>
        <time>2024-11-27T15:10:31.000Z</time>
      </trkpt>
      <trkpt lat="43.49114" lon="6.12692">
        <ele>182.3</ele>
        <time>2024-11-27T15:10:32.000Z</time>
      </trkpt>
      <trkpt lat="43.49114" lon="6.12692">
        <ele>182.3</ele>
        <time>2024-11-27T15:10:37.000Z</time>
      </trkpt>
      <trkpt lat="43.49114" lon="6.12692">
        <ele>182.3</ele>
        <time>2024-11-27T15:10:38.000Z</time>
      </trkpt>
      <trkpt lat="43.49114" lon="6.12692">
        <ele>182.3</ele>
        <time>2024-11-27T15:10:39.000Z</time>
      </trkpt>
      <trkpt lat="43.49114" lon="6.12692">
        <ele>182.3</ele>
        <time>2024-11-27T15:10:40.000Z</time>
      </trkpt>
      <trkpt lat="43.49114" lon="6.12692">
        <ele>182.3</ele>
        <time>2024-11-27T15:10:41.000Z</time>
      </trkpt>
      <trkpt lat="43.49113" lon="6.12692">
        <ele>182.3</ele>
        <time>2024-11-27T15:10:45.000Z</time>
      </trkpt>
      <trkpt lat="43.49113" lon="6.12693">
        <ele>182.3</ele>
        <time>2024-11-27T15:10:46.000Z</time>
      </trkpt>
      <trkpt lat="43.49112" lon="6.12694">
        <ele>182.3</ele>
        <time>2024-11-27T15:10:47.000Z</time>
      </trkpt>
      <trkpt lat="43.49105" lon="6.12703">
        <ele>182.1</ele>
        <time>2024-11-27T15:10:56.000Z</time>
      </trkpt>
      <trkpt lat="43.49098" lon="6.12713">
        <ele>181.5</ele>
        <time>2024-11-27T15:11:04.000Z</time>
      </trkpt>
      <trkpt lat="43.49092" lon="6.12723">
        <ele>180</ele>
        <time>2024-11-27T15:11:12.000Z</time>
      </trkpt>
      <trkpt lat="43.49085" lon="6.12731">
        <ele>178.7</ele>
        <time>2024-11-27T15:11:21.000Z</time>
      </trkpt>
      <trkpt lat="43.4908" lon="6.12741">
        <ele>178</ele>
        <time>2024-11-27T15:11:28.000Z</time>
      </trkpt>
      <trkpt lat="43.49073" lon="6.12751">
        <ele>177.6</ele>
        <time>2024-11-27T15:11:37.000Z</time>
      </trkpt>
      <trkpt lat="43.49067" lon="6.12761">
        <ele>177.2</ele>
        <time>2024-11-27T15:11:45.000Z</time>
      </trkpt>
      <trkpt lat="43.49061" lon="6.12771">
        <ele>176.8</ele>
        <time>2024-11-27T15:11:53.000Z</time>
      </trkpt>
      <trkpt lat="43.49055" lon="6.12781">
        <ele>176.6</ele>
        <time>2024-11-27T15:12:01.000Z</time>
      </trkpt>
      <trkpt lat="43.49048" lon="6.12789">
        <ele>176.5</ele>
        <time>2024-11-27T15:12:09.000Z</time>
      </trkpt>
      <trkpt lat="43.49045" lon="6.12799">
        <ele>176.3</ele>
        <time>2024-11-27T15:12:20.000Z</time>
      </trkpt>
      <trkpt lat="43.49045" lon="6.12799">
        <ele>176.3</ele>
        <time>2024-11-27T15:12:21.000Z</time>
      </trkpt>
      <trkpt lat="43.49045" lon="6.12799">
        <ele>176.3</ele>
        <time>2024-11-27T15:12:25.000Z</time>
      </trkpt>
      <trkpt lat="43.49045" lon="6.128">
        <ele>176.3</ele>
        <time>2024-11-27T15:12:26.000Z</time>
      </trkpt>
      <trkpt lat="43.49045" lon="6.128">
        <ele>176.2</ele>
        <time>2024-11-27T15:12:27.000Z</time>
      </trkpt>
      <trkpt lat="43.49045" lon="6.128">
        <ele>176.2</ele>
        <time>2024-11-27T15:12:28.000Z</time>
      </trkpt>
      <trkpt lat="43.49045" lon="6.128">
        <ele>176.2</ele>
        <time>2024-11-27T15:12:29.000Z</time>
      </trkpt>
      <trkpt lat="43.49046" lon="6.128">
        <ele>176.2</ele>
        <time>2024-11-27T15:12:30.000Z</time>
      </trkpt>
      <trkpt lat="43.49046" lon="6.12802">
        <ele>176.2</ele>
        <time>2024-11-27T15:12:31.000Z</time>
      </trkpt>
      <trkpt lat="43.49048" lon="6.12815">
        <ele>176.2</ele>
        <time>2024-11-27T15:12:40.000Z</time>
      </trkpt>
      <trkpt lat="43.49048" lon="6.12827">
        <ele>176.2</ele>
        <time>2024-11-27T15:12:47.000Z</time>
      </trkpt>
      <trkpt lat="43.49046" lon="6.12841">
        <ele>176.1</ele>
        <time>2024-11-27T15:12:56.000Z</time>
      </trkpt>
      <trkpt lat="43.49043" lon="6.12854">
        <ele>176</ele>
        <time>2024-11-27T15:13:04.000Z</time>
      </trkpt>
      <trkpt lat="43.49038" lon="6.12866">
        <ele>175.8</ele>
        <time>2024-11-27T15:13:12.000Z</time>
      </trkpt>
      <trkpt lat="43.49032" lon="6.12876">
        <ele>175.6</ele>
        <time>2024-11-27T15:13:19.000Z</time>
      </trkpt>
      <trkpt lat="43.49025" lon="6.12886">
        <ele>175.3</ele>
        <time>2024-11-27T15:13:27.000Z</time>
      </trkpt>
      <trkpt lat="43.4902" lon="6.12897">
        <ele>175</ele>
        <time>2024-11-27T15:13:35.000Z</time>
      </trkpt>
      <trkpt lat="43.49014" lon="6.12907">
        <ele>174.7</ele>
        <time>2024-11-27T15:13:43.000Z</time>
      </trkpt>
      <trkpt lat="43.49008" lon="6.12919">
        <ele>174.4</ele>
        <time>2024-11-27T15:13:50.000Z</time>
      </trkpt>
      <trkpt lat="43.49003" lon="6.12931">
        <ele>174.3</ele>
        <time>2024-11-27T15:13:58.000Z</time>
      </trkpt>
      <trkpt lat="43.48997" lon="6.12942">
        <ele>174.1</ele>
        <time>2024-11-27T15:14:05.000Z</time>
      </trkpt>
      <trkpt lat="43.48992" lon="6.12952">
        <ele>173.7</ele>
        <time>2024-11-27T15:14:16.000Z</time>
      </trkpt>
      <trkpt lat="43.48986" lon="6.12963">
        <ele>172.9</ele>
        <time>2024-11-27T15:14:25.000Z</time>
      </trkpt>
      <trkpt lat="43.4898" lon="6.12972">
        <ele>172.2</ele>
        <time>2024-11-27T15:14:39.000Z</time>
      </trkpt>
      <trkpt lat="43.48974" lon="6.12983">
        <ele>171.8</ele>
        <time>2024-11-27T15:14:47.000Z</time>
      </trkpt>
      <trkpt lat="43.48967" lon="6.12992">
        <ele>171.3</ele>
        <time>2024-11-27T15:14:55.000Z</time>
      </trkpt>
      <trkpt lat="43.48961" lon="6.13002">
        <ele>171</ele>
        <time>2024-11-27T15:15:02.000Z</time>
      </trkpt>
      <trkpt lat="43.48956" lon="6.13013">
        <ele>170.5</ele>
        <time>2024-11-27T15:15:09.000Z</time>
      </trkpt>
      <trkpt lat="43.48951" lon="6.13023">
        <ele>170.2</ele>
        <time>2024-11-27T15:15:16.000Z</time>
      </trkpt>
      <trkpt lat="43.48946" lon="6.13035">
        <ele>169.6</ele>
        <time>2024-11-27T15:15:24.000Z</time>
      </trkpt>
      <trkpt lat="43.48941" lon="6.13046">
        <ele>169.2</ele>
        <time>2024-11-27T15:15:31.000Z</time>
      </trkpt>
      <trkpt lat="43.48935" lon="6.13055">
        <ele>168.5</ele>
        <time>2024-11-27T15:15:39.000Z</time>
      </trkpt>
      <trkpt lat="43.48929" lon="6.13066">
        <ele>167.8</ele>
        <time>2024-11-27T15:15:47.000Z</time>
      </trkpt>
      <trkpt lat="43.48923" lon="6.13075">
        <ele>167</ele>
        <time>2024-11-27T15:15:55.000Z</time>
      </trkpt>
      <trkpt lat="43.48917" lon="6.13086">
        <ele>166.5</ele>
        <time>2024-11-27T15:16:04.000Z</time>
      </trkpt>
      <trkpt lat="43.48912" lon="6.13097">
        <ele>165.8</ele>
        <time>2024-11-27T15:16:14.000Z</time>
      </trkpt>
      <trkpt lat="43.48906" lon="6.13107">
        <ele>165.3</ele>
        <time>2024-11-27T15:16:22.000Z</time>
      </trkpt>
      <trkpt lat="43.489" lon="6.13118">
        <ele>164.8</ele>
        <time>2024-11-27T15:16:30.000Z</time>
      </trkpt>
      <trkpt lat="43.48894" lon="6.13129">
        <ele>164.4</ele>
        <time>2024-11-27T15:16:38.000Z</time>
      </trkpt>
      <trkpt lat="43.48889" lon="6.1314">
        <ele>163.9</ele>
        <time>2024-11-27T15:16:46.000Z</time>
      </trkpt>
      <trkpt lat="43.48884" lon="6.13152">
        <ele>163.4</ele>
        <time>2024-11-27T15:16:55.000Z</time>
      </trkpt>
      <trkpt lat="43.48878" lon="6.13162">
        <ele>162.9</ele>
        <time>2024-11-27T15:17:03.000Z</time>
      </trkpt>
      <trkpt lat="43.48872" lon="6.13172">
        <ele>162.5</ele>
        <time>2024-11-27T15:17:11.000Z</time>
      </trkpt>
      <trkpt lat="43.48866" lon="6.13183">
        <ele>162.2</ele>
        <time>2024-11-27T15:17:19.000Z</time>
      </trkpt>
      <trkpt lat="43.48859" lon="6.13192">
        <ele>162</ele>
        <time>2024-11-27T15:17:27.000Z</time>
      </trkpt>
      <trkpt lat="43.48853" lon="6.13203">
        <ele>161.8</ele>
        <time>2024-11-27T15:17:35.000Z</time>
      </trkpt>
      <trkpt lat="43.48848" lon="6.13214">
        <ele>161.5</ele>
        <time>2024-11-27T15:17:43.000Z</time>
      </trkpt>
      <trkpt lat="43.48842" lon="6.13222">
        <ele>161.3</ele>
        <time>2024-11-27T15:17:51.000Z</time>
      </trkpt>
      <trkpt lat="43.48836" lon="6.13233">
        <ele>161</ele>
        <time>2024-11-27T15:17:59.000Z</time>
      </trkpt>
      <trkpt lat="43.4883" lon="6.13244">
        <ele>160.9</ele>
        <time>2024-11-27T15:18:06.000Z</time>
      </trkpt>
      <trkpt lat="43.48824" lon="6.13254">
        <ele>160.7</ele>
        <time>2024-11-27T15:18:13.000Z</time>
      </trkpt>
      <trkpt lat="43.48817" lon="6.13264">
        <ele>160.5</ele>
        <time>2024-11-27T15:18:21.000Z</time>
      </trkpt>
      <trkpt lat="43.48811" lon="6.13274">
        <ele>160.2</ele>
        <time>2024-11-27T15:18:29.000Z</time>
      </trkpt>
      <trkpt lat="43.48805" lon="6.13285">
        <ele>160</ele>
        <time>2024-11-27T15:18:37.000Z</time>
      </trkpt>
      <trkpt lat="43.48799" lon="6.13295">
        <ele>159.7</ele>
        <time>2024-11-27T15:18:45.000Z</time>
      </trkpt>
      <trkpt lat="43.48793" lon="6.13305">
        <ele>159.4</ele>
        <time>2024-11-27T15:18:53.000Z</time>
      </trkpt>
      <trkpt lat="43.48786" lon="6.13314">
        <ele>159.3</ele>
        <time>2024-11-27T15:19:00.000Z</time>
      </trkpt>
      <trkpt lat="43.48779" lon="6.13323">
        <ele>159.1</ele>
        <time>2024-11-27T15:19:08.000Z</time>
      </trkpt>
      <trkpt lat="43.4877" lon="6.13329">
        <ele>158.9</ele>
        <time>2024-11-27T15:19:16.000Z</time>
      </trkpt>
      <trkpt lat="43.48761" lon="6.13334">
        <ele>158.7</ele>
        <time>2024-11-27T15:19:23.000Z</time>
      </trkpt>
      <trkpt lat="43.48753" lon="6.1334">
        <ele>158.5</ele>
        <time>2024-11-27T15:19:30.000Z</time>
      </trkpt>
      <trkpt lat="43.48744" lon="6.13343">
        <ele>158.3</ele>
        <time>2024-11-27T15:19:37.000Z</time>
      </trkpt>
      <trkpt lat="43.48736" lon="6.13349">
        <ele>158</ele>
        <time>2024-11-27T15:19:44.000Z</time>
      </trkpt>
      <trkpt lat="43.48727" lon="6.13352">
        <ele>157.8</ele>
        <time>2024-11-27T15:19:52.000Z</time>
      </trkpt>
      <trkpt lat="43.48718" lon="6.13355">
        <ele>157.5</ele>
        <time>2024-11-27T15:20:00.000Z</time>
      </trkpt>
      <trkpt lat="43.48708" lon="6.13359">
        <ele>157.2</ele>
        <time>2024-11-27T15:20:08.000Z</time>
      </trkpt>
      <trkpt lat="43.48699" lon="6.13364">
        <ele>156.9</ele>
        <time>2024-11-27T15:20:17.000Z</time>
      </trkpt>
      <trkpt lat="43.4869" lon="6.13368">
        <ele>156.5</ele>
        <time>2024-11-27T15:20:25.000Z</time>
      </trkpt>
      <trkpt lat="43.48681" lon="6.13373">
        <ele>156.1</ele>
        <time>2024-11-27T15:20:33.000Z</time>
      </trkpt>
      <trkpt lat="43.48672" lon="6.13374">
        <ele>155.7</ele>
        <time>2024-11-27T15:20:45.000Z</time>
      </trkpt>
      <trkpt lat="43.48672" lon="6.13374">
        <ele>155.6</ele>
        <time>2024-11-27T15:20:48.000Z</time>
      </trkpt>
      <trkpt lat="43.48672" lon="6.13374">
        <ele>155.6</ele>
        <time>2024-11-27T15:20:49.000Z</time>
      </trkpt>
      <trkpt lat="43.48672" lon="6.13374">
        <ele>155.6</ele>
        <time>2024-11-27T15:20:50.000Z</time>
      </trkpt>
      <trkpt lat="43.48672" lon="6.13374">
        <ele>155.6</ele>
        <time>2024-11-27T15:20:51.000Z</time>
      </trkpt>
      <trkpt lat="43.48672" lon="6.13374">
        <ele>155.6</ele>
        <time>2024-11-27T15:20:52.000Z</time>
      </trkpt>
      <trkpt lat="43.48672" lon="6.13374">
        <ele>155.5</ele>
        <time>2024-11-27T15:20:53.000Z</time>
      </trkpt>
      <trkpt lat="43.48672" lon="6.13374">
        <ele>155.5</ele>
        <time>2024-11-27T15:20:54.000Z</time>
      </trkpt>
      <trkpt lat="43.48672" lon="6.13374">
        <ele>155.5</ele>
        <time>2024-11-27T15:20:55.000Z</time>
      </trkpt>
      <trkpt lat="43.48671" lon="6.13373">
        <ele>155.4</ele>
        <time>2024-11-27T15:21:00.000Z</time>
      </trkpt>
      <trkpt lat="43.48671" lon="6.13374">
        <ele>155.4</ele>
        <time>2024-11-27T15:21:01.000Z</time>
      </trkpt>
      <trkpt lat="43.48671" lon="6.13376">
        <ele>155.4</ele>
        <time>2024-11-27T15:21:05.000Z</time>
      </trkpt>
      <trkpt lat="43.48671" lon="6.13376">
        <ele>155.4</ele>
        <time>2024-11-27T15:21:06.000Z</time>
      </trkpt>
      <trkpt lat="43.48671" lon="6.13376">
        <ele>155.4</ele>
        <time>2024-11-27T15:21:07.000Z</time>
      </trkpt>
      <trkpt lat="43.48672" lon="6.13377">
        <ele>155.4</ele>
        <time>2024-11-27T15:21:20.000Z</time>
      </trkpt>
      <trkpt lat="43.48672" lon="6.13377">
        <ele>155.4</ele>
        <time>2024-11-27T15:21:21.000Z</time>
      </trkpt>
      <trkpt lat="43.48672" lon="6.13377">
        <ele>155.4</ele>
        <time>2024-11-27T15:21:22.000Z</time>
      </trkpt>
      <trkpt lat="43.48672" lon="6.13377">
        <ele>155.4</ele>
        <time>2024-11-27T15:21:23.000Z</time>
      </trkpt>
      <trkpt lat="43.48672" lon="6.13377">
        <ele>155.4</ele>
        <time>2024-11-27T15:21:24.000Z</time>
      </trkpt>
      <trkpt lat="43.48672" lon="6.13377">
        <ele>155.4</ele>
        <time>2024-11-27T15:21:30.000Z</time>
      </trkpt>
      <trkpt lat="43.48672" lon="6.13377">
        <ele>155.4</ele>
        <time>2024-11-27T15:21:31.000Z</time>
      </trkpt>
      <trkpt lat="43.48672" lon="6.13377">
        <ele>155.4</ele>
        <time>2024-11-27T15:21:32.000Z</time>
      </trkpt>
      <trkpt lat="43.48672" lon="6.13377">
        <ele>155.4</ele>
        <time>2024-11-27T15:21:33.000Z</time>
      </trkpt>
      <trkpt lat="43.48672" lon="6.13377">
        <ele>155.4</ele>
        <time>2024-11-27T15:21:34.000Z</time>
      </trkpt>
      <trkpt lat="43.48672" lon="6.13377">
        <ele>155.3</ele>
        <time>2024-11-27T15:21:35.000Z</time>
      </trkpt>
      <trkpt lat="43.48672" lon="6.13375">
        <ele>155.4</ele>
        <time>2024-11-27T15:21:40.000Z</time>
      </trkpt>
      <trkpt lat="43.48672" lon="6.13374">
        <ele>155.4</ele>
        <time>2024-11-27T15:21:41.000Z</time>
      </trkpt>
      <trkpt lat="43.48677" lon="6.13363">
        <ele>155.4</ele>
        <time>2024-11-27T15:21:49.000Z</time>
      </trkpt>
      <trkpt lat="43.48685" lon="6.13355">
        <ele>155.4</ele>
        <time>2024-11-27T15:21:57.000Z</time>
      </trkpt>
      <trkpt lat="43.48692" lon="6.13346">
        <ele>155.4</ele>
        <time>2024-11-27T15:22:05.000Z</time>
      </trkpt>
      <trkpt lat="43.48698" lon="6.13337">
        <ele>155.4</ele>
        <time>2024-11-27T15:22:13.000Z</time>
      </trkpt>
      <trkpt lat="43.48702" lon="6.13325">
        <ele>155.5</ele>
        <time>2024-11-27T15:22:21.000Z</time>
      </trkpt>
      <trkpt lat="43.48705" lon="6.13312">
        <ele>155.7</ele>
        <time>2024-11-27T15:22:29.000Z</time>
      </trkpt>
      <trkpt lat="43.48706" lon="6.13299">
        <ele>156.2</ele>
        <time>2024-11-27T15:22:37.000Z</time>
      </trkpt>
      <trkpt lat="43.48704" lon="6.13285">
        <ele>156.6</ele>
        <time>2024-11-27T15:22:45.000Z</time>
      </trkpt>
      <trkpt lat="43.48704" lon="6.13272">
        <ele>157.1</ele>
        <time>2024-11-27T15:22:53.000Z</time>
      </trkpt>
      <trkpt lat="43.48705" lon="6.13258">
        <ele>157.4</ele>
        <time>2024-11-27T15:23:01.000Z</time>
      </trkpt>
      <trkpt lat="43.48708" lon="6.13246">
        <ele>157.7</ele>
        <time>2024-11-27T15:23:09.000Z</time>
      </trkpt>
      <trkpt lat="43.4871" lon="6.13234">
        <ele>157.9</ele>
        <time>2024-11-27T15:23:17.000Z</time>
      </trkpt>
      <trkpt lat="43.48712" lon="6.1322">
        <ele>158.3</ele>
        <time>2024-11-27T15:23:26.000Z</time>
      </trkpt>
      <trkpt lat="43.48716" lon="6.13209">
        <ele>158.9</ele>
        <time>2024-11-27T15:23:35.000Z</time>
      </trkpt>
      <trkpt lat="43.4872" lon="6.13197">
        <ele>159.5</ele>
        <time>2024-11-27T15:23:43.000Z</time>
      </trkpt>
      <trkpt lat="43.48724" lon="6.13184">
        <ele>160.2</ele>
        <time>2024-11-27T15:23:52.000Z</time>
      </trkpt>
      <trkpt lat="43.48727" lon="6.13173">
        <ele>160.6</ele>
        <time>2024-11-27T15:24:00.000Z</time>
      </trkpt>
      <trkpt lat="43.48729" lon="6.1316">
        <ele>161.2</ele>
        <time>2024-11-27T15:24:09.000Z</time>
      </trkpt>
      <trkpt lat="43.48733" lon="6.13148">
        <ele>161.9</ele>
        <time>2024-11-27T15:24:17.000Z</time>
      </trkpt>
      <trkpt lat="43.48735" lon="6.13135">
        <ele>162.7</ele>
        <time>2024-11-27T15:24:26.000Z</time>
      </trkpt>
      <trkpt lat="43.48737" lon="6.13123">
        <ele>163.4</ele>
        <time>2024-11-27T15:24:34.000Z</time>
      </trkpt>
      <trkpt lat="43.48736" lon="6.13109">
        <ele>163.9</ele>
        <time>2024-11-27T15:24:42.000Z</time>
      </trkpt>
      <trkpt lat="43.48732" lon="6.13097">
        <ele>164.5</ele>
        <time>2024-11-27T15:24:50.000Z</time>
      </trkpt>
      <trkpt lat="43.48727" lon="6.13071">
        <ele>175</ele>
        <time>2024-11-27T15:25:31.032Z</time>
      </trkpt>
      <trkpt lat="43.48745" lon="6.1305">
        <ele>175</ele>
        <time>2024-11-27T15:26:15.561Z</time>
      </trkpt>
      <trkpt lat="43.48759" lon="6.13034">
        <ele>175</ele>
        <time>2024-11-27T15:26:49.782Z</time>
      </trkpt>
      <trkpt lat="43.48773" lon="6.13013">
        <ele>175</ele>
        <time>2024-11-27T15:27:27.519Z</time>
      </trkpt>
      <trkpt lat="43.48763" lon="6.12982">
        <ele>177</ele>
        <time>2024-11-27T15:28:13.338Z</time>
      </trkpt>
      <trkpt lat="43.48742" lon="6.12939">
        <ele>180</ele>
        <time>2024-11-27T15:29:24.871Z</time>
      </trkpt>
      <trkpt lat="43.48721" lon="6.12897">
        <ele>185.3</ele>
        <time>2024-11-27T15:30:33.275Z</time>
      </trkpt>
      <trkpt lat="43.48707" lon="6.12913">
        <ele>184.7</ele>
        <time>2024-11-27T15:31:07.535Z</time>
      </trkpt>
      <trkpt lat="43.48679" lon="6.12944">
        <ele>184.6</ele>
        <time>2024-11-27T15:32:14.933Z</time>
      </trkpt>
      <trkpt lat="43.4865" lon="6.12972">
        <ele>185</ele>
        <time>2024-11-27T15:33:21.541Z</time>
      </trkpt>
      <trkpt lat="43.48621" lon="6.12996">
        <ele>175.7</ele>
        <time>2024-11-27T15:34:26.000Z</time>
      </trkpt>
      <trkpt lat="43.48613" lon="6.13002">
        <ele>175.9</ele>
        <time>2024-11-27T15:34:34.000Z</time>
      </trkpt>
      <trkpt lat="43.48604" lon="6.13008">
        <ele>176</ele>
        <time>2024-11-27T15:34:42.000Z</time>
      </trkpt>
      <trkpt lat="43.48595" lon="6.13013">
        <ele>175.9</ele>
        <time>2024-11-27T15:34:49.000Z</time>
      </trkpt>
      <trkpt lat="43.48587" lon="6.13019">
        <ele>175.9</ele>
        <time>2024-11-27T15:34:57.000Z</time>
      </trkpt>
      <trkpt lat="43.48578" lon="6.13025">
        <ele>175.8</ele>
        <time>2024-11-27T15:35:04.000Z</time>
      </trkpt>
      <trkpt lat="43.48569" lon="6.13032">
        <ele>175.9</ele>
        <time>2024-11-27T15:35:12.000Z</time>
      </trkpt>
      <trkpt lat="43.48561" lon="6.13036">
        <ele>175.9</ele>
        <time>2024-11-27T15:35:19.000Z</time>
      </trkpt>
      <trkpt lat="43.48552" lon="6.13041">
        <ele>175.9</ele>
        <time>2024-11-27T15:35:26.000Z</time>
      </trkpt>
      <trkpt lat="43.48544" lon="6.13047">
        <ele>176</ele>
        <time>2024-11-27T15:35:35.000Z</time>
      </trkpt>
      <trkpt lat="43.48535" lon="6.13054">
        <ele>176.1</ele>
        <time>2024-11-27T15:35:42.000Z</time>
      </trkpt>
      <trkpt lat="43.48526" lon="6.1306">
        <ele>176.3</ele>
        <time>2024-11-27T15:35:50.000Z</time>
      </trkpt>
      <trkpt lat="43.48518" lon="6.13065">
        <ele>176.6</ele>
        <time>2024-11-27T15:35:58.000Z</time>
      </trkpt>
      <trkpt lat="43.4851" lon="6.13073">
        <ele>177.2</ele>
        <time>2024-11-27T15:36:06.000Z</time>
      </trkpt>
      <trkpt lat="43.48502" lon="6.13079">
        <ele>178.5</ele>
        <time>2024-11-27T15:36:15.000Z</time>
      </trkpt>
      <trkpt lat="43.48494" lon="6.13086">
        <ele>180</ele>
        <time>2024-11-27T15:36:24.000Z</time>
      </trkpt>
      <trkpt lat="43.4849" lon="6.13098">
        <ele>181.2</ele>
        <time>2024-11-27T15:36:32.000Z</time>
      </trkpt>
      <trkpt lat="43.48486" lon="6.13109">
        <ele>181.9</ele>
        <time>2024-11-27T15:36:40.000Z</time>
      </trkpt>
      <trkpt lat="43.4848" lon="6.13121">
        <ele>182.8</ele>
        <time>2024-11-27T15:36:49.000Z</time>
      </trkpt>
      <trkpt lat="43.48474" lon="6.13131">
        <ele>184.3</ele>
        <time>2024-11-27T15:36:59.000Z</time>
      </trkpt>
      <trkpt lat="43.48467" lon="6.1314">
        <ele>186.2</ele>
        <time>2024-11-27T15:37:11.000Z</time>
      </trkpt>
      <trkpt lat="43.48461" lon="6.1315">
        <ele>187.5</ele>
        <time>2024-11-27T15:37:20.000Z</time>
      </trkpt>
      <trkpt lat="43.48453" lon="6.13157">
        <ele>188.6</ele>
        <time>2024-11-27T15:37:30.000Z</time>
      </trkpt>
      <trkpt lat="43.48444" lon="6.13161">
        <ele>189.8</ele>
        <time>2024-11-27T15:37:38.000Z</time>
      </trkpt>
      <trkpt lat="43.48434" lon="6.13161">
        <ele>190.5</ele>
        <time>2024-11-27T15:37:46.000Z</time>
      </trkpt>
      <trkpt lat="43.48425" lon="6.13164">
        <ele>190.6</ele>
        <time>2024-11-27T15:37:54.000Z</time>
      </trkpt>
      <trkpt lat="43.48415" lon="6.13166">
        <ele>190.6</ele>
        <time>2024-11-27T15:38:03.000Z</time>
      </trkpt>
      <trkpt lat="43.48406" lon="6.13171">
        <ele>190.6</ele>
        <time>2024-11-27T15:38:12.000Z</time>
      </trkpt>
      <trkpt lat="43.48396" lon="6.13174">
        <ele>190.4</ele>
        <time>2024-11-27T15:38:19.000Z</time>
      </trkpt>
      <trkpt lat="43.48386" lon="6.13175">
        <ele>190.3</ele>
        <time>2024-11-27T15:38:25.000Z</time>
      </trkpt>
      <trkpt lat="43.48376" lon="6.13174">
        <ele>190.2</ele>
        <time>2024-11-27T15:38:34.000Z</time>
      </trkpt>
      <trkpt lat="43.48369" lon="6.13166">
        <ele>190.3</ele>
        <time>2024-11-27T15:38:47.000Z</time>
      </trkpt>
      <trkpt lat="43.48362" lon="6.13158">
        <ele>190.9</ele>
        <time>2024-11-27T15:38:56.000Z</time>
      </trkpt>
      <trkpt lat="43.48354" lon="6.1315">
        <ele>192.5</ele>
        <time>2024-11-27T15:39:06.000Z</time>
      </trkpt>
      <trkpt lat="43.48345" lon="6.13147">
        <ele>193.1</ele>
        <time>2024-11-27T15:39:13.000Z</time>
      </trkpt>
      <trkpt lat="43.48335" lon="6.13144">
        <ele>193.2</ele>
        <time>2024-11-27T15:39:20.000Z</time>
      </trkpt>
      <trkpt lat="43.48326" lon="6.13139">
        <ele>193.1</ele>
        <time>2024-11-27T15:39:27.000Z</time>
      </trkpt>
      <trkpt lat="43.48316" lon="6.13137">
        <ele>192.7</ele>
        <time>2024-11-27T15:39:35.000Z</time>
      </trkpt>
      <trkpt lat="43.48307" lon="6.13136">
        <ele>191.5</ele>
        <time>2024-11-27T15:39:43.000Z</time>
      </trkpt>
      <trkpt lat="43.48297" lon="6.13139">
        <ele>189.3</ele>
        <time>2024-11-27T15:39:55.000Z</time>
      </trkpt>
      <trkpt lat="43.48287" lon="6.13137">
        <ele>188</ele>
        <time>2024-11-27T15:40:01.000Z</time>
      </trkpt>
      <trkpt lat="43.48277" lon="6.13141">
        <ele>186.1</ele>
        <time>2024-11-27T15:40:12.000Z</time>
      </trkpt>
      <trkpt lat="43.48269" lon="6.13133">
        <ele>185.6</ele>
        <time>2024-11-27T15:40:18.000Z</time>
      </trkpt>
      <trkpt lat="43.48263" lon="6.13123">
        <ele>185</ele>
        <time>2024-11-27T15:40:28.000Z</time>
      </trkpt>
      <trkpt lat="43.48255" lon="6.13113">
        <ele>184.6</ele>
        <time>2024-11-27T15:40:35.000Z</time>
      </trkpt>
      <trkpt lat="43.48248" lon="6.13103">
        <ele>184.2</ele>
        <time>2024-11-27T15:40:42.000Z</time>
      </trkpt>
      <trkpt lat="43.4824" lon="6.13096">
        <ele>183.9</ele>
        <time>2024-11-27T15:40:49.000Z</time>
      </trkpt>
      <trkpt lat="43.48236" lon="6.13083">
        <ele>183.6</ele>
        <time>2024-11-27T15:40:57.000Z</time>
      </trkpt>
      <trkpt lat="43.48231" lon="6.13072">
        <ele>183.4</ele>
        <time>2024-11-27T15:41:05.000Z</time>
      </trkpt>
      <trkpt lat="43.48224" lon="6.13062">
        <ele>183.3</ele>
        <time>2024-11-27T15:41:13.000Z</time>
      </trkpt>
      <trkpt lat="43.48219" lon="6.13051">
        <ele>183.2</ele>
        <time>2024-11-27T15:41:21.000Z</time>
      </trkpt>
      <trkpt lat="43.48217" lon="6.13038">
        <ele>183.1</ele>
        <time>2024-11-27T15:41:29.000Z</time>
      </trkpt>
      <trkpt lat="43.4821" lon="6.13027">
        <ele>183</ele>
        <time>2024-11-27T15:41:37.000Z</time>
      </trkpt>
      <trkpt lat="43.48205" lon="6.13015">
        <ele>182.9</ele>
        <time>2024-11-27T15:41:46.000Z</time>
      </trkpt>
      <trkpt lat="43.48202" lon="6.13002">
        <ele>182.9</ele>
        <time>2024-11-27T15:41:54.000Z</time>
      </trkpt>
      <trkpt lat="43.48198" lon="6.1299">
        <ele>182.9</ele>
        <time>2024-11-27T15:42:01.000Z</time>
      </trkpt>
      <trkpt lat="43.48194" lon="6.12979">
        <ele>182.9</ele>
        <time>2024-11-27T15:42:08.000Z</time>
      </trkpt>
      <trkpt lat="43.48188" lon="6.12969">
        <ele>182.9</ele>
        <time>2024-11-27T15:42:17.000Z</time>
      </trkpt>
      <trkpt lat="43.48181" lon="6.1296">
        <ele>182.7</ele>
        <time>2024-11-27T15:42:25.000Z</time>
      </trkpt>
      <trkpt lat="43.48175" lon="6.1295">
        <ele>182.4</ele>
        <time>2024-11-27T15:42:33.000Z</time>
      </trkpt>
      <trkpt lat="43.48168" lon="6.1294">
        <ele>181.9</ele>
        <time>2024-11-27T15:42:41.000Z</time>
      </trkpt>
      <trkpt lat="43.48161" lon="6.1293">
        <ele>181.5</ele>
        <time>2024-11-27T15:42:50.000Z</time>
      </trkpt>
      <trkpt lat="43.48154" lon="6.12922">
        <ele>181.2</ele>
        <time>2024-11-27T15:42:57.000Z</time>
      </trkpt>
      <trkpt lat="43.48148" lon="6.12912">
        <ele>180.8</ele>
        <time>2024-11-27T15:43:05.000Z</time>
      </trkpt>
      <trkpt lat="43.48141" lon="6.12902">
        <ele>180.5</ele>
        <time>2024-11-27T15:43:13.000Z</time>
      </trkpt>
      <trkpt lat="43.48134" lon="6.12892">
        <ele>180.1</ele>
        <time>2024-11-27T15:43:22.000Z</time>
      </trkpt>
      <trkpt lat="43.48126" lon="6.12884">
        <ele>179.6</ele>
        <time>2024-11-27T15:43:31.000Z</time>
      </trkpt>
      <trkpt lat="43.48118" lon="6.12876">
        <ele>179.1</ele>
        <time>2024-11-27T15:43:39.000Z</time>
      </trkpt>
      <trkpt lat="43.48113" lon="6.12864">
        <ele>178.8</ele>
        <time>2024-11-27T15:43:47.000Z</time>
      </trkpt>
      <trkpt lat="43.48109" lon="6.12852">
        <ele>178.6</ele>
        <time>2024-11-27T15:43:55.000Z</time>
      </trkpt>
      <trkpt lat="43.48105" lon="6.12841">
        <ele>178.6</ele>
        <time>2024-11-27T15:44:02.000Z</time>
      </trkpt>
      <trkpt lat="43.48098" lon="6.12831">
        <ele>178.6</ele>
        <time>2024-11-27T15:44:09.000Z</time>
      </trkpt>
      <trkpt lat="43.4809" lon="6.12823">
        <ele>178.8</ele>
        <time>2024-11-27T15:44:16.000Z</time>
      </trkpt>
      <trkpt lat="43.48081" lon="6.12818">
        <ele>179.2</ele>
        <time>2024-11-27T15:44:24.000Z</time>
      </trkpt>
      <trkpt lat="43.48073" lon="6.12812">
        <ele>180.3</ele>
        <time>2024-11-27T15:44:33.000Z</time>
      </trkpt>
      <trkpt lat="43.48065" lon="6.12805">
        <ele>181.4</ele>
        <time>2024-11-27T15:44:42.000Z</time>
      </trkpt>
      <trkpt lat="43.48057" lon="6.12798">
        <ele>182.4</ele>
        <time>2024-11-27T15:44:50.000Z</time>
      </trkpt>
      <trkpt lat="43.48048" lon="6.1279">
        <ele>183.5</ele>
        <time>2024-11-27T15:45:00.000Z</time>
      </trkpt>
      <trkpt lat="43.48041" lon="6.12782">
        <ele>184.6</ele>
        <time>2024-11-27T15:45:09.000Z</time>
      </trkpt>
      <trkpt lat="43.48033" lon="6.12775">
        <ele>185.4</ele>
        <time>2024-11-27T15:45:17.000Z</time>
      </trkpt>
      <trkpt lat="43.48024" lon="6.12771">
        <ele>186.4</ele>
        <time>2024-11-27T15:45:27.000Z</time>
      </trkpt>
      <trkpt lat="43.4802" lon="6.12772">
        <ele>187.5</ele>
        <time>2024-11-27T15:45:45.000Z</time>
      </trkpt>
      <trkpt lat="43.48019" lon="6.12772">
        <ele>187.6</ele>
        <time>2024-11-27T15:46:00.000Z</time>
      </trkpt>
      <trkpt lat="43.48019" lon="6.12772">
        <ele>187.6</ele>
        <time>2024-11-27T15:46:01.000Z</time>
      </trkpt>
      <trkpt lat="43.48017" lon="6.12771">
        <ele>187.6</ele>
        <time>2024-11-27T15:46:07.000Z</time>
      </trkpt>
      <trkpt lat="43.48017" lon="6.12771">
        <ele>187.6</ele>
        <time>2024-11-27T15:46:08.000Z</time>
      </trkpt>
      <trkpt lat="43.48017" lon="6.12771">
        <ele>187.6</ele>
        <time>2024-11-27T15:46:09.000Z</time>
      </trkpt>
      <trkpt lat="43.48015" lon="6.12774">
        <ele>187.5</ele>
        <time>2024-11-27T15:46:18.000Z</time>
      </trkpt>
      <trkpt lat="43.48015" lon="6.12774">
        <ele>187.4</ele>
        <time>2024-11-27T15:46:19.000Z</time>
      </trkpt>
      <trkpt lat="43.48016" lon="6.12772">
        <ele>187.4</ele>
        <time>2024-11-27T15:46:25.000Z</time>
      </trkpt>
      <trkpt lat="43.48016" lon="6.12772">
        <ele>187.4</ele>
        <time>2024-11-27T15:46:26.000Z</time>
      </trkpt>
      <trkpt lat="43.48016" lon="6.12772">
        <ele>187.3</ele>
        <time>2024-11-27T15:46:38.000Z</time>
      </trkpt>
      <trkpt lat="43.48016" lon="6.12771">
        <ele>187.3</ele>
        <time>2024-11-27T15:46:39.000Z</time>
      </trkpt>
      <trkpt lat="43.48018" lon="6.1278">
        <ele>187.2</ele>
        <time>2024-11-27T15:46:56.000Z</time>
      </trkpt>
      <trkpt lat="43.48018" lon="6.1278">
        <ele>187.2</ele>
        <time>2024-11-27T15:46:57.000Z</time>
      </trkpt>
      <trkpt lat="43.48018" lon="6.1278">
        <ele>187.2</ele>
        <time>2024-11-27T15:47:00.000Z</time>
      </trkpt>
      <trkpt lat="43.48018" lon="6.1278">
        <ele>187.2</ele>
        <time>2024-11-27T15:47:01.000Z</time>
      </trkpt>
      <trkpt lat="43.48018" lon="6.1278">
        <ele>187.2</ele>
        <time>2024-11-27T15:47:05.000Z</time>
      </trkpt>
      <trkpt lat="43.48018" lon="6.1278">
        <ele>187.2</ele>
        <time>2024-11-27T15:47:06.000Z</time>
      </trkpt>
      <trkpt lat="43.48018" lon="6.1278">
        <ele>187.2</ele>
        <time>2024-11-27T15:47:12.000Z</time>
      </trkpt>
      <trkpt lat="43.48018" lon="6.1278">
        <ele>187.2</ele>
        <time>2024-11-27T15:47:13.000Z</time>
      </trkpt>
      <trkpt lat="43.48018" lon="6.1278">
        <ele>187.2</ele>
        <time>2024-11-27T15:47:14.000Z</time>
      </trkpt>
      <trkpt lat="43.48018" lon="6.1278">
        <ele>187.2</ele>
        <time>2024-11-27T15:47:15.000Z</time>
      </trkpt>
      <trkpt lat="43.48019" lon="6.12781">
        <ele>187.2</ele>
        <time>2024-11-27T15:47:16.000Z</time>
      </trkpt>
      <trkpt lat="43.48019" lon="6.12781">
        <ele>187.2</ele>
        <time>2024-11-27T15:47:17.000Z</time>
      </trkpt>
      <trkpt lat="43.48019" lon="6.12782">
        <ele>187.2</ele>
        <time>2024-11-27T15:47:18.000Z</time>
      </trkpt>
      <trkpt lat="43.48019" lon="6.12782">
        <ele>187.2</ele>
        <time>2024-11-27T15:47:19.000Z</time>
      </trkpt>
      <trkpt lat="43.48019" lon="6.12782">
        <ele>187.1</ele>
        <time>2024-11-27T15:47:23.000Z</time>
      </trkpt>
      <trkpt lat="43.48019" lon="6.12782">
        <ele>187.1</ele>
        <time>2024-11-27T15:47:24.000Z</time>
      </trkpt>
      <trkpt lat="43.4802" lon="6.12781">
        <ele>187.1</ele>
        <time>2024-11-27T15:47:27.000Z</time>
      </trkpt>
      <trkpt lat="43.4802" lon="6.12781">
        <ele>187.1</ele>
        <time>2024-11-27T15:47:28.000Z</time>
      </trkpt>
      <trkpt lat="43.4802" lon="6.1278">
        <ele>187.1</ele>
        <time>2024-11-27T15:47:29.000Z</time>
      </trkpt>
      <trkpt lat="43.48021" lon="6.12778">
        <ele>187.1</ele>
        <time>2024-11-27T15:47:37.000Z</time>
      </trkpt>
      <trkpt lat="43.48021" lon="6.12777">
        <ele>187.1</ele>
        <time>2024-11-27T15:47:38.000Z</time>
      </trkpt>
      <trkpt lat="43.48021" lon="6.12777">
        <ele>187.1</ele>
        <time>2024-11-27T15:47:39.000Z</time>
      </trkpt>
      <trkpt lat="43.48021" lon="6.12776">
        <ele>187.1</ele>
        <time>2024-11-27T15:47:40.000Z</time>
      </trkpt>
      <trkpt lat="43.48021" lon="6.12776">
        <ele>187.1</ele>
        <time>2024-11-27T15:47:41.000Z</time>
      </trkpt>
      <trkpt lat="43.48019" lon="6.12777">
        <ele>187</ele>
        <time>2024-11-27T15:47:56.000Z</time>
      </trkpt>
      <trkpt lat="43.48019" lon="6.12777">
        <ele>187</ele>
        <time>2024-11-27T15:47:57.000Z</time>
      </trkpt>
      <trkpt lat="43.48019" lon="6.12777">
        <ele>187</ele>
        <time>2024-11-27T15:47:58.000Z</time>
      </trkpt>
      <trkpt lat="43.48019" lon="6.12777">
        <ele>187</ele>
        <time>2024-11-27T15:47:59.000Z</time>
      </trkpt>
      <trkpt lat="43.48019" lon="6.12775">
        <ele>187</ele>
        <time>2024-11-27T15:48:05.000Z</time>
      </trkpt>
      <trkpt lat="43.48019" lon="6.12775">
        <ele>187</ele>
        <time>2024-11-27T15:48:06.000Z</time>
      </trkpt>
      <trkpt lat="43.48019" lon="6.12775">
        <ele>187</ele>
        <time>2024-11-27T15:48:15.000Z</time>
      </trkpt>
      <trkpt lat="43.48019" lon="6.12775">
        <ele>187</ele>
        <time>2024-11-27T15:48:16.000Z</time>
      </trkpt>
      <trkpt lat="43.48019" lon="6.12773">
        <ele>187</ele>
        <time>2024-11-27T15:48:20.000Z</time>
      </trkpt>
      <trkpt lat="43.48019" lon="6.12773">
        <ele>187</ele>
        <time>2024-11-27T15:48:21.000Z</time>
      </trkpt>
      <trkpt lat="43.48019" lon="6.12772">
        <ele>187</ele>
        <time>2024-11-27T15:48:22.000Z</time>
      </trkpt>
      <trkpt lat="43.4802" lon="6.12771">
        <ele>187</ele>
        <time>2024-11-27T15:48:23.000Z</time>
      </trkpt>
      <trkpt lat="43.4802" lon="6.12769">
        <ele>187</ele>
        <time>2024-11-27T15:48:24.000Z</time>
      </trkpt>
      <trkpt lat="43.48017" lon="6.12756">
        <ele>187</ele>
        <time>2024-11-27T15:48:32.000Z</time>
      </trkpt>
      <trkpt lat="43.48011" lon="6.12746">
        <ele>186.9</ele>
        <time>2024-11-27T15:48:38.000Z</time>
      </trkpt>
      <trkpt lat="43.48008" lon="6.12734">
        <ele>186.7</ele>
        <time>2024-11-27T15:48:47.000Z</time>
      </trkpt>
      <trkpt lat="43.48005" lon="6.12723">
        <ele>186.4</ele>
        <time>2024-11-27T15:48:54.000Z</time>
      </trkpt>
      <trkpt lat="43.48" lon="6.1271">
        <ele>185.7</ele>
        <time>2024-11-27T15:49:02.000Z</time>
      </trkpt>
      <trkpt lat="43.47995" lon="6.12699">
        <ele>185.1</ele>
        <time>2024-11-27T15:49:09.000Z</time>
      </trkpt>
      <trkpt lat="43.47989" lon="6.12688">
        <ele>184.7</ele>
        <time>2024-11-27T15:49:16.000Z</time>
      </trkpt>
      <trkpt lat="43.47983" lon="6.12677">
        <ele>184.6</ele>
        <time>2024-11-27T15:49:23.000Z</time>
      </trkpt>
      <trkpt lat="43.47976" lon="6.12666">
        <ele>184.3</ele>
        <time>2024-11-27T15:49:29.000Z</time>
      </trkpt>
      <trkpt lat="43.4797" lon="6.12658">
        <ele>184.4</ele>
        <time>2024-11-27T15:49:37.000Z</time>
      </trkpt>
      <trkpt lat="43.47962" lon="6.12649">
        <ele>184.3</ele>
        <time>2024-11-27T15:49:45.000Z</time>
      </trkpt>
      <trkpt lat="43.47954" lon="6.12642">
        <ele>184.3</ele>
        <time>2024-11-27T15:49:53.000Z</time>
      </trkpt>
      <trkpt lat="43.47945" lon="6.12635">
        <ele>184.3</ele>
        <time>2024-11-27T15:50:02.000Z</time>
      </trkpt>
      <trkpt lat="43.47937" lon="6.12628">
        <ele>184.2</ele>
        <time>2024-11-27T15:50:13.000Z</time>
      </trkpt>
      <trkpt lat="43.47929" lon="6.12621">
        <ele>184.2</ele>
        <time>2024-11-27T15:50:22.000Z</time>
      </trkpt>
      <trkpt lat="43.47921" lon="6.12613">
        <ele>184.2</ele>
        <time>2024-11-27T15:50:29.000Z</time>
      </trkpt>
      <trkpt lat="43.47913" lon="6.12604">
        <ele>184.3</ele>
        <time>2024-11-27T15:50:36.000Z</time>
      </trkpt>
      <trkpt lat="43.47905" lon="6.12597">
        <ele>184.3</ele>
        <time>2024-11-27T15:50:43.000Z</time>
      </trkpt>
      <trkpt lat="43.47897" lon="6.1259">
        <ele>184.5</ele>
        <time>2024-11-27T15:50:51.000Z</time>
      </trkpt>
      <trkpt lat="43.47888" lon="6.1259">
        <ele>184.8</ele>
        <time>2024-11-27T15:50:59.000Z</time>
      </trkpt>
      <trkpt lat="43.47878" lon="6.1259">
        <ele>185.5</ele>
        <time>2024-11-27T15:51:08.000Z</time>
      </trkpt>
      <trkpt lat="43.47869" lon="6.12588">
        <ele>186.3</ele>
        <time>2024-11-27T15:51:19.000Z</time>
      </trkpt>
      <trkpt lat="43.4786" lon="6.12584">
        <ele>187.4</ele>
        <time>2024-11-27T15:51:28.000Z</time>
      </trkpt>
      <trkpt lat="43.47851" lon="6.12578">
        <ele>188.6</ele>
        <time>2024-11-27T15:51:36.000Z</time>
      </trkpt>
      <trkpt lat="43.47847" lon="6.12567">
        <ele>189.9</ele>
        <time>2024-11-27T15:51:45.000Z</time>
      </trkpt>
      <trkpt lat="43.47844" lon="6.12554">
        <ele>191</ele>
        <time>2024-11-27T15:51:57.000Z</time>
      </trkpt>
      <trkpt lat="43.47841" lon="6.12541">
        <ele>192.2</ele>
        <time>2024-11-27T15:52:07.000Z</time>
      </trkpt>
      <trkpt lat="43.47837" lon="6.12528">
        <ele>193.1</ele>
        <time>2024-11-27T15:52:16.000Z</time>
      </trkpt>
      <trkpt lat="43.47833" lon="6.12515">
        <ele>193.8</ele>
        <time>2024-11-27T15:52:23.000Z</time>
      </trkpt>
      <trkpt lat="43.47828" lon="6.12504">
        <ele>194.5</ele>
        <time>2024-11-27T15:52:31.000Z</time>
      </trkpt>
      <trkpt lat="43.47824" lon="6.12492">
        <ele>195.4</ele>
        <time>2024-11-27T15:52:42.000Z</time>
      </trkpt>
      <trkpt lat="43.47818" lon="6.12482">
        <ele>196</ele>
        <time>2024-11-27T15:52:49.000Z</time>
      </trkpt>
      <trkpt lat="43.47811" lon="6.12474">
        <ele>196.8</ele>
        <time>2024-11-27T15:52:57.000Z</time>
      </trkpt>
      <trkpt lat="43.47804" lon="6.12464">
        <ele>197.7</ele>
        <time>2024-11-27T15:53:06.000Z</time>
      </trkpt>
      <trkpt lat="43.47798" lon="6.12454">
        <ele>199.2</ele>
        <time>2024-11-27T15:53:16.000Z</time>
      </trkpt>
      <trkpt lat="43.47791" lon="6.12444">
        <ele>201.7</ele>
        <time>2024-11-27T15:53:32.000Z</time>
      </trkpt>
      <trkpt lat="43.47785" lon="6.12433">
        <ele>202.7</ele>
        <time>2024-11-27T15:53:40.000Z</time>
      </trkpt>
      <trkpt lat="43.47777" lon="6.12423">
        <ele>203.9</ele>
        <time>2024-11-27T15:53:49.000Z</time>
      </trkpt>
      <trkpt lat="43.47771" lon="6.12415">
        <ele>204.3</ele>
        <time>2024-11-27T15:53:57.000Z</time>
      </trkpt>
      <trkpt lat="43.47767" lon="6.12415">
        <ele>204.4</ele>
        <time>2024-11-27T15:54:07.000Z</time>
      </trkpt>
      <trkpt lat="43.47766" lon="6.12415">
        <ele>204.5</ele>
        <time>2024-11-27T15:54:08.000Z</time>
      </trkpt>
      <trkpt lat="43.47766" lon="6.12416">
        <ele>204.5</ele>
        <time>2024-11-27T15:54:09.000Z</time>
      </trkpt>
      <trkpt lat="43.47766" lon="6.12415">
        <ele>204.5</ele>
        <time>2024-11-27T15:54:15.000Z</time>
      </trkpt>
      <trkpt lat="43.47765" lon="6.12414">
        <ele>204.5</ele>
        <time>2024-11-27T15:54:16.000Z</time>
      </trkpt>
      <trkpt lat="43.47759" lon="6.12404">
        <ele>204.3</ele>
        <time>2024-11-27T15:54:25.000Z</time>
      </trkpt>
      <trkpt lat="43.47752" lon="6.12396">
        <ele>203.7</ele>
        <time>2024-11-27T15:54:36.000Z</time>
      </trkpt>
      <trkpt lat="43.47744" lon="6.12389">
        <ele>202.6</ele>
        <time>2024-11-27T15:54:44.000Z</time>
      </trkpt>
      <trkpt lat="43.47736" lon="6.12383">
        <ele>201.4</ele>
        <time>2024-11-27T15:54:53.000Z</time>
      </trkpt>
      <trkpt lat="43.4773" lon="6.12373">
        <ele>199.9</ele>
        <time>2024-11-27T15:55:06.000Z</time>
      </trkpt>
      <trkpt lat="43.47722" lon="6.12365">
        <ele>199.1</ele>
        <time>2024-11-27T15:55:13.000Z</time>
      </trkpt>
      <trkpt lat="43.47714" lon="6.12356">
        <ele>198.4</ele>
        <time>2024-11-27T15:55:21.000Z</time>
      </trkpt>
      <trkpt lat="43.47706" lon="6.12351">
        <ele>197.8</ele>
        <time>2024-11-27T15:55:28.000Z</time>
      </trkpt>
      <trkpt lat="43.47698" lon="6.12344">
        <ele>196.4</ele>
        <time>2024-11-27T15:55:41.000Z</time>
      </trkpt>
      <trkpt lat="43.47689" lon="6.1234">
        <ele>195.2</ele>
        <time>2024-11-27T15:55:52.000Z</time>
      </trkpt>
      <trkpt lat="43.4768" lon="6.12336">
        <ele>194.3</ele>
        <time>2024-11-27T15:56:00.000Z</time>
      </trkpt>
      <trkpt lat="43.47672" lon="6.12329">
        <ele>192.6</ele>
        <time>2024-11-27T15:56:16.000Z</time>
      </trkpt>
      <trkpt lat="43.47664" lon="6.12321">
        <ele>191.9</ele>
        <time>2024-11-27T15:56:23.000Z</time>
      </trkpt>
      <trkpt lat="43.47657" lon="6.12311">
        <ele>190.3</ele>
        <time>2024-11-27T15:56:36.000Z</time>
      </trkpt>
      <trkpt lat="43.47649" lon="6.12302">
        <ele>188.9</ele>
        <time>2024-11-27T15:56:46.000Z</time>
      </trkpt>
      <trkpt lat="43.47647" lon="6.12302">
        <ele>188.6</ele>
        <time>2024-11-27T15:56:50.000Z</time>
      </trkpt>
      <trkpt lat="43.47647" lon="6.12302">
        <ele>188.6</ele>
        <time>2024-11-27T15:56:51.000Z</time>
      </trkpt>
      <trkpt lat="43.47647" lon="6.12301">
        <ele>188.4</ele>
        <time>2024-11-27T15:56:55.000Z</time>
      </trkpt>
      <trkpt lat="43.47647" lon="6.12301">
        <ele>188.3</ele>
        <time>2024-11-27T15:56:56.000Z</time>
      </trkpt>
      <trkpt lat="43.47646" lon="6.12301">
        <ele>188.3</ele>
        <time>2024-11-27T15:56:57.000Z</time>
      </trkpt>
      <trkpt lat="43.4764" lon="6.12291">
        <ele>187.1</ele>
        <time>2024-11-27T15:57:16.000Z</time>
      </trkpt>
      <trkpt lat="43.47632" lon="6.12283">
        <ele>186.5</ele>
        <time>2024-11-27T15:57:25.000Z</time>
      </trkpt>
      <trkpt lat="43.47623" lon="6.12276">
        <ele>185.6</ele>
        <time>2024-11-27T15:57:34.000Z</time>
      </trkpt>
      <trkpt lat="43.47615" lon="6.12269">
        <ele>183.9</ele>
        <time>2024-11-27T15:57:46.000Z</time>
      </trkpt>
      <trkpt lat="43.47607" lon="6.12263">
        <ele>182.9</ele>
        <time>2024-11-27T15:57:56.000Z</time>
      </trkpt>
      <trkpt lat="43.47598" lon="6.12257">
        <ele>181.9</ele>
        <time>2024-11-27T15:58:05.000Z</time>
      </trkpt>
      <trkpt lat="43.47589" lon="6.12255">
        <ele>180.9</ele>
        <time>2024-11-27T15:58:14.000Z</time>
      </trkpt>
      <trkpt lat="43.47582" lon="6.12246">
        <ele>179.8</ele>
        <time>2024-11-27T15:58:24.000Z</time>
      </trkpt>
      <trkpt lat="43.47574" lon="6.12238">
        <ele>179</ele>
        <time>2024-11-27T15:58:34.000Z</time>
      </trkpt>
      <trkpt lat="43.47565" lon="6.12234">
        <ele>177.9</ele>
        <time>2024-11-27T15:58:46.000Z</time>
      </trkpt>
      <trkpt lat="43.47559" lon="6.12223">
        <ele>176</ele>
        <time>2024-11-27T15:58:59.000Z</time>
      </trkpt>
      <trkpt lat="43.47552" lon="6.12216">
        <ele>173.4</ele>
        <time>2024-11-27T15:59:18.000Z</time>
      </trkpt>
      <trkpt lat="43.47553" lon="6.12217">
        <ele>173.4</ele>
        <time>2024-11-27T15:59:19.000Z</time>
      </trkpt>
      <trkpt lat="43.47553" lon="6.12217">
        <ele>173.3</ele>
        <time>2024-11-27T15:59:20.000Z</time>
      </trkpt>
      <trkpt lat="43.47554" lon="6.12215">
        <ele>173</ele>
        <time>2024-11-27T15:59:28.000Z</time>
      </trkpt>
      <trkpt lat="43.47552" lon="6.12214">
        <ele>172.9</ele>
        <time>2024-11-27T15:59:29.000Z</time>
      </trkpt>
      <trkpt lat="43.47544" lon="6.12209">
        <ele>172.5</ele>
        <time>2024-11-27T15:59:36.000Z</time>
      </trkpt>
      <trkpt lat="43.47535" lon="6.12204">
        <ele>171.2</ele>
        <time>2024-11-27T15:59:48.000Z</time>
      </trkpt>
      <trkpt lat="43.47526" lon="6.12201">
        <ele>169.4</ele>
        <time>2024-11-27T15:59:59.000Z</time>
      </trkpt>
      <trkpt lat="43.47516" lon="6.12203">
        <ele>167.5</ele>
        <time>2024-11-27T16:00:14.000Z</time>
      </trkpt>
      <trkpt lat="43.47507" lon="6.12206">
        <ele>166.4</ele>
        <time>2024-11-27T16:00:28.000Z</time>
      </trkpt>
      <trkpt lat="43.47498" lon="6.12208">
        <ele>164.9</ele>
        <time>2024-11-27T16:00:40.000Z</time>
      </trkpt>
      <trkpt lat="43.4749" lon="6.12213">
        <ele>162.5</ele>
        <time>2024-11-27T16:00:53.000Z</time>
      </trkpt>
      <trkpt lat="43.47484" lon="6.12218">
        <ele>160.7</ele>
        <time>2024-11-27T16:01:18.000Z</time>
      </trkpt>
      <trkpt lat="43.47484" lon="6.12218">
        <ele>160.6</ele>
        <time>2024-11-27T16:01:19.000Z</time>
      </trkpt>
      <trkpt lat="43.47483" lon="6.12218">
        <ele>160.6</ele>
        <time>2024-11-27T16:01:20.000Z</time>
      </trkpt>
      <trkpt lat="43.47483" lon="6.12219">
        <ele>160.6</ele>
        <time>2024-11-27T16:01:21.000Z</time>
      </trkpt>
      <trkpt lat="43.47477" lon="6.1223">
        <ele>159.7</ele>
        <time>2024-11-27T16:01:38.000Z</time>
      </trkpt>
      <trkpt lat="43.47468" lon="6.12233">
        <ele>159.1</ele>
        <time>2024-11-27T16:01:47.000Z</time>
      </trkpt>
      <trkpt lat="43.47461" lon="6.12241">
        <ele>157.4</ele>
        <time>2024-11-27T16:01:57.000Z</time>
      </trkpt>
      <trkpt lat="43.47455" lon="6.12247">
        <ele>154.7</ele>
        <time>2024-11-27T16:02:25.000Z</time>
      </trkpt>
      <trkpt lat="43.47455" lon="6.12247">
        <ele>154.7</ele>
        <time>2024-11-27T16:02:26.000Z</time>
      </trkpt>
      <trkpt lat="43.47455" lon="6.12247">
        <ele>154.6</ele>
        <time>2024-11-27T16:02:27.000Z</time>
      </trkpt>
      <trkpt lat="43.47456" lon="6.12247">
        <ele>154.6</ele>
        <time>2024-11-27T16:02:28.000Z</time>
      </trkpt>
      <trkpt lat="43.47456" lon="6.12247">
        <ele>154.6</ele>
        <time>2024-11-27T16:02:29.000Z</time>
      </trkpt>
      <trkpt lat="43.47456" lon="6.12247">
        <ele>154.6</ele>
        <time>2024-11-27T16:02:30.000Z</time>
      </trkpt>
      <trkpt lat="43.47456" lon="6.12247">
        <ele>154.5</ele>
        <time>2024-11-27T16:02:31.000Z</time>
      </trkpt>
      <trkpt lat="43.47456" lon="6.12244">
        <ele>154.3</ele>
        <time>2024-11-27T16:02:47.000Z</time>
      </trkpt>
      <trkpt lat="43.47456" lon="6.12245">
        <ele>154.2</ele>
        <time>2024-11-27T16:02:48.000Z</time>
      </trkpt>
      <trkpt lat="43.47456" lon="6.12245">
        <ele>154.2</ele>
        <time>2024-11-27T16:02:49.000Z</time>
      </trkpt>
      <trkpt lat="43.47456" lon="6.12244">
        <ele>154.1</ele>
        <time>2024-11-27T16:02:57.000Z</time>
      </trkpt>
      <trkpt lat="43.47456" lon="6.12244">
        <ele>154.1</ele>
        <time>2024-11-27T16:02:58.000Z</time>
      </trkpt>
      <trkpt lat="43.47456" lon="6.12244">
        <ele>154.1</ele>
        <time>2024-11-27T16:02:59.000Z</time>
      </trkpt>
      <trkpt lat="43.47456" lon="6.12246">
        <ele>153.9</ele>
        <time>2024-11-27T16:03:20.000Z</time>
      </trkpt>
      <trkpt lat="43.47456" lon="6.12246">
        <ele>153.9</ele>
        <time>2024-11-27T16:03:21.000Z</time>
      </trkpt>
      <trkpt lat="43.47456" lon="6.12246">
        <ele>153.9</ele>
        <time>2024-11-27T16:03:22.000Z</time>
      </trkpt>
      <trkpt lat="43.47456" lon="6.12246">
        <ele>153.9</ele>
        <time>2024-11-27T16:03:23.000Z</time>
      </trkpt>
      <trkpt lat="43.47456" lon="6.12246">
        <ele>153.9</ele>
        <time>2024-11-27T16:03:24.000Z</time>
      </trkpt>
      <trkpt lat="43.47457" lon="6.12245">
        <ele>153.8</ele>
        <time>2024-11-27T16:03:57.000Z</time>
      </trkpt>
      <trkpt lat="43.47457" lon="6.12245">
        <ele>153.8</ele>
        <time>2024-11-27T16:03:58.000Z</time>
      </trkpt>
      <trkpt lat="43.47458" lon="6.12245">
        <ele>153.8</ele>
        <time>2024-11-27T16:03:59.000Z</time>
      </trkpt>
      <trkpt lat="43.47458" lon="6.12246">
        <ele>153.8</ele>
        <time>2024-11-27T16:04:00.000Z</time>
      </trkpt>
      <trkpt lat="43.47458" lon="6.12246">
        <ele>153.8</ele>
        <time>2024-11-27T16:04:01.000Z</time>
      </trkpt>
      <trkpt lat="43.47458" lon="6.12246">
        <ele>153.8</ele>
        <time>2024-11-27T16:04:02.000Z</time>
      </trkpt>
      <trkpt lat="43.47458" lon="6.12246">
        <ele>153.8</ele>
        <time>2024-11-27T16:04:10.000Z</time>
      </trkpt>
      <trkpt lat="43.47458" lon="6.12245">
        <ele>153.8</ele>
        <time>2024-11-27T16:04:11.000Z</time>
      </trkpt>
      <trkpt lat="43.47456" lon="6.12233">
        <ele>153.2</ele>
        <time>2024-11-27T16:04:25.000Z</time>
      </trkpt>
      <trkpt lat="43.47454" lon="6.1222">
        <ele>150.9</ele>
        <time>2024-11-27T16:04:36.000Z</time>
      </trkpt>
      <trkpt lat="43.47457" lon="6.12208">
        <ele>148.1</ele>
        <time>2024-11-27T16:04:49.000Z</time>
      </trkpt>
      <trkpt lat="43.47454" lon="6.12196">
        <ele>144</ele>
        <time>2024-11-27T16:05:13.000Z</time>
      </trkpt>
      <trkpt lat="43.4745" lon="6.12184">
        <ele>140</ele>
        <time>2024-11-27T16:05:31.000Z</time>
      </trkpt>
      <trkpt lat="43.47447" lon="6.12179">
        <ele>137.4</ele>
        <time>2024-11-27T16:05:50.000Z</time>
      </trkpt>
      <trkpt lat="43.47445" lon="6.1218">
        <ele>137.3</ele>
        <time>2024-11-27T16:05:51.000Z</time>
      </trkpt>
      <trkpt lat="43.47443" lon="6.1218">
        <ele>137.2</ele>
        <time>2024-11-27T16:06:00.000Z</time>
      </trkpt>
      <trkpt lat="43.47442" lon="6.12181">
        <ele>137.2</ele>
        <time>2024-11-27T16:06:01.000Z</time>
      </trkpt>
      <trkpt lat="43.47443" lon="6.1218">
        <ele>137.2</ele>
        <time>2024-11-27T16:06:02.000Z</time>
      </trkpt>
      <trkpt lat="43.47443" lon="6.12181">
        <ele>137.2</ele>
        <time>2024-11-27T16:06:08.000Z</time>
      </trkpt>
      <trkpt lat="43.47443" lon="6.12181">
        <ele>137.2</ele>
        <time>2024-11-27T16:06:09.000Z</time>
      </trkpt>
      <trkpt lat="43.47446" lon="6.12179">
        <ele>137.2</ele>
        <time>2024-11-27T16:06:22.000Z</time>
      </trkpt>
      <trkpt lat="43.47447" lon="6.12178">
        <ele>137.2</ele>
        <time>2024-11-27T16:06:23.000Z</time>
      </trkpt>
      <trkpt lat="43.47448" lon="6.12178">
        <ele>137.2</ele>
        <time>2024-11-27T16:06:24.000Z</time>
      </trkpt>
      <trkpt lat="43.47448" lon="6.12179">
        <ele>137.3</ele>
        <time>2024-11-27T16:06:28.000Z</time>
      </trkpt>
      <trkpt lat="43.47448" lon="6.12179">
        <ele>137.3</ele>
        <time>2024-11-27T16:06:29.000Z</time>
      </trkpt>
      <trkpt lat="43.47448" lon="6.12179">
        <ele>137.3</ele>
        <time>2024-11-27T16:06:32.000Z</time>
      </trkpt>
      <trkpt lat="43.47447" lon="6.12178">
        <ele>137.3</ele>
        <time>2024-11-27T16:06:33.000Z</time>
      </trkpt>
      <trkpt lat="43.47448" lon="6.12178">
        <ele>137.3</ele>
        <time>2024-11-27T16:06:34.000Z</time>
      </trkpt>
      <trkpt lat="43.47448" lon="6.12178">
        <ele>137.3</ele>
        <time>2024-11-27T16:06:35.000Z</time>
      </trkpt>
      <trkpt lat="43.47448" lon="6.12178">
        <ele>137.4</ele>
        <time>2024-11-27T16:06:36.000Z</time>
      </trkpt>
      <trkpt lat="43.47448" lon="6.12178">
        <ele>137.4</ele>
        <time>2024-11-27T16:06:37.000Z</time>
      </trkpt>
      <trkpt lat="43.47446" lon="6.12177">
        <ele>137.4</ele>
        <time>2024-11-27T16:06:46.000Z</time>
      </trkpt>
      <trkpt lat="43.47444" lon="6.12177">
        <ele>137.4</ele>
        <time>2024-11-27T16:06:47.000Z</time>
      </trkpt>
      <trkpt lat="43.47423" lon="6.12182">
        <ele>137.4</ele>
        <time>2024-11-27T16:07:04.000Z</time>
      </trkpt>
      <trkpt lat="43.47412" lon="6.12181">
        <ele>137.4</ele>
        <time>2024-11-27T16:07:05.000Z</time>
      </trkpt>
      <trkpt lat="43.47408" lon="6.12183">
        <ele>137.4</ele>
        <time>2024-11-27T16:07:06.000Z</time>
      </trkpt>
      <trkpt lat="43.47405" lon="6.12186">
        <ele>137.4</ele>
        <time>2024-11-27T16:07:07.000Z</time>
      </trkpt>
      <trkpt lat="43.47406" lon="6.12187">
        <ele>137.5</ele>
        <time>2024-11-27T16:07:28.000Z</time>
      </trkpt>
      <trkpt lat="43.47406" lon="6.12187">
        <ele>137.5</ele>
        <time>2024-11-27T16:07:29.000Z</time>
      </trkpt>
      <trkpt lat="43.47406" lon="6.12186">
        <ele>137.5</ele>
        <time>2024-11-27T16:07:30.000Z</time>
      </trkpt>
      <trkpt lat="43.47406" lon="6.12186">
        <ele>137.5</ele>
        <time>2024-11-27T16:07:31.000Z</time>
      </trkpt>
      <trkpt lat="43.47405" lon="6.12188">
        <ele>137.5</ele>
        <time>2024-11-27T16:07:38.000Z</time>
      </trkpt>
      <trkpt lat="43.47405" lon="6.12188">
        <ele>137.5</ele>
        <time>2024-11-27T16:07:39.000Z</time>
      </trkpt>
      <trkpt lat="43.47405" lon="6.12192">
        <ele>137.5</ele>
        <time>2024-11-27T16:07:48.000Z</time>
      </trkpt>
      <trkpt lat="43.47405" lon="6.12191">
        <ele>137.5</ele>
        <time>2024-11-27T16:07:49.000Z</time>
      </trkpt>
      <trkpt lat="43.47394" lon="6.1219">
        <ele>137.5</ele>
        <time>2024-11-27T16:07:59.000Z</time>
      </trkpt>
      <trkpt lat="43.47386" lon="6.12198">
        <ele>137.5</ele>
        <time>2024-11-27T16:08:07.000Z</time>
      </trkpt>
      <trkpt lat="43.47376" lon="6.122">
        <ele>137.5</ele>
        <time>2024-11-27T16:08:16.000Z</time>
      </trkpt>
      <trkpt lat="43.47367" lon="6.12203">
        <ele>137.4</ele>
        <time>2024-11-27T16:08:22.000Z</time>
      </trkpt>
      <trkpt lat="43.47359" lon="6.12209">
        <ele>137.3</ele>
        <time>2024-11-27T16:08:28.000Z</time>
      </trkpt>
      <trkpt lat="43.4735" lon="6.12213">
        <ele>136.9</ele>
        <time>2024-11-27T16:08:41.000Z</time>
      </trkpt>
      <trkpt lat="43.47339" lon="6.12215">
        <ele>136.7</ele>
        <time>2024-11-27T16:08:47.000Z</time>
      </trkpt>
      <trkpt lat="43.47329" lon="6.12218">
        <ele>136.4</ele>
        <time>2024-11-27T16:08:54.000Z</time>
      </trkpt>
      <trkpt lat="43.4732" lon="6.12219">
        <ele>136.1</ele>
        <time>2024-11-27T16:09:01.000Z</time>
      </trkpt>
      <trkpt lat="43.47311" lon="6.12218">
        <ele>135.9</ele>
        <time>2024-11-27T16:09:09.000Z</time>
      </trkpt>
      <trkpt lat="43.47301" lon="6.12224">
        <ele>135.7</ele>
        <time>2024-11-27T16:09:17.000Z</time>
      </trkpt>
      <trkpt lat="43.47291" lon="6.12224">
        <ele>135.4</ele>
        <time>2024-11-27T16:09:25.000Z</time>
      </trkpt>
      <trkpt lat="43.47282" lon="6.12228">
        <ele>135.2</ele>
        <time>2024-11-27T16:09:33.000Z</time>
      </trkpt>
      <trkpt lat="43.47281" lon="6.12231">
        <ele>134.8</ele>
        <time>2024-11-27T16:09:48.000Z</time>
      </trkpt>
      <trkpt lat="43.47281" lon="6.12231">
        <ele>134.7</ele>
        <time>2024-11-27T16:09:49.000Z</time>
      </trkpt>
      <trkpt lat="43.47281" lon="6.12231">
        <ele>134.5</ele>
        <time>2024-11-27T16:09:58.000Z</time>
      </trkpt>
      <trkpt lat="43.47281" lon="6.12231">
        <ele>134.5</ele>
        <time>2024-11-27T16:09:59.000Z</time>
      </trkpt>
      <trkpt lat="43.47281" lon="6.12231">
        <ele>134.5</ele>
        <time>2024-11-27T16:10:00.000Z</time>
      </trkpt>
      <trkpt lat="43.47283" lon="6.12232">
        <ele>134.5</ele>
        <time>2024-11-27T16:10:03.000Z</time>
      </trkpt>
      <trkpt lat="43.47282" lon="6.12232">
        <ele>134.5</ele>
        <time>2024-11-27T16:10:04.000Z</time>
      </trkpt>
      <trkpt lat="43.4728" lon="6.12232">
        <ele>134.5</ele>
        <time>2024-11-27T16:10:08.000Z</time>
      </trkpt>
      <trkpt lat="43.4728" lon="6.12232">
        <ele>134.5</ele>
        <time>2024-11-27T16:10:09.000Z</time>
      </trkpt>
      <trkpt lat="43.4727" lon="6.12236">
        <ele>134.4</ele>
        <time>2024-11-27T16:10:27.000Z</time>
      </trkpt>
      <trkpt lat="43.4726" lon="6.12241">
        <ele>134.3</ele>
        <time>2024-11-27T16:10:34.000Z</time>
      </trkpt>
      <trkpt lat="43.47252" lon="6.12247">
        <ele>134.1</ele>
        <time>2024-11-27T16:10:47.000Z</time>
      </trkpt>
      <trkpt lat="43.47248" lon="6.1226">
        <ele>133.9</ele>
        <time>2024-11-27T16:11:00.000Z</time>
      </trkpt>
      <trkpt lat="43.47244" lon="6.12272">
        <ele>133.6</ele>
        <time>2024-11-27T16:11:09.000Z</time>
      </trkpt>
      <trkpt lat="43.47242" lon="6.12285">
        <ele>133.4</ele>
        <time>2024-11-27T16:11:18.000Z</time>
      </trkpt>
      <trkpt lat="43.47239" lon="6.12297">
        <ele>133.1</ele>
        <time>2024-11-27T16:11:29.000Z</time>
      </trkpt>
      <trkpt lat="43.47231" lon="6.12306">
        <ele>132.8</ele>
        <time>2024-11-27T16:11:38.000Z</time>
      </trkpt>
      <trkpt lat="43.47227" lon="6.12317">
        <ele>132.5</ele>
        <time>2024-11-27T16:11:45.000Z</time>
      </trkpt>
      <trkpt lat="43.47225" lon="6.12329">
        <ele>132.1</ele>
        <time>2024-11-27T16:11:53.000Z</time>
      </trkpt>
      <trkpt lat="43.47224" lon="6.12332">
        <ele>131.8</ele>
        <time>2024-11-27T16:12:05.000Z</time>
      </trkpt>
      <trkpt lat="43.47224" lon="6.12332">
        <ele>131.7</ele>
        <time>2024-11-27T16:12:06.000Z</time>
      </trkpt>
    </trkseg>
  </trk>
</gpx>